.

MPMG - Transparência

Contracheque - Remuneração de todos os servidores ativos - Pré Resolução CNMP 200/2019

Período: 2013 - Janeiro

Ordem Matrícula Nome Cargo Efetivo Situação Unidade Administrativa Rendimentos Descontos Rendimento Líquido Total Indenizações Outras Remunerações Retroativas/Temporárias Data de Referência
Remuneração Básica Remuneração Eventual ou Temporária Total de Rendimentos Brutos Obrigatórios/Legais Total de Descontos
Remuneração do Cargo Efetivo Outras Verbas Remuneratórias Função de Confiança ou Cargo em Comissão Gratificação Natalina Férias Abono de Permanência Contribuição Previdenciária Imposto de Renda Retenção por Teto Constitucional
1 498900 ABDON MARCIO BARBOSA DA SILVA OFICIAL DO MP ATIVO ABRE CAMPO - COMARCA; ABRE CAMPO-PJ-02PJ 2.772,23 0,00 0,00 0,00 0,00 0,00 2.772,23 305,06 56,74 0,00 361,80 2.410,43 587,00 2,88 31/01/2013
2 177800 ADALBERTO MENEZES FARIA SAMORA OFICIAL DO MP ATIVO BELO HORIZONTE - COMARCA; DIRET DE PLANOS PROJETOS E PROGRAMAS INST 7.731,26 1.546,25 0,00 0,00 0,00 0,00 9.277,51 1.020,53 1.385,51 0,00 2.406,04 6.871,47 822,00 0,00 31/01/2013
3 306400 ADALBERTO MOREIRA GONCALVES ANALISTA DO MP ATIVO CONTAGEM - COMARCA; CONTAGEM-PJ-01PJ 7.982,93 798,29 0,00 0,00 0,00 0,00 8.781,22 965,93 1.358,62 0,00 2.324,55 6.456,67 352,00 0,00 31/01/2013
4 179300 ADENISE AUXILIADORA SOUZA SAD OFICIAL DO MP ATIVO BARBACENA - COMARCA; EXTINTA-BARBACENA - 06ª PJ EXECUÇÃO PENAL 7.487,46 1.497,49 0,00 0,00 0,00 0,00 8.984,95 988,34 1.313,90 0,00 2.302,24 6.682,71 352,00 0,00 31/01/2013
5 77700 ADIL EXPEDITO DE OLIVEIRA JUNIOR ASSESSOR ATIVO BELO HORIZONTE - COMARCA; CAO-CRIANCAS E ADOLESCENTES-SECRETARIA 0,00 5.989,97 7.487,46 0,00 0,00 0,00 13.477,43 1.482,52 2.413,44 0,00 3.895,96 9.581,47 352,00 0,00 31/01/2013
6 272200 ADILSON BATISTA ORNELAS OFICIAL DO MP ATIVO LAVRAS - COMARCA; LAVRAS-PJ-02PJ 3.698,79 369,88 0,00 0,00 0,00 0,00 4.068,67 452,29 119,39 0,00 571,68 3.496,99 352,00 75,41 31/01/2013
7 380100 ADILSON GONCALVES DE MELO JUNIOR ANALISTA DO MP ATIVO ARAXÁ - COMARCA; ARAXA-PJ-05PJ 5.883,73 353,02 0,00 0,00 0,00 0,00 6.236,75 686,04 641,28 0,00 1.327,32 4.909,43 4.037,68 294,77 31/01/2013
8 148800 ADILSON JANUARIO OFICIAL DO MP ATIVO BELO HORIZONTE - COMARCA; BH-22PJ PES COM DEF E IDOSOS-SECRETARIA 8.788,36 4.394,18 0,00 0,00 0,00 0,00 13.182,54 1.748,40 2.957,73 0,00 4.706,13 8.476,41 3.567,68 3.006,77 31/01/2013
9 322600 ADMILSON SILVEIRA OFICIAL DO MP ATIVO BOCAIÚVA - COMARCA; BOCAIUVA-PJ-01PJ 4.005,77 400,58 0,00 0,00 0,00 0,00 4.406,35 489,31 305,37 0,00 794,68 3.611,67 3.567,68 314,62 31/01/2013
10 333700 ADRIANA ABRITTA TEIXEIRA OFICIAL DO MP ATIVO BELO HORIZONTE - COMARCA; DIRET DE PESSOAL DO MINISTERIO PUBLICO - DPMP 5.344,58 534,46 0,00 0,00 0,00 0,00 5.879,04 779,72 944,31 0,00 1.724,03 4.155,01 352,00 1.209,36 31/01/2013
11 468500 ADRIANA APARECIDA FIRMINO ANALISTA DO MP ATIVO CARATINGA - COMARCA; CARATINGA-PJ-04PJ 4.701,73 0,00 0,00 0,00 0,00 0,00 4.701,73 522,31 287,14 0,00 809,45 3.892,28 587,00 81,41 31/01/2013
12 326100 ADRIANA AUGUSTA AMARAL BELO OFICIAL DO MP ATIVO BARBACENA - COMARCA; BARBACENA-PJ-08PJ 5.344,58 534,46 0,00 0,00 1.959,68 0,00 7.838,72 646,69 1.092,64 0,00 1.739,33 6.099,39 822,00 0,00 31/01/2013
13 254800 ADRIANA DAS GRACAS FERNANDES ANALISTA DO MP ATIVO UBERABA - COMARCA; UBERABA-PJ-07PJ 9.074,45 4.537,23 0,00 0,00 0,00 0,00 13.611,68 1.497,28 2.540,88 0,00 4.038,16 9.573,52 352,00 0,00 31/01/2013
14 246900 ADRIANA DE ALMEIDA ANTONINI ASSESSOR ATIVO BELO HORIZONTE - COMARCA; PROCON-MG-SECRETARIA DE FISCALIZACOES 0,00 443,06 2.215,31 0,00 0,00 0,00 2.658,37 366,48 43,58 0,00 410,06 2.248,31 1.947,02 58,18 31/01/2013
15 217400 ADRIANA DE CARVALHO CATAO BRAGA ASSESSOR ATIVO BELO HORIZONTE - COMARCA; EXTINTA - DIRETORIA DE CONTRATOS E CONVÊNIOS 0,00 1.176,75 5.883,73 0,00 0,00 0,00 7.060,48 457,49 1.025,24 0,00 1.482,73 5.577,75 352,00 0,00 31/01/2013
16 434600 ADRIANA FERREIRA DA SILVA ANALISTA DO MP ATIVO BELO HORIZONTE - COMARCA; BH-19PJ SAUDE 5.344,58 320,67 0,00 0,00 0,00 0,00 5.665,25 629,46 595,99 0,00 1.225,45 4.439,80 352,00 99,57 31/01/2013
17 499800 ADRIANA FERREIRA TIAGO OFICIAL DO MP ATIVO SALINAS - COMARCA; SALINAS-PJ-02PJ 2.772,23 0,00 0,00 0,00 0,00 0,00 2.772,23 305,04 56,74 0,00 361,78 2.410,45 352,00 2,28 31/01/2013
18 471500 ADRIANA HORTA DE CARVALHO RODRIGUES DE SOUSA ANALISTA DO MP ATIVO NOVA LIMA - COMARCA; NOVA LIMA-PJ-03PJ 5.698,20 0,00 0,00 0,00 0,00 0,00 5.698,20 756,44 732,43 0,00 1.488,87 4.209,33 587,00 1.387,96 31/01/2013
19 86400 ADRIANA MOREIRA CALDEIRA BRANT OFICIAL DO MP ATIVO BELO HORIZONTE - COMARCA; EXTINTA-TUTELA DAS FUNDACOES-21 PJ- GABINETE 7.731,26 3.092,51 0,00 0,00 3.607,92 0,00 14.431,69 1.190,61 2.803,43 0,00 3.994,04 10.437,65 352,00 0,00 31/01/2013
20 480700 ADRIANA MOREIRA DE AVELLAR CEZILIO OFICIAL DO MP ATIVO BELO HORIZONTE - COMARCA; EXTINTA - DIVISAO DE MATERIAL DE CONSUMO 2.772,23 0,00 0,00 0,00 924,08 0,00 3.696,31 306,60 136,51 0,00 443,11 3.253,20 822,00 27,27 31/01/2013
21 326000 ADRIANA PEREIRA CARNEIRO RESENDE OFICIAL DO MP ATIVO BELO HORIZONTE - COMARCA; BH-18PJ VIOLENCIA DOMESTICA 4.553,46 455,35 0,00 0,00 0,00 0,00 5.008,81 555,88 348,63 0,00 904,51 4.104,30 352,00 78,23 31/01/2013
22 502200 ADRIANA PETRUCCI DAVINA OFICIAL DO MP ATIVO UBERABA - COMARCA; UBERABA-PJ-14PJ 3.051,96 0,00 0,00 0,00 0,00 0,00 3.051,96 335,83 86,84 0,00 422,67 2.629,29 352,00 2,73 31/01/2013
23 201900 ADRIANA REIS PIMENTA OFICIAL DO MP ATIVO TEÓFILO OTONI - COMARCA; TEOFILO OTONI-PJ-03PJ 7.487,46 1.497,49 0,00 0,00 0,00 0,00 8.984,95 988,34 1.408,49 0,00 2.396,83 6.588,12 3.567,68 294,77 31/01/2013
24 278700 ADRIANA RODRIGUES PINTO COELHO AMARAL ANALISTA DO MP ATIVO BELO HORIZONTE - COMARCA; EXTINTA-MEIO AMB PATRIM HIST CULTURAL-15PJGAB 8.788,36 878,84 0,00 0,00 0,00 0,00 9.667,20 1.063,39 1.480,88 0,00 2.544,27 7.122,93 352,00 0,00 31/01/2013
25 468000 ADRIANA SANTOS DE SANTANA MOREIRA ANALISTA DO MP ATIVO ARAÇUAÍ - COMARCA; ARACUAI-PJ-01PJ 4.701,73 940,35 0,00 0,00 0,00 0,00 5.642,08 636,59 578,54 0,00 1.215,13 4.426,95 3.802,68 439,85 31/01/2013
26 194700 ADRIANA TSUKIDE OFICIAL DO MP ATIVO UBERABA - COMARCA; COORD REG BACIAS PARANAIBA BAIXO RIO GRANDE 7.487,46 1.497,49 0,00 0,00 0,00 0,00 8.984,95 988,34 1.408,49 0,00 2.396,83 6.588,12 352,00 0,00 31/01/2013
27 206400 ADRIANE MENDES DE SOUZA ANALISTA DO MP ATIVO BELO HORIZONTE - COMARCA; BH-23PJ CIVEL-FISC AC POL PUB II 10.315,17 5.157,58 0,00 0,00 5.157,58 0,00 20.630,33 1.702,00 4.320,13 0,00 6.022,13 14.608,20 352,00 0,00 31/01/2013
28 465500 ADRIANO CASSIANO MATOS ANALISTA DO MP ATIVO ARAXÁ - COMARCA; ARAXA-PJ-03PJ 4.701,73 0,00 0,00 0,00 0,00 0,00 4.701,73 522,23 364,52 0,00 886,75 3.814,98 352,00 80,24 31/01/2013
29 500500 ADRIANO DE ALMEIDA SILVA OFICIAL DO MP ATIVO UBERABA - COMARCA; UBERABA-PJ-12PJ 2.772,23 0,00 0,00 0,00 0,00 0,00 2.772,23 305,03 56,74 0,00 361,77 2.410,46 3.124,23 71,38 31/01/2013
30 187200 ADRIANO DE FREITAS MARON OFICIAL DO MP ATIVO PONTE NOVA - COMARCA; PONTE NOVA-PJ-03PJ 5.698,20 3.988,74 0,00 0,00 3.228,98 0,00 12.915,92 1.303,03 2.996,63 0,00 4.299,66 8.616,26 352,00 2.158,78 31/01/2013
31 477900 ADRIANO FERREIRA DE ALMEIDA OFICIAL DO MP ATIVO MONTES CLAROS - COMARCA; MONTES CLAROS-PJ-01PJ 3.051,96 0,00 0,00 0,00 0,00 0,00 3.051,96 405,00 72,59 0,00 477,59 2.574,37 352,00 641,72 31/01/2013
32 416500 ADRIANO PELUSIO MELGACO JUNIOR OFICIAL DO MP ATIVO BELO HORIZONTE - COMARCA; BH-10PJ EXECUÇÃO PENAL-SECRETARIA 3.469,26 208,16 0,00 0,00 1.225,81 0,00 4.903,23 582,79 789,30 0,00 1.372,09 3.531,14 528,00 1.641,59 31/01/2013
33 269101 ADRIANO PEREIRA SILVA ANALISTA DO MP ATIVO UBERABA - COMARCA; UBERABA-PJ-02PJ 5.698,20 0,00 0,00 0,00 0,00 0,00 5.698,20 626,80 604,06 0,00 1.230,86 4.467,34 3.802,68 294,77 31/01/2013
34 414200 ADRIANO RODRIGUES FERNANDES ANALISTA DO MP ATIVO CARANDAÍ - COMARCA; CARANDAI-PJ-UNPJ 5.344,58 320,67 0,00 0,00 1.888,42 0,00 7.553,67 703,30 1.151,71 0,00 1.855,01 5.698,66 587,00 728,40 31/01/2013
35 514300 ADRIENE DAMASCENO BRAGA ANALISTA DO MP ATIVO ALFENAS - COMARCA; ALFENAS-PJ-03PJ 4.701,73 0,00 0,00 0,00 0,00 0,00 4.701,73 558,00 396,46 0,00 954,46 3.747,27 1.617,09 466,40 31/01/2013
36 254600 ADRIENE DOMINGUES COSTA ANALISTA DO MP ATIVO BELO HORIZONTE - COMARCA; PROC. JUSTICA DIR. DIFUSOS E COLETIVOS-SEC 7.731,26 1.546,25 0,00 0,00 0,00 0,00 9.277,51 1.020,53 1.480,09 0,00 2.500,62 6.776,89 0,00 0,00 31/01/2013
37 252001 ADRIENE GOMES BARRETO ANALISTA DO MP ATIVO BELO HORIZONTE - COMARCA; BH-19PJ SAUDE-ASS TECNICA 6.379,14 1.913,74 0,00 0,00 2.764,29 0,00 11.057,17 912,22 1.999,28 0,00 2.911,50 8.145,67 352,00 0,00 31/01/2013
38 118100 AGENOR ALCIR RODRIGUES DA SILVA OFICIAL DO MP ATIVO SÃO JOÃO NEPOMUCENO - COMARCA; SAO JOAO NEPOMUCENO-PJ-01PJ 9.674,93 6.772,45 0,00 0,00 0,00 0,00 16.447,38 1.809,21 3.234,92 0,00 5.044,13 11.403,25 3.567,68 294,77 31/01/2013
39 302500 AGENOR JOSE DA SILVA JUNIOR ANALISTA DO MP ATIVO JUIZ DE FORA - COMARCA; JUIZ DE FORA-PJ-07PJ 7.982,93 798,29 0,00 0,00 0,00 0,00 8.781,22 965,93 1.264,04 0,00 2.229,97 6.551,25 3.567,68 294,77 31/01/2013
40 357500 AILSON WAGNER DE ALENCAR SILVA OFICIAL DO MP ATIVO BELO HORIZONTE - COMARCA; DIRETORIA DO COLEGIO E DA CAMARA DE PJ 4.854,78 970,96 0,00 0,00 0,00 0,00 5.825,74 739,71 760,70 0,00 1.500,41 4.325,33 4.037,68 1.193,69 31/01/2013
41 366400 AILTON ALEXSSANDRO ALVES OFICIAL DO MP ATIVO PARÁ DE MINAS - COMARCA; PARA DE MINAS-PJ-05PJ 4.270,85 854,17 0,00 0,00 0,00 0,00 5.125,02 568,68 463,77 0,00 1.032,45 4.092,57 352,00 78,49 31/01/2013
42 318900 AILTON DE CASTRO RIBEIRO JUNIOR OFICIAL DO MP ATIVO POUSO ALEGRE - COMARCA; POUSO ALEGRE-PJ-03PJ 4.409,86 440,99 0,00 0,00 1.616,95 0,00 6.467,80 667,85 808,24 0,00 1.476,09 4.991,71 352,00 1.257,59 31/01/2013
43 464400 ALAN MONTEIRO GASPAR ANALISTA DO MP ATIVO SETE LAGOAS - COMARCA; SETE LAGOAS-PJ-03PJ 4.701,73 0,00 0,00 0,00 0,00 0,00 4.701,73 522,38 364,52 0,00 886,90 3.814,83 1.609,90 176,94 31/01/2013
44 492000 ALANA DE CASTRO FREITAS OFICIAL DO MP ATIVO BOM SUCESSO - COMARCA; BOM SUCESSO-PJ-UNPJ 2.772,23 0,00 0,00 0,00 0,00 0,00 2.772,23 305,40 56,74 0,00 362,14 2.410,09 352,00 8,31 31/01/2013
45 306700 ALANA MARCIA DE OLIVEIRA OFICIAL DO MP ATIVO BELO HORIZONTE - COMARCA; DIRETORIA DE ADMINISTRACAO FINANCEIRA 5.012,79 501,28 0,00 0,00 0,00 0,00 5.514,07 611,82 417,11 0,00 1.028,93 4.485,14 3.567,68 378,57 31/01/2013
46 324500 ALANMAR COUTINHO COSTA OFICIAL DO MP ATIVO LEOPOLDINA - COMARCA; LEOPOLDINA-PJ-02PJ 4.005,77 400,58 0,00 0,00 0,00 0,00 4.406,35 489,62 122,80 0,00 612,42 3.793,93 587,00 78,26 31/01/2013
47 508200 ALBERTO DA SILVA VIEIRA ASSESSOR ATIVO BELO HORIZONTE - COMARCA; SEC ESPECIAL DE PLANEJAMENTO ESTRATEGICO 0,00 0,00 8.242,82 0,00 0,00 0,00 8.242,82 457,49 1.350,39 0,00 1.807,88 6.434,94 352,00 49,42 31/01/2013
48 407300 ALBERTO LUIZ SOARES DE OLIVEIRA ANALISTA DO MP ATIVO BELO HORIZONTE - COMARCA; SUPERINTENDÊNCIA DE ENGENHARIA E ARQUITETURA 5.883,73 353,02 0,00 0,00 0,00 0,00 6.236,75 686,04 735,87 0,00 1.421,91 4.814,84 352,00 0,00 31/01/2013
49 118200 ALBERTO PEREIRA DA COSTA OFICIAL DO MP ATIVO DORES DO INDAIÁ - COMARCA; DORES DO INDAIA-PJ-UNPJ 7.982,93 5.588,05 0,00 0,00 0,00 0,00 13.570,98 1.492,81 2.483,63 0,00 3.976,44 9.594,54 3.567,68 294,77 31/01/2013
50 282400 ALCILENE MARISE DE ARAUJO ANALISTA DO MP ATIVO BELO HORIZONTE - COMARCA; BH-23PJ INF-FISC MED SOC FEC 8.788,36 878,84 0,00 0,00 0,00 0,00 9.667,20 1.063,39 1.480,88 0,00 2.544,27 7.122,93 352,00 0,00 31/01/2013
51 112600 ALCIONE DA MOTA JARDIM OFICIAL DO MP ATIVO BELO HORIZONTE - COMARCA; BELO HORIZONTE- SECRETARIA DAS PROMOTORIAS 6.586,88 2.634,75 0,00 0,00 0,00 0,00 9.221,63 1.014,38 1.419,12 0,00 2.433,50 6.788,13 587,00 0,00 31/01/2013
52 396400 ALCIONE DE FREITAS E SILVA ANALISTA DO MP ATIVO BELO HORIZONTE - COMARCA; DIRET DE PESSOAL DO MINISTERIO PUBLICO - DPMP 6.379,14 1.275,83 0,00 0,00 0,00 0,00 7.654,97 842,05 1.082,97 0,00 1.925,02 5.729,95 352,00 0,00 31/01/2013
53 161600 ALCIONE NERY SOUZA ASSESSOR ATIVO BELO HORIZONTE - COMARCA; BH-15PJ M AMB PAT HIST CULT 0,00 1.765,12 5.883,73 0,00 0,00 0,00 7.648,85 457,49 1.187,04 0,00 1.644,53 6.004,32 352,00 0,00 31/01/2013
54 376000 ALDA GOMES LANA OFICIAL DO MP ATIVO BELO HORIZONTE - COMARCA; BH-18PJ VIOLENCIA DOMESTICA 4.553,46 273,21 0,00 0,00 0,00 0,00 4.826,67 534,91 350,85 0,00 885,76 3.940,91 352,00 63,63 31/01/2013
55 148000 ALDA MARTINS SIMOES OFICIAL DO MP ATIVO BELO HORIZONTE - COMARCA; BH-23PJ CIVEL- FISC ENT AB POL 8.788,36 2.636,51 0,00 0,00 0,00 0,00 11.424,87 1.256,74 2.005,66 0,00 3.262,40 8.162,47 352,00 0,00 31/01/2013
56 318400 ALDO CREPALDI JUNIOR OFICIAL DO MP ATIVO BELO HORIZONTE - COMARCA; EXTINTA - DIVISAO DE MATERIAL DE CONSUMO 4.553,46 455,35 0,00 0,00 0,00 0,00 5.008,81 550,97 388,03 0,00 939,00 4.069,81 587,00 0,00 31/01/2013
57 118400 ALECIO JOSE GUIMARAES DE OLIVEIRA ANALISTA DO MP ATIVO BOM SUCESSO - COMARCA; BOM SUCESSO-PJ-UNPJ 12.540,10 10.032,08 0,00 0,00 7.524,06 0,00 30.096,24 2.482,94 6.661,20 0,00 9.144,14 20.952,10 403,20 0,00 31/01/2013
58 197900 ALESSA DE SOUSA E SILVA OFICIAL DO MP ATIVO OLIVEIRA - COMARCA; OLIVEIRA-PJ-02PJ 7.731,26 1.546,25 0,00 0,00 0,00 0,00 9.277,51 1.020,53 1.432,80 0,00 2.453,33 6.824,18 388,00 0,00 31/01/2013
59 428500 ALESSANDRA ALVES DINIZ OFICIAL DO MP ATIVO BELO HORIZONTE - COMARCA; BH-17PJ PATRIMONIO PUBLICO 3.151,29 945,39 0,00 0,00 1.365,56 0,00 5.462,24 454,58 587,61 0,00 1.042,19 4.420,05 352,00 63,18 31/01/2013
60 286801 ALESSANDRA BOTELHO JUNQUEIRA DE MENEZES ANALISTA DO MP ATIVO PASSOS - COMARCA; PASSOS-PJ-05PJ 6.379,14 1.275,83 0,00 0,00 0,00 0,00 7.654,97 1.003,35 1.235,68 0,00 2.239,03 5.415,94 352,00 1.664,57 31/01/2013
61 307000 ALESSANDRA CRISTINA SANTOS MENDES ANALISTA DO MP ATIVO OURO PRETO - COMARCA; OURO PRETO-PJ-02PJ 6.177,98 617,80 0,00 0,00 0,00 0,00 6.795,78 748,30 872,69 0,00 1.620,99 5.174,79 3.567,68 308,62 31/01/2013
62 264400 ALESSANDRA DE SOUZA SANTOS COORDENADOR/ANALISTA ATIVO BELO HORIZONTE - COMARCA; DIRETORIA DE PRODUCAO EDITORIAL 9.074,45 4.657,33 0,00 0,00 0,00 0,00 13.731,78 1.297,65 2.628,81 0,00 3.926,46 9.805,32 352,00 0,00 31/01/2013
63 441500 ALESSANDRA DRUMMOND DE FIGUEIREDO ROSSI ANALISTA DO MP ATIVO BELO HORIZONTE - COMARCA; DIVIS DE PROJETOS DE ENGENHARIA E ARQUITETURA 4.854,78 291,29 0,00 0,00 0,00 0,00 5.146,07 571,86 468,92 0,00 1.040,78 4.105,29 352,00 91,97 31/01/2013
64 524000 ALESSANDRA LUCIOLI DE BARROS GUERRA ANALISTA DO MP ATIVO BELO HORIZONTE - COMARCA; BH-12PJ JUIZO CRIMINAL 4.136,15 0,00 0,00 0,00 0,00 0,00 4.136,15 454,98 251,26 0,00 706,24 3.429,91 352,00 0,00 31/01/2013
65 479900 ALESSANDRA MARA ANDRADE DE FARIA OFICIAL DO MP ATIVO UBERABA - COMARCA; UBERABA-PJ-05PJ 3.051,96 0,00 0,00 0,00 1.017,32 0,00 4.069,28 337,87 263,05 0,00 600,92 3.468,36 822,00 35,00 31/01/2013
66 226700 ALESSANDRA MARA VASCONCELOS REZENDE OFICIAL DO MP ATIVO CONSELHEIRO LAFAIETE - COMARCA; CONSELHEIRO LAFAIETE-PJ-07PJ 4.409,86 881,97 0,00 0,00 1.763,94 0,00 7.055,77 588,39 989,68 0,00 1.578,07 5.477,70 352,00 99,78 31/01/2013
67 112100 ALESSANDRA MARCIA FERREIRA OFICIAL DO MP ATIVO BELO HORIZONTE - COMARCA; BELO HORIZONTE- SECRETARIA DAS PROMOTORIAS 6.801,32 2.720,53 0,00 0,00 3.173,95 0,00 12.695,80 1.047,40 2.365,44 0,00 3.412,84 9.282,96 352,00 0,00 31/01/2013
68 196500 ALESSANDRA MARIA RIBEIRO LUCIANO OFICIAL DO MP ATIVO RIO PARANAÍBA - COMARCA; RIO PARANAIBA-PJ-UNPJ 7.731,26 2.319,38 0,00 0,00 0,00 0,00 10.050,64 1.105,57 1.669,31 0,00 2.774,88 7.275,76 587,00 0,00 31/01/2013
69 91400 ALESSANDRA MENDES VASCONCELOS DE SOUZA OFICIAL DO MP ATIVO BELO HORIZONTE - COMARCA; BH-23PJ INF-FISC MED SOC AB 10.315,17 5.157,58 0,00 0,00 0,00 0,00 15.472,75 1.702,00 2.901,79 0,00 4.603,79 10.868,96 352,00 0,00 31/01/2013
70 384900 ALESSANDRA RODRIGUES ANALISTA DO MP ATIVO VISCONDE DO RIO BRANCO - COMARCA; VISCONDE DO RIO BRANCO-PJ-03PJ 6.379,14 382,75 0,00 0,00 0,00 0,00 6.761,89 743,81 769,81 0,00 1.513,62 5.248,27 3.567,68 294,77 31/01/2013
71 390000 ALESSANDRA SPADANO MASSARA VASCONCELOS OFICIAL DO MP ATIVO BETIM - COMARCA; BETIM-PJ-SECRETARIA 4.553,46 273,21 0,00 0,00 0,00 0,00 4.826,67 534,95 390,75 0,00 925,70 3.900,97 352,00 64,27 31/01/2013
72 426500 ALESSANDRO CAMPOS DE PAIVA ASSESSOR/ANALISTA ATIVO BELO HORIZONTE - COMARCA; DIR CRIACAO E MIDIAS 0,00 449,25 7.487,46 0,00 0,00 0,00 7.936,71 686,04 1.203,35 0,00 1.889,39 6.047,32 352,00 0,00 31/01/2013
73 420600 ALESSANDRO SILVA OFICIAL DO MP ATIVO VISCONDE DO RIO BRANCO - COMARCA; VISCONDE DO RIO BRANCO-PJ-02PJ 3.469,26 693,85 0,00 0,00 0,00 0,00 4.163,11 672,02 374,69 0,00 1.046,71 3.116,40 3.567,68 2.264,30 31/01/2013
74 375300 ALETHEIA PATRICIA ASSIS MORAIS MOREIRA OFICIAL DO MP ATIVO ITABIRA - COMARCA; ITABIRA-PJ-02PJ 4.553,46 273,21 0,00 0,00 1.608,89 0,00 6.435,56 534,63 833,19 0,00 1.367,82 5.067,74 352,00 59,29 31/01/2013
75 382300 ALEX CARVALHO LIMA ANALISTA DO MP ATIVO UBERLÂNDIA - COMARCA; UBERLANDIA-PJ-14PJ 5.344,58 320,67 0,00 0,00 0,00 0,00 5.665,25 623,18 484,12 0,00 1.107,30 4.557,95 352,00 0,00 31/01/2013
76 195201 ALEX DE CASTRO PEREIRA ANALISTA DO MP ATIVO UBERABA - COMARCA; UBERABA-PJ-09PJ 8.788,36 1.757,67 0,00 0,00 0,00 0,00 10.546,03 1.160,06 1.790,56 0,00 2.950,62 7.595,41 3.567,68 294,77 31/01/2013
77 358900 ALEX DE PAULA LANZA ASSESSOR ATIVO BELO HORIZONTE - COMARCA; ASSESSORIA DE COMUNICACAO INTEGRADA 0,00 0,00 5.883,73 0,00 0,00 0,00 5.883,73 457,49 701,64 0,00 1.159,13 4.724,60 352,00 0,00 31/01/2013
78 178400 ALEX RODRIGO SALDANHA GUIMARAES OFICIAL DO MP ATIVO BELO HORIZONTE - COMARCA; DIRETORIA DE SISTEMAS DE INFORMACAO 4.409,86 881,97 0,00 0,00 0,00 0,00 5.291,83 582,10 504,60 0,00 1.086,70 4.205,13 352,00 0,00 31/01/2013
79 289200 ALEX SANDRO PEREIRA DE MATOS OFICIAL DO MP ATIVO BELO HORIZONTE - COMARCA; EXTINTA - SECRETARIA ADMINISTRATIVA 4.409,86 440,99 0,00 0,00 0,00 0,00 4.850,85 538,41 396,67 0,00 935,08 3.915,77 352,00 76,83 31/01/2013
80 413500 ALEX VILELA OLIVEIRA ANALISTA DO MP ATIVO GOVERNADOR VALADARES - COMARCA; COORD REG PJ DEF EDU DIR CRIANCA ADOL RIODOCE 6.379,14 382,75 0,00 0,00 0,00 0,00 6.761,89 743,81 864,39 0,00 1.608,20 5.153,69 352,00 0,00 31/01/2013
81 264300 ALEXANDRA FATIMA SARAIVA SOARES ANALISTA DO MP ATIVO BELO HORIZONTE - COMARCA; CENTRAL DE APOIO TECN-SETOR DE MEIO AMBIENTE 9.074,45 907,45 0,00 0,00 0,00 0,00 9.981,90 1.098,01 1.652,49 0,00 2.750,50 7.231,40 352,00 0,00 31/01/2013
82 488000 ALEXANDRA LARA PAIS DE CARVALHO ANALISTA DO MP ATIVO SABINÓPOLIS - COMARCA; SABINOPOLIS-PJ-UNPJ 4.701,73 0,00 0,00 0,00 0,00 0,00 4.701,73 521,28 287,14 0,00 808,42 3.893,31 587,00 65,23 31/01/2013
83 256300 ALEXANDRA SANTOS GOMES OFICIAL DO MP ATIVO BELO HORIZONTE - COMARCA; EXTINTA - DIVISÃO DE COMPRAS 4.854,78 970,96 0,00 0,00 0,00 0,00 5.825,74 761,69 904,17 0,00 1.665,86 4.159,88 352,00 1.098,68 31/01/2013
84 403300 ALEXANDRE AUGUSTO RODRIGUES ANALISTA DO MP ATIVO ÁGUAS FORMOSAS - COMARCA; AGUAS FORMOSAS-PJ-UNPJ 5.883,73 353,02 0,00 0,00 0,00 0,00 6.236,75 686,04 735,87 0,00 1.421,91 4.814,84 352,00 0,00 31/01/2013
85 311700 ALEXANDRE BARCELOS RESENDE OFICIAL DO MP ATIVO BELO HORIZONTE - COMARCA; GAECO - SECRETARIA 3.636,66 387,94 0,00 0,00 0,00 0,00 4.024,60 473,10 222,92 0,00 696,02 3.328,58 352,00 59,26 31/01/2013
86 285600 ALEXANDRE CAMPOS DE OLIVEIRA OFICIAL DO MP ATIVO UBERABA - COMARCA; COORD REG BACIAS PARANAIBA BAIXO RIO GRANDE 5.518,54 551,85 0,00 0,00 0,00 0,00 6.070,39 667,74 600,57 0,00 1.268,31 4.802,08 587,00 0,00 31/01/2013
87 509200 ALEXANDRE CAPUANO DE REZENDE ANALISTA DO MP ATIVO BELO HORIZONTE - COMARCA; PROC. JUSTICA DE HABEAS CORPUS 5.176,02 0,00 0,00 0,00 0,00 0,00 5.176,02 569,46 476,25 0,00 1.045,71 4.130,31 352,00 2,52 31/01/2013
88 229400 ALEXANDRE CARLOS BOTREL DIRETOR/OFICIAL ATIVO BELO HORIZONTE - COMARCA; SUPERINTENDENCIA DOS ORGAOS COLEGIADOS 0,00 2.508,02 12.540,10 0,00 0,00 0,00 15.048,12 705,49 3.153,64 0,00 3.859,13 11.188,99 352,00 0,00 31/01/2013
89 411900 ALEXANDRE CARVALHO SANTOS RIBEIRO ANALISTA DO MP ATIVO PERDÕES - COMARCA; PERDOES-PJ-UNPJ 6.379,14 382,75 0,00 0,00 0,00 0,00 6.761,89 743,81 864,39 0,00 1.608,20 5.153,69 352,00 0,00 31/01/2013
90 201200 ALEXANDRE DE ALENCAR CORDEIRO OFICIAL DO MP ATIVO ÁGUAS FORMOSAS - COMARCA; AGUAS FORMOSAS-PJ-UNPJ 4.409,86 1.322,96 0,00 0,00 0,00 0,00 5.732,82 630,61 517,94 0,00 1.148,55 4.584,27 352,00 0,00 31/01/2013
91 288200 ALEXANDRE DE VASCONCELOS COSTA KER ANALISTA DO MP ATIVO BELO HORIZONTE - COMARCA; BH-03PJ EMPRESARIAL-SECRETARIA 7.982,93 798,29 0,00 0,00 0,00 0,00 8.781,22 965,93 1.311,33 0,00 2.277,26 6.503,96 3.567,68 294,77 31/01/2013
92 445000 ALEXANDRE DIOGENES OLIVEIRA ANALISTA DO MP ATIVO SALINAS - COMARCA; SALINAS-PJ-02PJ 5.883,73 353,02 0,00 0,00 0,00 0,00 6.236,75 686,04 735,87 0,00 1.421,91 4.814,84 352,00 0,00 31/01/2013
93 463400 ALEXANDRE LEAL WINKELSTROTER ANALISTA DO MP ATIVO TEÓFILO OTONI - COMARCA; TEOFILO OTONI-PJ-04PJ 4.701,73 0,00 0,00 0,00 0,00 0,00 4.701,73 522,19 364,52 0,00 886,71 3.815,02 352,00 79,55 31/01/2013
94 356900 ALEXANDRE MOISES MENDONCA E ARAUJO OFICIAL DO MP ATIVO UBERABA - COMARCA; UBERABA-PJ-13PJ 3.879,42 387,94 0,00 0,00 0,00 0,00 4.267,36 473,75 238,85 0,00 712,60 3.554,76 3.567,68 310,45 31/01/2013
95 469900 ALEXANDRE PEREIRA GUEDES ANALISTA DO MP ATIVO CATAGUASES - COMARCA; CATAGUASES-PJ-03PJ 5.698,20 0,00 0,00 0,00 0,00 0,00 5.698,20 790,31 731,86 0,00 1.522,17 4.176,03 2.631,28 1.726,81 31/01/2013
96 208700 ALEXANDRE RESENDE FRAGA ANALISTA DO MP ATIVO BELO HORIZONTE - COMARCA; BH-19PJ SAUDE 11.161,27 2.232,25 0,00 0,00 0,00 0,00 13.393,52 1.808,35 2.781,76 0,00 4.590,11 8.803,41 822,00 3.384,40 31/01/2013
97 216401 ALEXANDRE RIBEIRO DE LIMA MAIORINO ANALISTA DO MP ATIVO UBERABA - COMARCA; UBERABA-PJ-03PJ 7.982,93 1.596,59 0,00 0,00 0,00 0,00 9.579,52 1.053,75 1.506,72 0,00 2.560,47 7.019,05 587,00 0,00 31/01/2013
98 475100 ALEXANDRE TEOTONIO COSTA ANALISTA DO MP ATIVO ARAGUARI - COMARCA; ARAGUARI-PJ-01PJ 5.176,02 0,00 0,00 0,00 0,00 0,00 5.176,02 710,22 635,81 0,00 1.346,03 3.829,99 822,00 1.438,68 31/01/2013
99 339000 ALEXANDRE VITOR CARDOSO OFICIAL DO MP ATIVO BELO HORIZONTE - COMARCA; BH-17PJ PATRIMONIO PUBLICO 4.005,77 400,58 0,00 0,00 0,00 0,00 4.406,35 489,47 190,26 0,00 679,73 3.726,62 3.802,68 236,75 31/01/2013
100 513300 ALFSON MIRANDA BRAGA ANALISTA DO MP ATIVO BELO HORIZONTE - COMARCA; BH-12PJ JUIZO CRIMINAL-GAB 092PJ 4.701,73 0,00 0,00 0,00 0,00 0,00 4.701,73 517,24 364,52 0,00 881,76 3.819,97 352,00 1,33 31/01/2013
101 471000 ALICE TITONELI MOREIRA ANALISTA DO MP ATIVO MIRADOURO - COMARCA; MIRADOURO-PJ-UNPJ 5.698,20 0,00 0,00 0,00 1.899,40 0,00 7.597,60 755,74 1.318,69 0,00 2.074,43 5.523,17 587,00 1.172,16 31/01/2013
102 373000 ALINE BOTELHO RESENDE OFICIAL DO MP ATIVO PASSA QUATRO - COMARCA; PASSA QUATRO-PJ-SECRETARIA 3.757,11 225,43 0,00 0,00 0,00 0,00 3.982,54 441,45 220,50 0,00 661,95 3.320,59 352,00 54,13 31/01/2013
103 407700 ALINE CRISTINA RODRIGUES PEREIRA ANALISTA DO MP ATIVO BELO HORIZONTE - COMARCA; DIVIS DE PROJETOS DE ENGENHARIA E ARQUITETURA 5.344,58 320,67 0,00 0,00 0,00 0,00 5.665,25 623,18 595,99 0,00 1.219,17 4.446,08 587,00 0,00 31/01/2013
104 193100 ALINE CRISTINA SENA OLIVEIRA OFICIAL DO MP ATIVO UBERLÂNDIA - COMARCA; UBERLANDIA-PJ-03PJ 7.487,46 1.497,49 0,00 0,00 0,00 0,00 8.984,95 988,34 1.361,20 0,00 2.349,54 6.635,41 352,00 0,00 31/01/2013
105 505500 ALINE DA CUNHA MARREIROS OLIVEIRA ANALISTA DO MP ATIVO CARANGOLA - COMARCA; CARANGOLA-PJ-SECRETARIA 5.176,02 0,00 0,00 0,00 0,00 0,00 5.176,02 570,04 476,25 0,00 1.046,29 4.129,73 587,00 11,72 31/01/2013
106 433500 ALINE DE MELO QUEIROZ OFICIAL DO MP ATIVO BELO HORIZONTE - COMARCA; PROCON-MG-SECRETARIA DE FISCALIZACOES 3.757,11 225,43 0,00 0,00 0,00 0,00 3.982,54 441,29 220,50 0,00 661,79 3.320,75 352,00 51,57 31/01/2013
107 474800 ALINE DINIZ FERREIRA ANALISTA DO MP ATIVO OURO PRETO - COMARCA; OURO PRETO-PJ-02PJ 5.698,20 0,00 0,00 0,00 1.899,40 0,00 7.597,60 789,97 1.254,19 0,00 2.044,16 5.553,44 352,00 1.525,09 31/01/2013
108 330000 ALINE DIORIO MAYRINK OFICIAL DO MP ATIVO SETE LAGOAS - COMARCA; SETE LAGOAS-PJ-SECRETARIA 4.553,46 455,35 0,00 0,00 0,00 0,00 5.008,81 550,97 435,33 0,00 986,30 4.022,51 352,00 0,00 31/01/2013
109 499000 ALINE FERREIRA LOPES NEIVA ANALISTA DO MP ATIVO TEÓFILO OTONI - COMARCA; COORD. DE DEF. DO PAT. PUBLICO-JEQUIT./MUCURI 5.176,02 0,00 0,00 0,00 0,00 0,00 5.176,02 571,04 476,25 0,00 1.047,29 4.128,73 352,00 27,36 31/01/2013
110 405300 ALINE LAIA CARDOZO ANALISTA DO MP ATIVO BELO HORIZONTE - COMARCA; EXTINTA - DIRETORIA DE CONTRATOS E CONVÊNIOS 6.379,14 382,75 0,00 0,00 0,00 0,00 6.761,89 762,93 906,95 0,00 1.669,88 5.092,01 352,00 173,88 31/01/2013
111 278200 ALINE MARCIA FARIA BARBOSA OFICIAL DO MP ATIVO BARBACENA - COMARCA; BARBACENA-PJ-SECRETARIA 4.409,86 440,99 0,00 0,00 0,00 0,00 4.850,85 538,69 278,30 0,00 816,99 4.033,86 822,00 81,07 31/01/2013
112 496600 ALINE MENDES DE GODOY ANALISTA DO MP ATIVO BELO HORIZONTE - COMARCA; ASSESS TECNICO-JUR JUNTO AS PROC. DE JUST 5.176,02 0,00 0,00 0,00 1.725,34 0,00 6.901,36 571,58 950,72 0,00 1.522,30 5.379,06 352,00 35,91 31/01/2013
113 389000 ALINE NERI NOBRE ANALISTA DO MP ATIVO MONTES CLAROS - COMARCA; COORD REG PJ DEF EDUC DIR CRIANCA ADOL NORTE 6.379,14 1.275,83 0,00 0,00 2.551,66 0,00 10.206,63 986,39 2.105,84 0,00 3.092,23 7.114,40 352,00 1.312,20 31/01/2013
114 294600 ALINE PATRICIA SILVA VIEIRA OFICIAL DO MP ATIVO UBERLÂNDIA - COMARCA; UBERLANDIA-PJ-03PJ 5.518,54 551,85 0,00 0,00 0,00 0,00 6.070,39 667,74 647,86 0,00 1.315,60 4.754,79 587,00 0,00 31/01/2013
115 420000 ALINE RODRIGUES CAMOROPIN ANALISTA DO MP ATIVO SABARÁ - COMARCA; SABARA-PJ-02PJ 6.379,14 382,75 0,00 0,00 2.253,96 0,00 9.015,85 899,77 1.612,76 0,00 2.512,53 6.503,32 352,00 1.417,86 31/01/2013
116 408300 ALINE SILVA ARAUJO DE PAULA ANALISTA DO MP ATIVO SÃO SEBASTIÃO DO PARAÍSO - COMARCA; SAO SEBASTIAO DO PARAISO-PJ-02PJ 6.379,14 382,75 0,00 0,00 0,00 0,00 6.761,89 743,81 864,39 0,00 1.608,20 5.153,69 352,00 0,00 31/01/2013
117 425400 ALINE TRINDADE DE FREITAS CAMPOS OFICIAL DO MP ATIVO BETIM - COMARCA; BETIM-PJ-11PJ 3.757,11 225,43 0,00 0,00 0,00 0,00 3.982,54 441,45 220,50 0,00 661,95 3.320,59 352,00 54,02 31/01/2013
118 517200 ALISSOM PEREIRA DA SILVA ANALISTA DO MP ATIVO BORDA DA MATA - COMARCA; BORDA DA MATA-PJ-UNPJ 4.553,46 0,00 0,00 0,00 0,00 0,00 4.553,46 500,88 334,83 0,00 835,71 3.717,75 352,00 0,00 31/01/2013
119 442400 ALISSON LABRE ANALISTA DO MP ATIVO VARGINHA - COMARCA; VARGINHA-PJ-02PJ 5.883,73 353,02 0,00 0,00 0,00 0,00 6.236,75 691,72 735,87 0,00 1.427,59 4.809,16 3.567,68 384,97 31/01/2013
120 349000 ALLEC RODRIGUES VIEIRA ASSESSOR/OFICIAL ATIVO BELO HORIZONTE - COMARCA; PROCURADOR-GERAL DE JUSTICA- GABINETE 0,00 824,28 8.242,82 0,00 0,00 0,00 9.067,10 997,38 1.428,59 0,00 2.425,97 6.641,13 352,00 0,00 31/01/2013
121 297300 ALLYSON SALIBA MONTEIRO LAIZO ANALISTA DO MP ATIVO CONSELHEIRO LAFAIETE - COMARCA; CONSELHEIRO LAFAIETE-PJ-03PJ 7.982,93 798,29 0,00 0,00 0,00 0,00 8.781,22 965,93 1.358,62 0,00 2.324,55 6.456,67 3.567,68 294,77 31/01/2013
122 303700 ALMIR LOPES LOURES ANALISTA DO MP ATIVO BELO HORIZONTE - COMARCA; CENTRAL DE APOIO TECN-SETOR DE MEIO AMBIENTE 8.788,36 878,84 0,00 0,00 0,00 0,00 9.667,20 1.063,39 1.480,88 0,00 2.544,27 7.122,93 3.567,68 294,77 31/01/2013
123 515900 ALTAIR NEVES JUNIOR OFICIAL DO MP ATIVO BELO HORIZONTE - COMARCA; BH-03PJ EMPRESARIAL-SECRETARIA 3.051,96 0,00 0,00 0,00 0,00 0,00 3.051,96 361,85 99,69 0,00 461,54 2.590,42 352,00 270,04 31/01/2013
124 233300 ALVARINDO BATISTA ANALISTA DO MP ATIVO BELO HORIZONTE - COMARCA; ASSESSORIA DE COMUNICACAO INTEGRADA 10.315,17 2.063,03 0,00 0,00 0,00 0,00 12.378,20 1.361,60 2.191,69 0,00 3.553,29 8.824,91 352,00 0,00 31/01/2013
125 274100 ALYSSON CARVALHO VIDAL DE LACERDA OFICIAL DO MP ATIVO MANHUAÇU - COMARCA; MANHUACU-PJ-01PJ 5.698,20 569,82 0,00 0,00 2.089,34 0,00 8.357,36 695,22 1.318,09 0,00 2.013,31 6.344,05 352,00 91,12 31/01/2013
126 521700 AMANDA CRISTINA AGUIAR MACHADO OFICIAL DO MP ATIVO BARBACENA - COMARCA; BARBACENA-PJ-03PJ 2.684,83 0,00 0,00 0,00 0,00 0,00 2.684,83 295,33 50,90 0,00 346,23 2.338,60 352,00 0,00 31/01/2013
127 520800 AMANDA DE SOUZA MACHADO ANALISTA DO MP ATIVO BAEPENDI - COMARCA; BAEPENDI-PJ-UNPJ 4.553,46 0,00 0,00 0,00 1.517,82 0,00 6.071,28 500,88 741,28 0,00 1.242,16 4.829,12 587,00 0,00 31/01/2013
128 501800 AMANDA LIMA TEIXEIRA COSTA OFICIAL DO MP ATIVO CATAGUASES - COMARCA; CATAGUASES-PJ-04PJ 3.051,96 0,00 0,00 0,00 0,00 0,00 3.051,96 335,82 86,84 0,00 422,66 2.629,30 587,00 2,56 31/01/2013
129 434400 AMARILIS ASSIS SIMAO CURCIO ANALISTA DO MP ATIVO BELO HORIZONTE - COMARCA; ASSESS TECNICO-JUR JUNTO AS PROC. DE JUST 5.344,58 320,67 0,00 0,00 0,00 0,00 5.665,25 628,47 595,99 0,00 1.224,46 4.440,79 1.057,00 84,12 31/01/2013
130 273700 AMBROLINA CARNEIRO DE VASCONCELOS OFICIAL DO MP ATIVO FRUTAL - COMARCA; FRUTAL-PJ-03PJ 5.344,58 2.137,83 0,00 0,00 0,00 0,00 7.482,41 914,79 1.197,52 0,00 2.112,31 5.370,10 3.567,68 1.128,59 31/01/2013
131 58000 AMELIA GUARIZE DE CASTRO OFICIAL DO MP ATIVO JUIZ DE FORA - COMARCA; JUIZ DE FORA-PJ-SECRETARIA 4.854,78 4.369,30 0,00 0,00 3.074,69 1.014,65 13.313,42 1.014,65 2.591,58 0,00 3.606,23 9.707,19 352,00 0,00 31/01/2013
132 324301 AMERICA SUELI FERREIRA DA SILVA ANALISTA DO MP ATIVO MONTE CARMELO - COMARCA; MONTE CARMELO-PJ-02PJ 5.698,20 0,00 0,00 0,00 0,00 0,00 5.698,20 626,80 604,06 0,00 1.230,86 4.467,34 352,00 0,00 31/01/2013
133 273300 AMUJACY DE BRITO ASSIZ OFICIAL DO MP ATIVO BELO HORIZONTE - COMARCA; BH-12PJ JUIZO CRIMINAL-SECRETARIA 4.553,46 455,35 0,00 0,00 0,00 0,00 5.008,81 654,86 619,19 0,00 1.274,05 3.734,76 587,00 944,46 31/01/2013
134 482200 ANA ALICE LOPES ACHTSCHIN ANALISTA DO MP ATIVO BELO HORIZONTE - COMARCA; PROC JUST RECURSOS ESP E EXTRAORD CRIMINAIS 4.701,73 0,00 0,00 0,00 0,00 0,00 4.701,73 522,64 364,52 0,00 887,16 3.814,57 352,00 86,62 31/01/2013
135 490400 ANA AMELIA PAULINO GARCIA OFICIAL DO MP ATIVO GRAO MOGOL - COMARCA; GRAO MOGOL-PJ-UNPJ 3.359,85 0,00 0,00 0,00 0,00 0,00 3.359,85 370,57 127,94 0,00 498,51 2.861,34 352,00 16,82 31/01/2013
136 279100 ANA CAROLINA ARAUJO PEREIRA ANALISTA DO MP ATIVO BELO HORIZONTE - COMARCA; DIVIS DE PROJETOS DE ENGENHARIA E ARQUITETURA 7.731,26 773,13 0,00 0,00 0,00 0,00 8.504,39 935,48 1.290,87 0,00 2.226,35 6.278,04 352,00 0,00 31/01/2013
137 359400 ANA CAROLINA DE ABREU FARIA ASSESSOR ATIVO BELO HORIZONTE - COMARCA; SUPERINTENDÊNCIA DE ENGENHARIA E ARQUITETURA 0,00 0,00 3.698,79 0,00 0,00 0,00 3.698,79 457,49 165,60 0,00 623,09 3.075,70 2.571,27 110,96 31/01/2013
138 408500 ANA CAROLINA DE CASTRO CARVALHO ANALISTA DO MP ATIVO BARBACENA - COMARCA; BARBACENA-PJ-SECRETARIA 6.379,14 382,75 0,00 0,00 2.253,96 0,00 9.015,85 743,81 1.484,23 0,00 2.228,04 6.787,81 3.567,68 294,77 31/01/2013
139 420200 ANA CAROLINA FERNANDES SILVA ANALISTA DO MP ATIVO BELO HORIZONTE - COMARCA; PROC. JUSTICA DE HABEAS CORPUS 5.883,73 353,02 0,00 0,00 0,00 0,00 6.236,75 859,76 875,74 0,00 1.735,50 4.501,25 352,00 1.620,29 31/01/2013
140 522100 ANA CAROLINA FERNANDINO VIDAL PEREIRA SANTOS OFICIAL DO MP ATIVO BELO HORIZONTE - COMARCA; EXTINTA - SECRETARIA ADMINISTRATIVA 2.684,83 0,00 0,00 0,00 0,00 0,00 2.684,83 295,33 50,90 0,00 346,23 2.338,60 587,00 0,00 31/01/2013
141 502400 ANA CAROLINA GONCALVES FERNANDES ANALISTA DO MP ATIVO IPATINGA - COMARCA; IPATINGA-PJ-SECRETARIA 5.176,02 0,00 0,00 0,00 0,00 0,00 5.176,02 571,30 476,25 0,00 1.047,55 4.128,47 352,00 31,46 31/01/2013
142 431900 ANA CAROLINA MOTTA GUATIMOSIM ANALISTA DO MP ATIVO BELO HORIZONTE - COMARCA; PROC. JUSTICA DE HABEAS CORPUS 5.883,73 353,02 0,00 0,00 0,00 0,00 6.236,75 686,04 735,87 0,00 1.421,91 4.814,84 352,00 0,00 31/01/2013
143 322500 ANA CAROLINA TOSTES DIB OFICIAL DO MP ATIVO BELO HORIZONTE - COMARCA; GAECO - SECRETARIA 4.005,77 400,58 0,00 0,00 1.468,78 0,00 5.875,13 489,62 691,79 0,00 1.181,41 4.693,72 352,00 78,32 31/01/2013
144 490600 ANA CAROLINA XAVIER GODOY ANALISTA DO MP ATIVO BELO HORIZONTE - COMARCA; BH-18PJ VIOLENCIA DOMESTICA 5.176,02 0,00 0,00 0,00 0,00 0,00 5.176,02 572,34 476,25 0,00 1.048,59 4.127,43 352,00 47,92 31/01/2013
145 324800 ANA CECILIA MENDES DA SILVA OFICIAL DO MP ATIVO OURO FINO - COMARCA; OURO FINO-PJ-01PJ 5.344,58 1.068,92 0,00 0,00 0,00 0,00 6.413,50 705,49 779,12 0,00 1.484,61 4.928,89 587,00 0,00 31/01/2013
146 219400 ANA CELIA DE ALMEIDA SOARES COORDENADOR/OFICIAL ATIVO BELO HORIZONTE - COMARCA; DIVISAO DE DOCUMENTACAO JURIDICA 0,00 1.702,24 8.511,21 0,00 0,00 0,00 10.213,45 801,94 1.797,59 0,00 2.599,53 7.613,92 3.567,68 294,77 31/01/2013
147 441300 ANA CLAUDIA ALKIMIM MIRANDA BOMTEMPO ANALISTA DO MP ATIVO MONTES CLAROS - COMARCA; MONTES CLAROS-PJ-11PJ 5.883,73 353,02 0,00 0,00 0,00 0,00 6.236,75 686,04 688,57 0,00 1.374,61 4.862,14 1.057,00 0,00 31/01/2013
148 461200 ANA CRISTINA ALVES ANALISTA DO MP ATIVO SANTA LUZIA - COMARCA; SANTA LUZIA-PJ-03PJ 4.701,73 0,00 0,00 0,00 0,00 0,00 4.701,73 522,74 364,52 0,00 887,26 3.814,47 587,00 88,19 31/01/2013
149 379300 ANA CRISTINA ALVES FLAVIO ANALISTA DO MP ATIVO SÃO GOTARDO - COMARCA; SAO GOTARDO-PJ-01PJ 6.379,14 382,75 0,00 0,00 0,00 0,00 6.761,89 743,81 817,10 0,00 1.560,91 5.200,98 352,00 0,00 31/01/2013
150 514100 ANA CRISTINA ARAUJO ASSUNCAO ANALISTA DO MP ATIVO BELO HORIZONTE - COMARCA; BH-14PJ DEFESA CONSUMIDOR-SECRETARIA 4.701,73 0,00 0,00 0,00 0,00 0,00 4.701,73 566,17 396,46 0,00 962,63 3.739,10 352,00 495,43 31/01/2013
151 113400 ANA CRISTINA BRAGA ALBUQUERQUE ASSESSOR/ANALISTA ATIVO BELO HORIZONTE - COMARCA; ASSESS ESP ADM E FINANCEIRA DO PGJ ADJ ADM 21.668,41 12.580,15 0,00 0,00 0,00 0,00 34.248,56 2.652,94 5.112,21 10.130,94 17.896,09 16.352,47 3.567,68 294,77 31/01/2013
152 233800 ANA CRISTINA BRAGA SOARES RIOS OFICIAL DO MP ATIVO CONTAGEM - COMARCA; CONTAGEM-PJ-SECRETARIA 5.176,02 1.035,20 0,00 0,00 2.070,41 0,00 8.281,63 683,23 1.298,98 0,00 1.982,21 6.299,42 352,00 0,00 31/01/2013
153 186400 ANA CRISTINA DE AZEVEDO LOPES OFICIAL DO MP ATIVO UBÁ - COMARCA; UBA-PJ-01PJ 7.487,46 1.497,49 0,00 0,00 0,00 0,00 8.984,95 988,34 1.313,90 0,00 2.302,24 6.682,71 3.567,68 294,77 31/01/2013
154 465100 ANA CRISTINA DE OLIVEIRA GUIMARAES ANALISTA DO MP ATIVO BRASÓPOLIS - COMARCA; BRASOPOLIS-PJ-UNPJ 5.176,02 0,00 0,00 0,00 0,00 0,00 5.176,02 574,56 476,25 0,00 1.050,81 4.125,21 352,00 82,67 31/01/2013
155 500600 ANA CRISTINA LATADO SUDARIO ANALISTA DO MP ATIVO UBERLÂNDIA - COMARCA; UBERLANDIA-PJ-07PJ 4.701,73 0,00 0,00 0,00 0,00 0,00 4.701,73 518,67 364,52 0,00 883,19 3.818,54 352,00 24,27 31/01/2013
156 331400 ANA CRISTINA RIBEIRO ALVES OFICIAL DO MP ATIVO BAMBUÍ - COMARCA; BAMBUI-PJ-SECRETARIA 4.701,73 470,17 0,00 0,00 0,00 0,00 5.171,90 568,91 475,24 0,00 1.044,15 4.127,75 352,00 0,00 31/01/2013
157 249300 ANA ELOINA MARTINS DO PINHO OFICIAL DO MP ATIVO BETIM - COMARCA; BETIM-PJ-06PJ 6.075,32 1.822,60 0,00 0,00 2.632,64 0,00 10.530,56 868,77 1.819,12 0,00 2.687,89 7.842,67 352,00 0,00 31/01/2013
158 257400 ANA FLAVIA CAMBRAIA ANALISTA DO MP ATIVO BELO HORIZONTE - COMARCA; BH-19PJ SAUDE-ASS TECNICA 9.074,45 1.814,89 0,00 0,00 0,00 0,00 10.889,34 1.197,83 1.827,29 0,00 3.025,12 7.864,22 352,00 0,00 31/01/2013
159 248201 ANA FLAVIA DE MORAIS SOUZA ANALISTA DO MP ATIVO DIVINÓPOLIS - COMARCA; DIVINOPOLIS-PJ-01PJ 5.698,20 1.139,64 0,00 0,00 0,00 0,00 6.837,84 752,16 882,98 0,00 1.635,14 5.202,70 3.567,68 294,77 31/01/2013
160 238600 ANA FLAVIA FRANCO CAMPOS OFICIAL DO MP ATIVO BELO HORIZONTE - COMARCA; DIRETORIA DE PESSOAL ADMINISTRATIVO - DPAD 6.075,32 1.215,06 0,00 0,00 2.430,13 0,00 9.720,51 801,94 1.614,74 0,00 2.416,68 7.303,83 352,00 0,00 31/01/2013
161 402900 ANA FLAVIA PORTES DE CARVALHO ANALISTA DO MP ATIVO BELO HORIZONTE - COMARCA; DIRET DE PLANOS PROJETOS E PROGRAMAS INST 6.379,14 382,75 0,00 0,00 2.253,96 0,00 9.015,85 743,81 1.436,94 0,00 2.180,75 6.835,10 3.802,68 294,77 31/01/2013
162 382700 ANA KARENINA SALDANHA GONTIJO ANALISTA DO MP ATIVO BELO HORIZONTE - COMARCA; ASSESS TECNICO-JUR JUNTO AS PROC. DE JUST 5.883,73 353,02 0,00 0,00 0,00 0,00 6.236,75 686,04 735,87 0,00 1.421,91 4.814,84 352,00 0,00 31/01/2013
163 220000 ANA LUCIA AMORIM OFICIAL DO MP ATIVO MARTINHO CAMPOS - COMARCA; MARTINHO CAMPOS-PJ-SECRETARIA 5.344,58 2.137,84 0,00 0,00 0,00 0,00 7.482,42 823,07 1.040,74 0,00 1.863,81 5.618,61 352,00 0,00 31/01/2013
164 462200 ANA LUCIA ANDRADE TOMICH OTTONI ANALISTA DO MP ATIVO TEÓFILO OTONI - COMARCA; TEOFILO OTONI-PJ-06PJ 5.698,20 0,00 0,00 0,00 0,00 0,00 5.698,20 632,34 509,47 0,00 1.141,81 4.556,39 587,00 87,96 31/01/2013
165 504100 ANA LUCIA CATAO DE CARVALHO OFICIAL DO MP ATIVO BELO HORIZONTE - COMARCA; BH-09PJ AUDITORIA MILITAR 3.051,96 0,00 0,00 0,00 0,00 0,00 3.051,96 335,82 86,84 0,00 422,66 2.629,30 587,00 2,55 31/01/2013
166 274700 ANA LUCIA DE ALENCAR BRAGATO OFICIAL DO MP ATIVO UBERABA - COMARCA; UBERABA-PJ-04PJ 5.344,58 534,46 0,00 0,00 0,00 0,00 5.879,04 646,69 601,02 0,00 1.247,71 4.631,33 352,00 0,00 31/01/2013
167 258600 ANA LUCIA DE FREITAS AZEVEDO ANALISTA DO MP ATIVO BELO HORIZONTE - COMARCA; BH-19PJ SAUDE-ASS TECNICA 8.788,36 878,84 0,00 0,00 3.222,40 0,00 12.889,60 1.063,39 2.461,63 0,00 3.525,02 9.364,58 352,00 0,00 31/01/2013
168 509400 ANA LUCIA DORNELAS MALLOSTO ANALISTA DO MP ATIVO JUIZ DE FORA - COMARCA; JUIZ DE FORA-PJ-08PJ 4.270,85 0,00 0,00 0,00 0,00 0,00 4.270,85 469,87 278,24 0,00 748,11 3.522,74 352,00 2,09 31/01/2013
169 524600 ANA LUCIA DOS SANTOS FERNANDES COELHO ASSESSOR ATIVO BELO HORIZONTE - COMARCA; DIRET DE FORMACAO, APERFEIC. E POS-GRADUACAO 0,00 0,00 3.698,79 0,00 0,00 0,00 3.698,79 123,28 227,49 0,00 350,77 3.348,02 352,00 0,00 31/01/2013
170 302600 ANA LUCIA LOPES SANTOS OFICIAL DO MP ATIVO BELO HORIZONTE - COMARCA; PROCON-MG-SECRETARIA DE FISCALIZACOES 5.344,58 534,46 0,00 0,00 0,00 0,00 5.879,04 679,95 675,02 0,00 1.354,97 4.524,07 3.802,68 597,11 31/01/2013
171 493400 ANA LUISA NOGUEIRA MOREIRA ANALISTA DO MP ATIVO BELO HORIZONTE - COMARCA; TRIBUNAL DO JURI-07 PJ-02 TRIBUNAL 5.176,02 0,00 0,00 0,00 0,00 0,00 5.176,02 571,65 476,25 0,00 1.047,90 4.128,12 352,00 37,02 31/01/2013
172 389300 ANA LUISA REUTER LIMA ANALISTA DO MP ATIVO BELO HORIZONTE - COMARCA; DIRETORIA DE SISTEMAS DE INFORMACAO 5.344,58 320,67 0,00 0,00 0,00 0,00 5.665,25 628,88 595,99 0,00 1.224,87 4.440,38 352,00 90,47 31/01/2013
173 480600 ANA LUIZA FERNANDES FRAGA E GRECO OFICIAL DO MP ATIVO SANTO ANTÔNIO DO MONTE - COMARCA; SANTO ANTONIO DO MONTE-PJ-UNPJ 2.772,23 0,00 0,00 0,00 0,00 0,00 2.772,23 306,54 56,74 0,00 363,28 2.408,95 352,00 26,28 31/01/2013
174 517800 ANA LUIZA MAGALHAES CIRINO PIOTO DE MELO OFICIAL DO MP ATIVO BELO HORIZONTE - COMARCA; DIRETORIA DE MANUTENCAO PREDIAL 2.684,83 0,00 0,00 0,00 0,00 0,00 2.684,83 295,33 50,90 0,00 346,23 2.338,60 352,00 0,00 31/01/2013
175 481400 ANA MARCIA CANDIDA FERREIRA OFICIAL DO MP ATIVO BRUMADINHO - COMARCA; BRUMADINHO-PJ-01PJ 2.772,23 0,00 0,00 0,00 0,00 0,00 2.772,23 306,54 56,74 0,00 363,28 2.408,95 1.460,89 54,05 31/01/2013
176 409600 ANA OLIVIA FARIA ROSENBURG ANALISTA DO MP ATIVO BELO HORIZONTE - COMARCA; DIRETORIA DO COLEGIO E DA CAMARA DE PJ 6.379,14 1.275,83 0,00 0,00 0,00 0,00 7.654,97 842,05 1.082,97 0,00 1.925,02 5.729,95 587,00 0,00 31/01/2013
177 374600 ANA PATRICIA FERREIRA FRANCA OFICIAL DO MP ATIVO TIROS - COMARCA; TIROS-PJ-SECRETARIA 4.553,46 273,21 0,00 0,00 0,00 0,00 4.826,67 534,68 350,85 0,00 885,53 3.941,14 0,00 60,07 31/01/2013
178 461500 ANA PAULA ALVES CARVALHO ANALISTA DO MP ATIVO UBERLÂNDIA - COMARCA; UBERLANDIA-PJ-08PJ 5.698,20 0,00 0,00 0,00 0,00 0,00 5.698,20 632,98 604,06 0,00 1.237,04 4.461,16 352,00 97,89 31/01/2013
179 523200 ANA PAULA ALVES DA SILVA OFICIAL DO MP ATIVO GOVERNADOR VALADARES - COMARCA; GOVERNADOR VALADARES-PJ-15PJ 2.955,70 0,00 0,00 0,00 0,00 0,00 2.955,70 325,13 73,99 0,00 399,12 2.556,58 352,00 0,00 31/01/2013
180 381200 ANA PAULA BARROS PEREIRA ASSESSOR/ANALISTA ATIVO BELO HORIZONTE - COMARCA; PROC JUST RECURSOS ESP E EXTRAORD CRIMINAIS 0,00 449,25 7.487,46 0,00 0,00 0,00 7.936,71 743,81 1.187,47 0,00 1.931,28 6.005,43 352,00 0,00 31/01/2013
181 227200 ANA PAULA DA SILVA CAMPOLINA ANALISTA DO MP ATIVO BELO HORIZONTE - COMARCA; EXTINTA - DIVISÃO DE MATERIAL PERMANENTE 10.315,17 3.094,55 0,00 0,00 0,00 0,00 13.409,72 1.475,07 2.491,45 0,00 3.966,52 9.443,20 3.567,68 294,77 31/01/2013
182 84200 ANA PAULA DE SOUZA ROCHA OFICIAL DO MP ATIVO BELO HORIZONTE - COMARCA; ASSESS ESP ADM E FINANCEIRA DO PGJ ADJ ADM 20.365,45 8.146,19 0,00 0,00 0,00 0,00 28.511,64 2.652,94 5.017,62 4.394,02 12.064,58 16.447,06 3.567,68 294,78 31/01/2013
183 278500 ANA PAULA DIAS CAPANEMA COORDENADOR/OFICIAL ATIVO BELO HORIZONTE - COMARCA; EXTINTA - DIRETORIA DE MATERIAL E PATRIMONIO 0,00 967,49 9.674,93 0,00 0,00 0,00 10.642,42 646,69 1.958,25 0,00 2.604,94 8.037,48 352,00 0,00 31/01/2013
184 327300 ANA PAULA GARCIA MAXIMO OFICIAL DO MP ATIVO UNAÍ - COMARCA; UNAI-PJ-01PJ 5.344,58 1.603,37 0,00 0,00 0,00 0,00 6.947,95 881,86 947,85 0,00 1.829,71 5.118,24 587,00 1.247,07 31/01/2013
185 270000 ANA PAULA GOULART CRUZ DE MAGALHAES ANALISTA DO MP ATIVO BELO HORIZONTE - COMARCA; PROC JUST ESP ACOES COMP ORIG CRIMINAL-ASSESS 7.022,72 702,27 0,00 0,00 0,00 0,00 7.724,99 849,75 1.100,11 0,00 1.949,86 5.775,13 352,00 0,00 31/01/2013
186 262100 ANA PAULA KOMATSUZAKI ABIJAUDI ANALISTA DO MP ATIVO BELO HORIZONTE - COMARCA; BH-17PJ PATRIMONIO PUBLICO-SECRETARIA 9.074,45 2.722,34 0,00 0,00 0,00 0,00 11.796,79 1.297,65 2.002,10 0,00 3.299,75 8.497,04 587,00 0,00 31/01/2013
187 278900 ANA PAULA MOREIRA GURGEL ANALISTA DO MP ATIVO BELO HORIZONTE - COMARCA; EXTINTA - DIRETORIA DE CONTRATOS E CONVÊNIOS 8.788,36 1.757,67 0,00 0,00 0,00 0,00 10.546,03 1.189,89 1.856,93 0,00 3.046,82 7.499,21 3.567,68 565,94 31/01/2013
188 425700 ANA PAULA ROCHA ASSESSOR/OFICIAL ATIVO BELO HORIZONTE - COMARCA; ASSESSORIA DE COMUNICACAO INTEGRADA 0,00 353,02 5.883,73 0,00 0,00 0,00 6.236,75 441,84 804,05 0,00 1.245,89 4.990,86 352,00 60,06 31/01/2013
189 395601 ANA PAULA SALGE OLIVEIRA ANALISTA DO MP ATIVO UBERABA - COMARCA; COORD REG PJ DEF EDUC DIR CRIANCA ADOL TRIANG 5.012,79 501,28 0,00 0,00 0,00 0,00 5.514,07 606,55 558,99 0,00 1.165,54 4.348,53 3.567,68 294,77 31/01/2013
190 473200 ANA PAULA SCOTTON BRASIL ANALISTA DO MP ATIVO JUIZ DE FORA - COMARCA; JUIZ DE FORA-PJ-09PJ 5.176,02 0,00 0,00 0,00 0,00 0,00 5.176,02 723,81 635,81 0,00 1.359,62 3.816,40 3.457,61 1.880,21 31/01/2013
191 470900 ANA PAULA VALADARES ANALISTA DO MP ATIVO PITANGUI - COMARCA; PITANGUI-PJ-01PJ 5.698,20 0,00 0,00 0,00 0,00 0,00 5.698,20 653,66 616,53 0,00 1.270,19 4.428,01 587,00 244,20 31/01/2013
192 447000 ANA PAULA VALENTIM DE ARAUJO ANALISTA DO MP ATIVO BELO HORIZONTE - COMARCA; BH-08PJ JUIZADO ESPECIAL 5.883,73 353,02 0,00 0,00 2.078,92 0,00 8.315,67 768,67 1.434,21 0,00 2.202,88 6.112,79 352,00 751,19 31/01/2013
193 505400 ANA PAULA VIEIRA SOUTO OFICIAL DO MP ATIVO ALMENARA - COMARCA; COORD. PAT. PUBLICO-MUCURI/JEQUIT - ALMENARA 2.772,23 554,45 0,00 0,00 1.108,89 0,00 4.435,57 366,01 261,28 0,00 627,29 3.808,28 587,00 2,11 31/01/2013
194 280200 ANA RACHEL BRANDAO LADEIRA ROLAND DIRETOR/ANALISTA ATIVO BELO HORIZONTE - COMARCA; SUPRIN DE FORMACAO E APERFEICOAMENTO-SFA/CEAF 0,00 1.254,01 12.540,10 0,00 0,00 0,00 13.794,11 1.063,39 2.710,37 0,00 3.773,76 10.020,35 587,00 0,00 31/01/2013
195 384700 ANA RODRIGUES PEREIRA MARRA ANALISTA DO MP ATIVO COROMANDEL - COMARCA; COROMANDEL-PJ-01PJ 5.344,58 320,67 0,00 0,00 0,00 0,00 5.665,25 629,48 548,70 0,00 1.178,18 4.487,07 352,00 99,86 31/01/2013
196 232700 ANA SILVIA SEMBLANO NAKAMURA ASSESSOR/OFICIAL ATIVO BELO HORIZONTE - COMARCA; CENT DE APOIO TEC-SETOR DEF,IDOSO E INFANC 0,00 1.497,49 7.487,46 0,00 0,00 0,00 8.984,95 752,16 1.473,44 0,00 2.225,60 6.759,35 3.567,68 294,77 31/01/2013
197 326700 ANA TERCIA DE FATIMA COSTA OFICIAL DO MP ATIVO NOVA SERRANA - COMARCA; NOVA SERRANA-PJ-01PJ 4.854,78 485,48 0,00 0,00 0,00 587,43 5.927,69 587,43 583,41 0,00 1.170,84 4.756,85 352,00 0,00 31/01/2013
198 310400 ANADEJE DO CARMO DINIZ ARAUJO OFICIAL DO MP ATIVO BELO HORIZONTE - COMARCA; CENT DE ATENDIMENTO E ORIENTACAO DE PESSOAL 4.854,78 485,48 0,00 0,00 1.780,09 0,00 7.120,35 587,43 1.005,97 0,00 1.593,40 5.526,95 587,00 0,00 31/01/2013
199 395000 ANAIDE PEREIRA LOPES ANALISTA DO MP ATIVO BELO HORIZONTE - COMARCA; DIRETORIA DE GESTAO DOCUMENTAL 5.344,58 320,67 0,00 0,00 0,00 0,00 5.665,25 697,50 748,53 0,00 1.446,03 4.219,22 352,00 714,63 31/01/2013
200 337000 ANAILDES MARIA MENDES OFICIAL DO MP ATIVO JANAÚBA - COMARCA; JANAUBA-PJ-02PJ 4.005,77 400,58 0,00 0,00 0,00 0,00 4.406,35 489,45 305,37 0,00 794,82 3.611,53 3.567,68 316,80 31/01/2013
201 192900 ANATALIA CERQUEIRA LIMA PERES OFICIAL DO MP ATIVO UBERABA - COMARCA; COORD REG PJ DEF EDUC DIR CRIANCA ADOL TRIANG 4.854,78 970,96 0,00 0,00 0,00 0,00 5.825,74 640,83 635,27 0,00 1.276,10 4.549,64 352,00 0,00 31/01/2013
202 377400 ANDEIRSON DA MATTA BARBOSA ANALISTA DO MP ATIVO POUSO ALEGRE - COMARCA; POUSO ALEGRE-PJ-01PJ 5.883,73 353,02 0,00 0,00 2.078,92 0,00 8.315,67 686,04 1.307,57 0,00 1.993,61 6.322,06 352,00 0,00 31/01/2013
203 317400 ANDERSON DA SILVA BICALHO OFICIAL DO MP ATIVO CONTAGEM - COMARCA; CONTAGEM-PJ-SECRETARIA 4.854,78 485,48 0,00 0,00 0,00 0,00 5.340,26 587,43 516,45 0,00 1.103,88 4.236,38 587,00 0,00 31/01/2013
204 506900 ANDERSON DE SOUZA DAMIANI ANALISTA DO MP ATIVO BELO HORIZONTE - COMARCA; DIRETORIA DE PAGAMENTO DE PESSOAL-DPAG 4.270,85 854,17 0,00 0,00 0,00 0,00 5.125,02 563,86 463,77 0,00 1.027,63 4.097,39 352,00 2,87 31/01/2013
205 410000 ANDERSON DE SOUZA NETO ASSESSOR ATIVO BELO HORIZONTE - COMARCA; DIRETORIA DE ADMINISTRACAO FINANCEIRA 0,00 0,00 3.698,79 0,00 0,00 0,00 3.698,79 457,49 165,60 0,00 623,09 3.075,70 3.567,68 219,76 31/01/2013
206 181900 ANDERSON FLAVIO DE OLIVEIRA OFICIAL DO MP ATIVO ITAGUARA - COMARCA; ITAGUARA-PJ-SECRETARIA 5.883,73 1.176,75 0,00 0,00 0,00 0,00 7.060,48 776,65 937,47 0,00 1.714,12 5.346,36 352,00 0,00 31/01/2013
207 119500 ANDERSON FUNGHI DE AZEVEDO ROCHA COORDENADOR/OFICIAL ATIVO BELO HORIZONTE - COMARCA; DIR ESTRUTURA E PROCESSOS ORGANIZACIONAIS 0,00 6.772,45 9.674,93 0,00 0,00 0,00 16.447,38 1.591,60 3.152,88 0,00 4.744,48 11.702,90 352,00 0,00 31/01/2013
208 333200 ANDERSON JOSE DE FREITAS OFICIAL DO MP ATIVO IPATINGA - COMARCA; IPATINGA-PJ-02PJ 4.005,77 400,58 0,00 0,00 0,00 0,00 4.406,35 489,52 305,37 0,00 794,89 3.611,46 3.567,68 317,90 31/01/2013
209 462100 ANDERSON LUIZ GUIMARAES CARDOSO ANALISTA DO MP ATIVO BARBACENA - COMARCA; BARBACENA-PJ-SECRETARIA 5.698,20 0,00 0,00 0,00 0,00 0,00 5.698,20 626,80 604,06 0,00 1.230,86 4.467,34 352,00 0,00 31/01/2013
210 429700 ANDERSON MELO DE SOUZA OFICIAL DO MP ATIVO BELO HORIZONTE - COMARCA; DIRET DE ESTAGIOS E CONVENIOS ACADEMICOS 3.151,29 189,08 0,00 0,00 0,00 0,00 3.340,37 369,63 125,34 0,00 494,97 2.845,40 352,00 35,64 31/01/2013
211 519900 ANDERSON MOREIRA DOEHLER ANALISTA DO MP ATIVO NOVO CRUZEIRO - COMARCA; NOVO CRUZEIRO-PJ-UNPJ 4.553,46 910,69 0,00 0,00 0,00 0,00 5.464,15 601,06 546,77 0,00 1.147,83 4.316,32 616,96 0,00 31/01/2013
212 103000 ANDERSON TADEU DE DEUS ASSESSOR ATIVO BELO HORIZONTE - COMARCA; EXTINTA - PROTOCOLO DA PGJ 0,00 1.849,40 3.698,79 0,00 1.849,40 0,00 7.397,59 457,49 1.219,66 0,00 1.677,15 5.720,44 587,00 739,76 31/01/2013
213 309200 ANDITYAS SOARES DE MOURA COSTA MATOS ANALISTA DO MP ATIVO BELO HORIZONTE - COMARCA; GABINETE DE PROCURADOR DE JUSTIÇA - SALA 909 7.487,46 748,75 0,00 0,00 0,00 0,00 8.236,21 905,98 1.225,23 0,00 2.131,21 6.105,00 352,00 0,00 31/01/2013
214 338701 ANDRE BARBUTO VITORINO ANALISTA DO MP ATIVO AIMORÉS - COMARCA; AIMORES-PJ-UNPJ 6.379,14 382,75 0,00 0,00 0,00 0,00 6.761,89 743,81 864,39 0,00 1.608,20 5.153,69 352,00 0,00 31/01/2013
215 519200 ANDRE BORJA LANA ANALISTA DO MP ATIVO BELO HORIZONTE - COMARCA; ASSESSORIA DE COMUNICACAO INTEGRADA 4.553,46 0,00 0,00 0,00 0,00 0,00 4.553,46 500,88 334,83 0,00 835,71 3.717,75 352,00 0,00 31/01/2013
216 521900 ANDRE LUIS GOMES SILVA ANALISTA DO MP ATIVO FORMIGA - COMARCA; FORMIGA-PJ-01PJ 4.136,15 0,00 0,00 0,00 0,00 0,00 4.136,15 454,98 251,26 0,00 706,24 3.429,91 352,00 0,00 31/01/2013
217 304300 ANDRE LUIZ AVELAR ANALISTA DO MP ATIVO BELO HORIZONTE - COMARCA; DIRETORIA DE REDES E BANCOS DE DADOS 5.698,20 569,82 0,00 0,00 0,00 0,00 6.268,02 701,30 769,82 0,00 1.471,12 4.796,90 352,00 107,46 31/01/2013
218 397400 ANDRE PATARO MYRRHA DE PAULA E SILVA ASSESSOR/ANALISTA ATIVO BELO HORIZONTE - COMARCA; ASSESSORIA JURIDICO-ADMINISTRATIVA 0,00 449,25 7.487,46 0,00 0,00 0,00 7.936,71 686,04 1.156,06 0,00 1.842,10 6.094,61 352,00 0,00 31/01/2013
219 297200 ANDRE WILLE ROSARIO ANALISTA DO MP ATIVO BELO HORIZONTE - COMARCA; ASSESSORIA ESPECIAL DO PGJ 8.788,36 878,84 0,00 0,00 0,00 0,00 9.667,20 1.063,39 1.433,59 0,00 2.496,98 7.170,22 4.037,68 294,77 31/01/2013
220 423600 ANDREA COSTA GUALBERTO ANALISTA DO MP ATIVO GOVERNADOR VALADARES - COMARCA; COORD REG PJ DEF EDU DIR CRIANCA ADOL RIODOCE 5.344,58 2.672,29 0,00 0,00 2.672,29 0,00 10.689,16 881,86 1.906,43 0,00 2.788,29 7.900,87 3.802,68 294,77 31/01/2013
221 198600 ANDREA CRISTINA ANDRADE COSTA E SOUZA OFICIAL DO MP ATIVO MONTES CLAROS - COMARCA; MONTES CLAROS-PJ-SECRETARIA 7.731,26 1.546,25 0,00 0,00 0,00 0,00 9.277,51 1.020,53 1.385,51 0,00 2.406,04 6.871,47 3.567,68 294,77 31/01/2013
222 467300 ANDREA DE CASSIA PENNA ALVERNAZ ANALISTA DO MP ATIVO PONTE NOVA - COMARCA; PONTE NOVA-PJ-SECRETARIA 5.698,20 0,00 0,00 0,00 0,00 0,00 5.698,20 631,84 604,06 0,00 1.235,90 4.462,30 587,00 80,05 31/01/2013
223 308000 ANDREA DE CASSIA SANTOS OLIVEIRA ANALISTA DO MP ATIVO BELO HORIZONTE - COMARCA; ASSESS TECNICO-JUR JUNTO AS PROC. DE JUST 7.982,93 798,29 0,00 0,00 0,00 0,00 8.781,22 965,93 1.358,62 0,00 2.324,55 6.456,67 587,00 0,00 31/01/2013
224 349500 ANDREA DE OLIVEIRA OFICIAL DO MP ATIVO IGUATAMA - COMARCA; IGUATAMA-PJ-UNPJ 4.553,46 455,35 0,00 0,00 1.669,60 0,00 6.678,41 555,51 847,17 0,00 1.402,68 5.275,73 643,40 72,45 31/01/2013
225 254700 ANDREA EMISE REIS DE AZEVEDO COORDENADOR/OFICIAL ATIVO BELO HORIZONTE - COMARCA; PROC JUST ESP ACOES COMP ORIG CRIMINAL-SEC 0,00 1.702,24 8.511,21 0,00 0,00 0,00 10.213,45 705,49 1.824,11 0,00 2.529,60 7.683,85 352,00 0,00 31/01/2013
226 287900 ANDREA FERNANDES PENA OFICIAL DO MP ATIVO MONTES CLAROS - COMARCA; MONTES CLAROS-PJ-09PJ 5.518,54 551,85 0,00 0,00 0,00 0,00 6.070,39 667,74 600,57 0,00 1.268,31 4.802,08 3.567,68 294,77 31/01/2013
227 300800 ANDREA FERREIRA ANALISTA DO MP ATIVO LAVRAS - COMARCA; LAVRAS-PJ-04PJ 7.731,26 773,13 0,00 0,00 0,00 0,00 8.504,39 935,48 1.290,87 0,00 2.226,35 6.278,04 3.567,68 294,77 31/01/2013
228 316700 ANDREA FRANCISCA DIAS DE SOUZA ASSESSOR ATIVO BELO HORIZONTE - COMARCA; BH-22PJ PES COM DEF E IDOSOS-SECRETARIA 0,00 0,00 2.215,31 0,00 0,00 0,00 2.215,31 279,08 16,91 0,00 295,99 1.919,32 2.567,31 66,51 31/01/2013
229 395100 ANDREA LANNA MENDES NOVAIS ANALISTA DO MP ATIVO BELO HORIZONTE - COMARCA; PROMOT ESTADUAL DE DEF PATRI CULT E TUR DE MG 6.379,14 382,75 0,00 0,00 2.253,96 0,00 9.015,85 743,81 1.436,94 0,00 2.180,75 6.835,10 822,00 0,00 31/01/2013
230 67300 ANDREA LEAO MAGALHAES ROQUE ASSESSOR ATIVO BELO HORIZONTE - COMARCA; COORD CONTROLE CONST-SECRETARIA 0,00 3.743,73 7.487,46 0,00 0,00 0,00 11.231,19 457,49 2.172,19 0,00 2.629,68 8.601,51 352,00 0,00 31/01/2013
231 335700 ANDREA LOPES PEREIRA ANALISTA DO MP ATIVO GOVERNADOR VALADARES - COMARCA; COORD REG DO MA DA BACIA DO RIO DOCE 7.982,93 798,29 0,00 0,00 2.927,07 0,00 11.708,29 965,93 2.163,57 0,00 3.129,50 8.578,79 352,00 0,00 31/01/2013
232 389200 ANDREA TUPINI DOS SANTOS TRISTAO DA ROCHA OFICIAL DO MP ATIVO DIVINO - COMARCA; DIVINO-PJ-UNPJ 3.469,26 208,16 0,00 0,00 1.225,81 0,00 4.903,23 428,33 492,85 0,00 921,18 3.982,05 352,00 237,71 31/01/2013
233 419000 ANDREIA BARBOSA DE ALMEIDA ANALISTA DO MP ATIVO BELO HORIZONTE - COMARCA; PROC. JUSTICA DE HABEAS CORPUS 6.379,14 382,75 0,00 0,00 2.253,96 0,00 9.015,85 907,47 1.612,76 0,00 2.520,23 6.495,62 3.567,68 1.782,64 31/01/2013
234 281501 ANDREIA CARLA COSTA FILGUEIRAS ANALISTA DO MP ATIVO VISCONDE DO RIO BRANCO - COMARCA; VISCONDE DO RIO BRANCO-PJ-02PJ 6.379,14 382,75 0,00 0,00 2.253,96 0,00 9.015,85 871,32 1.673,36 0,00 2.544,68 6.471,17 352,00 1.159,20 31/01/2013
235 477100 ANDREIA DE ALMEIDA RIBEIRO MELO OFICIAL DO MP ATIVO CONTAGEM - COMARCA; CONTAGEM-PJ-07PJ 3.359,85 0,00 0,00 0,00 0,00 0,00 3.359,85 453,59 169,04 0,00 622,63 2.737,22 352,00 775,48 31/01/2013
236 100200 ANDREIA FERREIRA MATTOZINHOS COORDENADOR/ANALISTA ATIVO BELO HORIZONTE - COMARCA; DIRET DE ESTAGIOS E CONVENIOS ACADEMICOS 15.829,88 13.402,91 0,00 0,00 0,00 2.652,94 31.885,73 2.652,94 5.841,77 5.115,17 13.609,88 18.275,85 352,00 0,00 31/01/2013
237 424000 ANDREIA LUCIA COUTO ANALISTA DO MP ATIVO BELO HORIZONTE - COMARCA; BH-18PJ DIREITOS HUMANOS 5.883,73 353,02 0,00 0,00 0,00 0,00 6.236,75 686,04 735,87 0,00 1.421,91 4.814,84 587,00 0,00 31/01/2013
238 370100 ANDREIA MARIA SILVA PINTO OFICIAL DO MP ATIVO CORONEL FABRICIANO - COMARCA; CORONEL FABRICIANO-PJ-01PJ 4.701,73 470,17 0,00 0,00 0,00 0,00 5.171,90 573,74 475,24 0,00 1.048,98 4.122,92 352,00 76,92 31/01/2013
239 382100 ANDREIA NATALI PEREIRA OFICIAL DO MP ATIVO PRADOS - COMARCA; PRADOS-PJ-UNPJ 4.553,46 273,21 0,00 0,00 0,00 0,00 4.826,67 535,20 390,75 0,00 925,95 3.900,72 352,00 68,12 31/01/2013
240 198700 ANDREIA NUNES DURAES OFICIAL DO MP ATIVO MONTES CLAROS - COMARCA; MONTES CLAROS-PJ-06PJ 7.731,26 1.546,25 0,00 0,00 0,00 0,00 9.277,51 1.020,53 1.480,09 0,00 2.500,62 6.776,89 3.567,68 294,77 31/01/2013
241 275200 ANDREIA RIBEIRO FREITAS OFICIAL DO MP ATIVO VIÇOSA - COMARCA; VICOSA-PJ-03PJ 5.344,58 1.068,92 0,00 0,00 0,00 0,00 6.413,50 705,49 684,54 0,00 1.390,03 5.023,47 3.802,68 294,77 31/01/2013
242 352200 ANDREIA XAVIER PEREIRA OFICIAL DO MP ATIVO CLÁUDIO - COMARCA; CLAUDIO-PJ-UNPJ 4.553,46 455,35 0,00 0,00 0,00 0,00 5.008,81 555,51 435,33 0,00 990,84 4.017,97 352,00 72,39 31/01/2013
243 383700 ANDRESSA EDUARDO SOUZA ANALISTA DO MP ATIVO OURO BRANCO - COMARCA; OURO BRANCO-PJ-SECRETARIA 6.379,14 382,75 0,00 0,00 0,00 0,00 6.761,89 743,81 864,39 0,00 1.608,20 5.153,69 3.567,68 294,77 31/01/2013
244 426200 ANDRESSA MENDES CASAL ASSESSOR/OFICIAL ATIVO BELO HORIZONTE - COMARCA; BH-12PJ JUIZO CRIMINAL-SECRETARIA 0,00 353,02 5.883,73 0,00 2.078,92 0,00 8.315,67 404,52 1.384,99 0,00 1.789,51 6.526,16 352,00 0,00 31/01/2013
245 390100 ANDRESSA RIBEIRO PUCCI OFICIAL DO MP ATIVO UBERABA - COMARCA; UBERABA-PJ-14PJ 3.757,11 225,43 0,00 0,00 0,00 0,00 3.982,54 441,02 220,50 0,00 661,52 3.321,02 352,00 47,40 31/01/2013
246 462500 ANDREZA APARECIDA COSTA E SILVA ANALISTA DO MP ATIVO CONSELHEIRO LAFAIETE - COMARCA; CONSELHEIRO LAFAIETE-PJ-02PJ 5.698,20 0,00 0,00 0,00 0,00 0,00 5.698,20 632,73 604,06 0,00 1.236,79 4.461,41 3.567,68 388,77 31/01/2013
247 491600 ANE PATRICIA RIBEIRO ANALISTA DO MP ATIVO SETE LAGOAS - COMARCA; SETE LAGOAS-PJ-10PJ 4.701,73 0,00 0,00 0,00 0,00 0,00 4.701,73 520,58 364,52 0,00 885,10 3.816,63 587,00 54,22 31/01/2013
248 465800 ANELISE GAMA ASSESSOR ATIVO BELO HORIZONTE - COMARCA; BH-18PJ VIOLENCIA DOMESTICA 0,00 0,00 3.698,79 0,00 0,00 0,00 3.698,79 449,27 166,83 0,00 616,10 3.082,69 352,00 59,08 31/01/2013
249 197200 ANGELA COELHO SALDANHA OLIVEIRA OFICIAL DO MP ATIVO PARÁ DE MINAS - COMARCA; PARA DE MINAS-PJ-03PJ 7.731,26 1.546,25 0,00 0,00 0,00 0,00 9.277,51 1.020,53 1.480,09 0,00 2.500,62 6.776,89 352,00 0,00 31/01/2013
250 307400 ANGELA CRISTINA GONCALVES MUNIZ ANALISTA DO MP ATIVO UBERLÂNDIA - COMARCA; UBERLANDIA-COORD CONJ-FAMÍLIA E JUIZ ESP CRIM 8.788,36 1.757,67 0,00 0,00 0,00 0,00 10.546,03 1.160,06 1.790,56 0,00 2.950,62 7.595,41 3.802,68 294,77 31/01/2013
251 191800 ANGELA MARIA DE OLIVEIRA OFICIAL DO MP ATIVO GUARANÉSIA - COMARCA; GUARANESIA-PJ-SECRETARIA 7.731,26 2.319,38 0,00 0,00 3.350,21 0,00 13.400,85 1.105,57 2.543,33 0,00 3.648,90 9.751,95 352,00 0,00 31/01/2013
252 69900 ANGELA MARIA DE PAULA CUNHA OFICIAL DO MP ATIVO JUIZ DE FORA - COMARCA; JUIZ DE FORA-PJ-11PJ 7.982,93 3.991,47 0,00 0,00 0,00 0,00 11.974,40 1.317,18 1.998,28 0,00 3.315,46 8.658,94 3.567,68 294,77 31/01/2013
253 497400 ANGELA MARIA HENRIQUES ANALISTA DO MP ATIVO BELO HORIZONTE - COMARCA; COORD REG BACIAS RIO VELHAS E PARAOPEBA 4.701,73 0,00 0,00 0,00 0,00 0,00 4.701,73 518,67 364,52 0,00 883,19 3.818,54 1.292,00 24,30 31/01/2013
254 260700 ANGELICA CRISTINA AZEVEDO MOREIRA MOUCO OFICIAL DO MP ATIVO UBÁ - COMARCA; UBA-PJ-02PJ 5.698,20 569,82 0,00 0,00 2.089,34 0,00 8.357,36 689,48 1.223,50 0,00 1.912,98 6.444,38 587,00 0,00 31/01/2013
255 334600 ANGELICA PANISSA DE FREITAS OFICIAL DO MP ATIVO GUAXUPÉ - COMARCA; GUAXUPE-PJ-02PJ 4.005,77 801,15 0,00 0,00 0,00 0,00 4.806,92 533,53 385,91 0,00 919,44 3.887,48 3.567,68 370,62 31/01/2013
256 521100 ANGELICA SALES MOREIRA OFICIAL DO MP ATIVO BELO HORIZONTE - COMARCA; BH-02PJ FAMILIA-SECRETARIA 2.684,83 0,00 0,00 0,00 0,00 0,00 2.684,83 295,33 50,90 0,00 346,23 2.338,60 352,00 0,00 31/01/2013
257 466500 ANGELLO MARQUES AGRELLI ANALISTA DO MP ATIVO MAR DE ESPANHA - COMARCA; MAR DE ESPANHA-PJ-UNPJ 5.698,20 0,00 0,00 0,00 0,00 0,00 5.698,20 631,47 604,06 0,00 1.235,53 4.462,67 352,00 74,34 31/01/2013
258 363300 ANGELO VERDOLIN HENRIQUES ANALISTA DO MP ATIVO SETE LAGOAS - COMARCA; SETE LAGOAS-PJ-04PJ 7.731,26 1.546,25 0,00 0,00 0,00 0,00 9.277,51 1.020,53 1.480,09 0,00 2.500,62 6.776,89 3.802,68 294,77 31/01/2013
259 250900 ANISIO APARECIDO SANTOS OFICIAL DO MP ATIVO CONTAGEM - COMARCA; CONTAGEM-PJ-19PJ 4.409,86 881,97 0,00 0,00 0,00 0,00 5.291,83 582,10 410,01 0,00 992,11 4.299,72 352,00 0,00 31/01/2013
260 253400 ANNA FLAVIA LEHMAN BATTAGLIA COORDENADOR/ANALISTA ATIVO BELO HORIZONTE - COMARCA; ASSESSORIA JURIDICO-ADMINISTRATIVA 0,00 2.508,02 12.540,10 0,00 5.016,04 0,00 20.064,16 1.197,83 4.255,79 0,00 5.453,62 14.610,54 822,00 0,00 31/01/2013
261 447600 ANNGELUCE ALCANTARA DE CAMPOS OFICIAL DO MP ATIVO DIVINÓPOLIS - COMARCA; DIVINOPOLIS-PJ-10PJ 3.051,96 305,20 0,00 0,00 0,00 0,00 3.357,16 371,06 127,58 0,00 498,64 2.858,52 3.567,68 189,87 31/01/2013
262 119600 ANSELMO BORGES PARREIRAS OFICIAL DO MP ATIVO BONFIM - COMARCA; BONFIM-PJ-UNPJ 5.012,79 3.508,96 0,00 0,00 0,00 0,00 8.521,75 937,39 1.200,54 0,00 2.137,93 6.383,82 352,00 0,00 31/01/2013
263 194800 ANTONIA MARIA AFONSO DE SOUZA OFICIAL DO MP ATIVO ITAPAGIPE - COMARCA; ITAPAGIPE-PJ-SECRETARIA 7.487,46 3.743,73 0,00 0,00 0,00 0,00 11.231,19 1.235,43 1.910,96 0,00 3.146,39 8.084,80 352,00 0,00 31/01/2013
264 332400 ANTONIA MARIA MAMEDE OFICIAL DO MP ATIVO ARAGUARI - COMARCA; ARAGUARI-PJ-05PJ 5.012,79 501,28 0,00 0,00 0,00 0,00 5.514,07 612,46 511,70 0,00 1.124,16 4.389,91 3.567,68 388,54 31/01/2013
265 401600 ANTONIO CARLOS GUEDES AROUCA ANALISTA DO MP ATIVO BELO HORIZONTE - COMARCA; EXTINTA - CAO-IDOSOS PESSOAS DEFIC-SEC ADM 6.379,14 382,75 0,00 0,00 0,00 0,00 6.761,89 743,81 864,39 0,00 1.608,20 5.153,69 996,58 59,09 31/01/2013
266 7100 ANTONIO DO NASCIMENTO OLIVEIRA ASSESSOR ATIVO BELO HORIZONTE - COMARCA; GAECO - SECRETARIA 0,00 1.993,78 2.075,01 0,00 0,00 0,00 4.068,79 457,49 117,91 0,00 575,40 3.493,39 352,00 67,55 31/01/2013
267 59400 ANTONIO GOBIRA DE ALCANTARA AGENTE DO MP ATIVO BELO HORIZONTE - COMARCA; EXTINTA - DIVISAO DE TRANSPORTES 4.854,78 3.398,34 0,00 0,00 0,00 0,00 8.253,12 1.211,32 1.857,31 0,00 3.068,63 5.184,49 3.567,68 3.053,63 31/01/2013
268 333900 ANTONIO GONCALVES DE SOUZA FILHO OFICIAL DO MP ATIVO BELO HORIZONTE - COMARCA; ARQUIVO DO MINISTERIO PUBLICO DO ESTADO DE MG 4.553,46 455,35 0,00 0,00 0,00 0,00 5.008,81 555,79 435,33 0,00 991,12 4.017,69 3.567,68 371,49 31/01/2013
269 119700 ANTONIO LISBOA MACIEL OFICIAL DO MP ATIVO JABOTICATUBAS - COMARCA; JABOTICATUBAS-PJ-SECRETARIA 4.005,77 3.204,62 0,00 0,00 0,00 0,00 7.210,39 793,14 785,00 0,00 1.578,14 5.632,25 352,00 0,00 31/01/2013
270 176100 ANTONIO MARCELO CAMPOS CAMPANELLA OFICIAL DO MP ATIVO BELO HORIZONTE - COMARCA; SUPERINTENDENCIA GESTÃO DE PESSOAS 7.731,26 2.319,38 0,00 0,00 0,00 0,00 10.050,64 1.105,57 1.669,31 0,00 2.774,88 7.275,76 587,00 0,00 31/01/2013
271 119800 ANTONIO MARCIANO DE PAULA AGENTE DO MP ATIVO BELO HORIZONTE - COMARCA; DIRETORIA DE MANUTENCAO PREDIAL 3.879,42 3.491,48 0,00 0,00 0,00 853,47 8.224,37 896,14 1.236,79 0,00 2.132,93 6.091,44 352,00 905,19 31/01/2013
272 321001 ANTONIO OLINTO VIEIRA MACHADO ANALISTA DO MP ATIVO BELO HORIZONTE - COMARCA; CENTRAL DE APOIO TECN-SETOR DE MEIO AMBIENTE 6.379,14 382,75 0,00 0,00 0,00 0,00 6.761,89 743,81 864,39 0,00 1.608,20 5.153,69 352,00 0,00 31/01/2013
273 356200 ANTONIO PAULA DA SILVA OFICIAL DO MP ATIVO JUIZ DE FORA - COMARCA; JUIZ DE FORA-PJ-20PJ 3.879,42 387,94 0,00 0,00 0,00 0,00 4.267,36 474,16 277,54 0,00 751,70 3.515,66 352,00 75,76 31/01/2013
274 83800 ANTONIO ROBSON DA SILVA AGENTE DO MP ATIVO BELO HORIZONTE - COMARCA; BH-23PJ CIVEL-SEC EXP CIVEIS 9.989,93 6.992,95 0,00 0,00 0,00 0,00 16.982,88 1.868,12 3.271,40 0,00 5.139,52 11.843,36 352,00 0,00 31/01/2013
275 119900 ANTONIO RODRIGUES DE PINHO OFICIAL DO MP ATIVO GUANHÃES - COMARCA; GUANHAES-PJ-01PJ 7.487,46 3.743,73 0,00 0,00 0,00 0,00 11.231,19 1.235,43 1.910,96 0,00 3.146,39 8.084,80 352,00 0,00 31/01/2013
276 373300 ANTONIO SERGIO ANANIAS OFICIAL DO MP ATIVO AIURUOCA - COMARCA; AIURUOCA-PJ-UNPJ 3.757,11 225,43 0,00 0,00 0,00 0,00 3.982,54 441,72 159,48 0,00 601,20 3.381,34 587,00 58,28 31/01/2013
277 374700 ANTONIO SILVA NETO OFICIAL DO MP ATIVO BELO HORIZONTE - COMARCA; GAECO - SECRETARIA 4.553,46 273,21 0,00 0,00 0,00 0,00 4.826,67 533,63 390,75 0,00 924,38 3.902,29 352,00 43,64 31/01/2013
278 413200 ANY PEREIRA SILVA ANALISTA DO MP ATIVO TRÊS PONTAS - COMARCA; TRES PONTAS-PJ-01PJ 5.344,58 320,67 0,00 0,00 0,00 0,00 5.665,25 692,62 608,62 0,00 1.301,24 4.364,01 3.567,68 926,05 31/01/2013
279 151401 APARECIDA DE FATIMA MENDES DE ALMEIDA ASSESSOR ATIVO JUIZ DE FORA - COMARCA; JUIZ DE FORA-PJ-SECRETARIA 0,00 0,00 3.698,79 0,00 0,00 0,00 3.698,79 457,49 165,60 0,00 623,09 3.075,70 3.567,68 219,76 31/01/2013
280 329300 APARECIDA MARIA MELO DE ASSIS OFICIAL DO MP ATIVO BELO HORIZONTE - COMARCA; BH-18PJ DIREITOS HUMANOS-SECRETARIA 5.344,58 534,46 0,00 0,00 0,00 0,00 5.879,04 646,69 648,32 0,00 1.295,01 4.584,03 352,00 0,00 31/01/2013
281 475300 APARECIDA MARLENE FREIRE ROSA ANALISTA DO MP ATIVO BELO HORIZONTE - COMARCA; BH-02PJ FAMILIA 5.698,20 4.558,56 0,00 0,00 0,00 0,00 10.256,76 1.403,95 2.035,97 0,00 3.439,92 6.816,84 352,00 3.133,08 31/01/2013
282 240300 APARECIDA PEREIRA DO NASCIMENTO OFICIAL DO MP ATIVO ITURAMA - COMARCA; ITURAMA-PJ-01PJ 6.075,32 3.037,66 0,00 0,00 0,00 0,00 9.112,98 1.002,43 1.439,82 0,00 2.442,25 6.670,73 352,00 0,00 31/01/2013
283 354500 APARECIDA VIEIRA DE CARVALHO OFICIAL DO MP ATIVO BELO HORIZONTE - COMARCA; PROCON-MG-SEC DE EDUCACAO PARA O CONSUMO 3.879,42 387,94 0,00 0,00 0,00 0,00 4.267,36 473,59 238,85 0,00 712,44 3.554,92 3.567,68 307,83 31/01/2013
284 286200 ARACELI MEDRADO DOS SANTOS LIMA OFICIAL DO MP ATIVO PARACATU - COMARCA; PARACATU-PJ-03PJ 4.409,86 440,99 0,00 0,00 1.616,95 0,00 6.467,80 538,73 841,33 0,00 1.380,06 5.087,74 352,00 81,80 31/01/2013
285 189000 ARAHY MARQUES SILVA OFICIAL DO MP ATIVO SÃO JOÃO DEL REI - COMARCA; SAO JOAO DEL REI-PJ-01PJ 4.409,86 881,97 0,00 0,00 0,00 0,00 5.291,83 582,10 504,60 0,00 1.086,70 4.205,13 3.567,68 294,77 31/01/2013
286 112200 ARAQUEM AUGUSTO DE MATOS AGENTE DO MP ATIVO BELO HORIZONTE - COMARCA; BH-23PJ INFRACIONAL-SEC EXP 4.409,86 3.086,91 0,00 0,00 2.498,92 0,00 9.995,69 1.051,35 1.805,01 0,00 2.856,36 7.139,33 587,00 2.060,88 31/01/2013
287 280600 ARDUINO FRATTEZI ANALISTA DO MP ATIVO BELO HORIZONTE - COMARCA; CENTRAL DE APOIO TECNICO-SETOR CONTABIL 8.788,36 878,84 0,00 0,00 0,00 0,00 9.667,20 1.063,39 1.480,88 0,00 2.544,27 7.122,93 3.567,68 294,77 31/01/2013
288 417700 ARIANA CRISTINA DE FREITAS ANALISTA DO MP ATIVO MATEUS LEME - COMARCA; MATEUS LEME-PJ-01PJ 5.344,58 320,67 0,00 0,00 0,00 0,00 5.665,25 796,11 770,65 0,00 1.566,76 4.098,49 352,00 1.782,05 31/01/2013
289 520200 ARIANE DE FATIMA CARVALHO ALMEIDA OFICIAL DO MP ATIVO BELO HORIZONTE - COMARCA; BH-19PJ SAUDE 2.684,83 0,00 0,00 0,00 0,00 0,00 2.684,83 333,30 83,90 0,00 417,20 2.267,63 1.425,93 372,00 31/01/2013
290 182000 ARILSON ALEXANDRE MARTINS MAGALHAES OFICIAL DO MP ATIVO JOÃO MONLEVADE - COMARCA; JOAO MONLEVADE-PJ-02PJ 7.487,46 2.246,24 0,00 0,00 0,00 0,00 9.733,70 1.070,71 1.497,16 0,00 2.567,87 7.165,83 3.567,68 294,77 31/01/2013
291 511000 ARISLANE CAROLINA DA SILVA ANALISTA DO MP ATIVO CAMPINA VERDE - COMARCA; CAMPINA VERDE-PJ-UNPJ 4.701,73 0,00 0,00 0,00 0,00 0,00 4.701,73 517,27 364,52 0,00 881,79 3.819,94 2.232,69 143,00 31/01/2013
292 170000 ARLEY BRITES DA SILVA ASSESSOR ATIVO BELO HORIZONTE - COMARCA; EXTINTA - DIVISÃO DE MATERIAL PERMANENTE 0,00 739,76 3.698,79 0,00 0,00 0,00 4.438,55 457,49 202,66 0,00 660,15 3.778,40 822,00 92,14 31/01/2013
293 120400 ARLINDO CASSIO DA CRUZ OFICIAL DO MP ATIVO SÃO GONÇALO DO SAPUCAÍ - COMARCA; SAO GONCALO DO SAPUCAI-PJ-01PJ 11.161,27 7.812,89 0,00 0,00 0,00 0,00 18.974,16 2.561,82 4.195,36 0,00 6.757,18 12.216,98 587,00 4.794,57 31/01/2013
294 243700 ARLINDO MARCIO LACERDA OFICIAL DO MP ATIVO CONTAGEM - COMARCA; CONTAGEM-PJ-03PJ 6.177,98 1.853,39 0,00 0,00 0,00 0,00 8.031,37 1.089,28 1.327,75 0,00 2.417,03 5.614,34 352,00 1.871,13 31/01/2013
295 392100 ARNALDO DE ANDRADE OFICIAL DO MP ATIVO DIVINÓPOLIS - COMARCA; DIVINOPOLIS-PJ-02PJ 4.553,46 273,21 0,00 0,00 0,00 0,00 4.826,67 536,09 390,75 0,00 926,84 3.899,83 3.567,68 377,01 31/01/2013
296 352801 ARTHUR JONAS MENDONCA E ARAUJO ANALISTA DO MP ATIVO UBERABA - COMARCA; UBERABA-PJ-12PJ 4.701,73 282,10 0,00 0,00 0,00 0,00 4.983,83 553,31 429,21 0,00 982,52 4.001,31 3.567,68 375,71 31/01/2013
297 302100 AUGUSTO ROUSSEAU DE CASTRO ANALISTA DO MP ATIVO CATAGUASES - COMARCA; CATAGUASES-PJ-02PJ 8.788,36 878,84 0,00 0,00 0,00 0,00 9.667,20 1.063,39 1.575,47 0,00 2.638,86 7.028,34 352,00 0,00 31/01/2013
298 183200 AURELIANO MAGELA DE REZENDE COORDENADOR/OFICIAL ATIVO BELO HORIZONTE - COMARCA; COORD DE GABINETE DO PGJ 0,00 1.934,99 9.674,93 0,00 0,00 0,00 11.609,92 1.062,33 2.110,01 0,00 3.172,34 8.437,58 352,00 0,00 31/01/2013
299 519400 BARBARA CRISTINA ALVES PINTO ZADOROSNY ANALISTA DO MP ATIVO BELO HORIZONTE - COMARCA; PROC. JUSTICA DIR. DIFUSOS E COLETIVOS-SEC 4.136,15 0,00 0,00 0,00 0,00 0,00 4.136,15 454,98 251,26 0,00 706,24 3.429,91 352,00 0,00 31/01/2013
300 436800 BARBARA ROCHA LADEIA COLEN OFICIAL DO MP ATIVO BELO HORIZONTE - COMARCA; ASSESS TECNICO-JUR JUNTO AS PROC. DE JUST 3.757,11 225,43 0,00 0,00 0,00 0,00 3.982,54 440,26 220,50 0,00 660,76 3.321,78 352,00 35,52 31/01/2013
301 316500 BEATRIZ ABILVIA DA SILVA ANALISTA DO MP ATIVO GOVERNADOR VALADARES - COMARCA; GOVERNADOR VALADARES-PJ-13PJ 7.982,93 798,29 0,00 0,00 0,00 0,00 8.781,22 965,93 1.358,62 0,00 2.324,55 6.456,67 3.567,68 294,77 31/01/2013
302 482800 BEATRIZ ANGELICA NACIF SADER ASSESSOR ATIVO BELO HORIZONTE - COMARCA; CAO-CRIMINAL 0,00 0,00 5.883,73 0,00 0,00 0,00 5.883,73 457,49 701,64 0,00 1.159,13 4.724,60 352,00 0,00 31/01/2013
303 311800 BEATRIZ APARECIDA SOARES GANEM OFICIAL DO MP ATIVO ITAMBACURI - COMARCA; ITAMBACURI-PJ-02PJ 5.344,58 1.068,92 0,00 0,00 2.137,83 0,00 8.551,33 826,44 1.494,28 0,00 2.320,72 6.230,61 587,00 1.099,60 31/01/2013
304 266800 BEATRIZ AUGUSTA VILACA GOMES DA SILVA OFICIAL DO MP ATIVO BELO HORIZONTE - COMARCA; BH-05PJ-JUÍZO SUCESSÕES-SEC 4.701,73 470,17 0,00 0,00 0,00 0,00 5.171,90 574,98 475,24 0,00 1.050,22 4.121,68 352,00 96,41 31/01/2013
305 235200 BEATRIZ BOTELHO BATISTA OFICIAL DO MP ATIVO BELO HORIZONTE - COMARCA; EXTINTA-CGMP-DIV APOIO ADMINISTRATIVO 5.883,73 1.176,75 0,00 0,00 0,00 0,00 7.060,48 776,65 937,47 0,00 1.714,12 5.346,36 3.567,68 294,77 31/01/2013
306 113500 BEATRIZ DE LOURDES SOUZA ASSESSOR ATIVO BELO HORIZONTE - COMARCA; BH-02PJ FAMILIA-PROM DEC PAT 0,00 2.941,86 5.883,73 0,00 0,00 0,00 8.825,59 457,49 988,65 0,00 1.446,14 7.379,45 352,00 0,00 31/01/2013
307 182300 BEATRIZ PAULA SOUSA RAMOS OFICIAL DO MP ATIVO MARIANA - COMARCA; MARIANA-PJ-01PJ 7.487,46 2.246,24 0,00 0,00 3.244,57 0,00 12.978,27 1.199,19 2.675,29 0,00 3.874,48 9.103,79 352,00 1.168,02 31/01/2013
308 507000 BELCHIOR FRANKLIN AMARAL LEITE ANALISTA DO MP ATIVO BELO HORIZONTE - COMARCA; CENTRAL DE APOIO TECNICO 5.176,02 0,00 0,00 0,00 0,00 0,00 5.176,02 570,19 476,25 0,00 1.046,44 4.129,58 3.457,61 298,66 31/01/2013
309 345100 BENITO ELIAS RODRIGUES ANALISTA DO MP ATIVO BARBACENA - COMARCA; BARBACENA-PJ-SECRETARIA 7.731,26 773,13 0,00 0,00 0,00 0,00 8.504,39 1.015,67 1.422,00 0,00 2.437,67 6.066,72 352,00 729,00 31/01/2013
310 207300 BENITO VIEIRA DOS SANTOS ANALISTA DO MP ATIVO BELO HORIZONTE - COMARCA; PROC JUST ESP ACOES COMP ORIG CRIMINAL-ASSESS 12.062,58 3.618,77 0,00 0,00 0,00 0,00 15.681,35 2.181,79 2.215,38 0,00 4.397,17 11.284,18 4.398,29 4.985,44 31/01/2013
311 120600 BERNADETE FIGUEIREDO SALVIANO OFICIAL DO MP ATIVO BELO HORIZONTE - COMARCA; AUDITORIA INTERNA 4.854,78 3.883,82 0,00 0,00 0,00 961,25 9.699,85 961,25 1.612,54 0,00 2.573,79 7.126,06 352,00 0,00 31/01/2013
312 480200 BERNADETE NUNES DOS SANTOS ANALISTA DO MP ATIVO GUANHÃES - COMARCA; GUANHAES-PJ-02PJ 5.176,02 0,00 0,00 0,00 0,00 0,00 5.176,02 574,81 476,25 0,00 1.051,06 4.124,96 352,00 86,59 31/01/2013
313 378400 BETANIA FARNESI DE SOUZA E SILVA OFICIAL DO MP ATIVO SETE LAGOAS - COMARCA; SETE LAGOAS-PJ-03PJ 4.553,46 910,69 0,00 0,00 0,00 0,00 5.464,15 606,33 499,48 0,00 1.105,81 4.358,34 3.802,68 378,65 31/01/2013
314 387400 BETANIA MENDONCA DE ASSIS ANALISTA DO MP ATIVO BELO HORIZONTE - COMARCA; BH-08PJ JUIZADO ESPECIAL-SECRETARIA 6.379,14 382,75 0,00 0,00 0,00 0,00 6.761,89 820,32 1.034,62 0,00 1.854,94 4.906,95 352,00 695,52 31/01/2013
315 450300 BIANCA OLIVEIRA DE ALBUQUERQUE ANALISTA DO MP ATIVO BELO HORIZONTE - COMARCA; BH-10PJ EXECUÇÃO PENAL-SECRETARIA 5.176,02 0,00 0,00 0,00 0,00 0,00 5.176,02 609,64 552,27 0,00 1.161,91 4.014,11 352,00 407,52 31/01/2013
316 120800 BRAS MARQUES DE SOUZA DIRETOR/ANALISTA ATIVO BELO HORIZONTE - COMARCA; EXTINTA - SUPERINTENDENCIA ADMINISTRATIVA-SAD 17.108,05 15.236,08 0,00 0,00 0,00 0,00 32.344,13 2.652,94 4.970,33 8.226,51 15.849,78 16.494,35 3.802,68 294,77 31/01/2013
317 460900 BRENO CRISTIANO DE SOUZA REZENDE ANALISTA DO MP ATIVO ITAÚNA - COMARCA; ITAUNA-PJ-02PJ 4.701,73 0,00 0,00 0,00 0,00 0,00 4.701,73 521,88 364,52 0,00 886,40 3.815,33 352,00 74,70 31/01/2013
318 239000 BRENO VENANCIO ROMANINI OFICIAL DO MP ATIVO BELO HORIZONTE - COMARCA; BH-20PJ ORD ECON TRIBUTARIA-SECRETARIA 4.854,78 970,96 0,00 0,00 0,00 0,00 5.825,74 640,83 635,27 0,00 1.276,10 4.549,64 352,00 0,00 31/01/2013
319 202200 BRIGITTE AMARALINA CALDAS MEDEIROS OFICIAL DO MP ATIVO NANUQUE - COMARCA; NANUQUE-PJ-02PJ 6.801,32 2.040,40 0,00 0,00 0,00 0,00 8.841,72 1.265,01 1.654,39 0,00 2.919,40 5.922,32 3.802,68 3.223,24 31/01/2013
320 513600 BRUNA KARLA MARTINS CARVALHO ANALISTA DO MP ATIVO GOVERNADOR VALADARES - COMARCA; GOVERNADOR VALADARES-PJ-01PJ 4.270,85 0,00 0,00 0,00 0,00 0,00 4.270,85 469,84 278,24 0,00 748,08 3.522,77 352,00 1,31 31/01/2013
321 415100 BRUNA MARIA SOARES OLIVEIRA COSTA RAMOS ANALISTA DO MP ATIVO UBÁ - COMARCA; COORD REG BACIA DO RIO PARAIBA DO SUL 6.379,14 382,75 0,00 0,00 0,00 0,00 6.761,89 913,24 1.041,05 0,00 1.954,29 4.807,60 352,00 1.715,42 31/01/2013
322 470000 BRUNA MORAES MARQUES ANALISTA DO MP ATIVO TOMBOS - COMARCA; TOMBOS-PJ-UNPJ 5.698,20 0,00 0,00 0,00 0,00 0,00 5.698,20 696,64 759,45 0,00 1.456,09 4.242,11 3.567,68 929,69 31/01/2013
323 463800 BRUNO ALVES TEIXEIRA ANALISTA DO MP ATIVO UBERLÂNDIA - COMARCA; UBERLANDIA-PJ-04PJ 5.698,20 0,00 0,00 0,00 0,00 0,00 5.698,20 626,80 604,06 0,00 1.230,86 4.467,34 389,33 3,42 31/01/2013
324 318200 BRUNO BARROS DE SOUZA OFICIAL DO MP ATIVO UBÁ - COMARCA; UBA-PJ-04PJ 5.344,58 534,46 0,00 0,00 1.959,68 0,00 7.838,72 646,69 889,99 0,00 1.536,68 6.302,04 352,00 0,00 31/01/2013
325 459600 BRUNO CASTELAR LUGAO MENDES OFICIAL DO MP ATIVO GOVERNADOR VALADARES - COMARCA; GOVERNADOR VALADARES-PJ-SECRETARIA 3.698,79 0,00 0,00 0,00 0,00 0,00 3.698,79 409,06 173,19 0,00 582,25 3.116,54 3.567,68 196,31 31/01/2013
326 427400 BRUNO CESAR RIBEIRO DE PAIVA ANALISTA DO MP ATIVO BELO HORIZONTE - COMARCA; ASSESS JUR DO CONS SUPERIOR DO MINISTERIO PUB 5.883,73 353,02 0,00 0,00 0,00 0,00 6.236,75 686,04 735,87 0,00 1.421,91 4.814,84 3.567,68 294,77 31/01/2013
327 490200 BRUNO CESARINO SOARES ANALISTA DO MP ATIVO BELO HORIZONTE - COMARCA; CENTRAL DE APOIO TECNICO-SETOR DE ENGENHARIA 5.003,49 0,00 0,00 0,00 0,00 0,00 5.003,49 573,72 476,25 0,00 1.049,97 3.953,52 352,00 414,29 31/01/2013
328 380900 BRUNO CIRILO ANTUNES OFICIAL DO MP ATIVO VARGINHA - COMARCA; VARGINHA-PJ-05PJ 3.469,26 208,16 0,00 0,00 0,00 0,00 3.677,42 407,90 170,34 0,00 578,24 3.099,18 352,00 54,26 31/01/2013
329 329000 BRUNO DE MELO REIS ANALISTA DO MP ATIVO PATROCÍNIO - COMARCA; PATROCINIO-PJ-02PJ 7.982,93 1.596,59 0,00 0,00 0,00 0,00 9.579,52 1.053,75 1.554,01 0,00 2.607,76 6.971,76 3.567,68 294,77 31/01/2013
330 378300 BRUNO HERDY LOPES DE OLIVEIRA ANALISTA DO MP ATIVO MANTENA - COMARCA; MANTENA-PJ-SECRETARIA 6.379,14 382,75 0,00 0,00 0,00 0,00 6.761,89 743,81 864,39 0,00 1.608,20 5.153,69 352,00 0,00 31/01/2013
331 350100 BRUNO LAUD SERRANO DOS REIS OFICIAL DO MP ATIVO UBÁ - COMARCA; UBA-PJ-04PJ 4.553,46 910,69 0,00 0,00 0,00 0,00 5.464,15 605,61 452,19 0,00 1.057,80 4.406,35 3.802,68 367,36 31/01/2013
332 373800 BRUNO MARTINO DE ALBUQUERQUE ANALISTA DO MP ATIVO PONTE NOVA - COMARCA; PONTE NOVA-PJ-SECRETARIA 6.379,14 382,75 0,00 0,00 2.253,96 0,00 9.015,85 820,32 1.559,88 0,00 2.380,20 6.635,65 587,00 695,52 31/01/2013
333 470400 BRUNO NOVAIS CABRAL ANALISTA DO MP ATIVO RESPLENDOR - COMARCA; RESPLENDOR-PJ-UNPJ 5.698,20 0,00 0,00 0,00 0,00 0,00 5.698,20 795,29 779,73 0,00 1.575,02 4.123,18 352,00 1.705,79 31/01/2013
334 369200 BRUNO ROBERTO DIAS DE OLIVEIRA OFICIAL DO MP ATIVO BELO HORIZONTE - COMARCA; BH-23PJ CIVEL-SETOR JURIDICO 4.701,73 470,17 0,00 0,00 0,00 0,00 5.171,90 568,91 475,24 0,00 1.044,15 4.127,75 3.567,68 294,77 31/01/2013
335 438200 BRUNO SALES PEREIRA ANALISTA DO MP ATIVO BELO HORIZONTE - COMARCA; CENTRAL DE APOIO TECNICO-SETOR CONTABIL 5.883,73 353,02 0,00 0,00 2.078,92 0,00 8.315,67 692,09 1.307,57 0,00 1.999,66 6.316,01 2.846,70 324,55 31/01/2013
336 405800 CAIO FERNANDO RODRIGUES DE OLIVEIRA ANALISTA DO MP ATIVO BELO HORIZONTE - COMARCA; ASSESS TECNICO-JUR JUNTO AS PROC. DE JUST 6.379,14 382,75 0,00 0,00 0,00 0,00 6.761,89 743,81 864,39 0,00 1.608,20 5.153,69 352,00 0,00 31/01/2013
337 491400 CAIO MIRANDA JUNQUEIRA ANALISTA DO MP ATIVO BUENO BRANDAO - COMARCA; BUENO BRANDAO-PJ-UNPJ 4.701,73 0,00 0,00 0,00 1.567,24 0,00 6.268,97 520,57 791,16 0,00 1.311,73 4.957,24 587,00 54,19 31/01/2013
338 415800 CAMILA ALVES DA SILVA ANALISTA DO MP ATIVO CAETÉ - COMARCA; CAETE-PJ-01PJ 6.379,14 382,75 0,00 0,00 0,00 0,00 6.761,89 911,32 1.041,05 0,00 1.952,37 4.809,52 3.567,68 1.992,69 31/01/2013
339 445200 CAMILA CONDE ROCHA ANALISTA DO MP ATIVO CONTAGEM - COMARCA; CONTAGEM-PJ-10PJ 5.883,73 353,02 0,00 0,00 0,00 0,00 6.236,75 686,04 735,87 0,00 1.421,91 4.814,84 696,79 31,61 31/01/2013
340 419900 CAMILA CUNNINGHAM PIMENTA DE PADUA ANALISTA DO MP ATIVO BELO HORIZONTE - COMARCA; ASSESSORIA PSICOSSOCIAL 6.379,14 382,75 0,00 0,00 0,00 0,00 6.761,89 878,59 992,92 0,00 1.871,51 4.890,38 352,00 1.225,31 31/01/2013
341 507700 CAMILA ELIZABETH RODRIGUES ANALISTA DO MP ATIVO BELO HORIZONTE - COMARCA; BH-02PJ FAMILIA 5.176,02 0,00 0,00 0,00 0,00 0,00 5.176,02 569,60 476,25 0,00 1.045,85 4.130,17 3.457,61 289,60 31/01/2013
342 372700 CAMILA FONSECA LIMONGE ANALISTA DO MP ATIVO BETIM - COMARCA; BETIM-PJ-01PJ 6.379,14 382,75 0,00 0,00 0,00 0,00 6.761,89 743,81 864,39 0,00 1.608,20 5.153,69 352,00 0,00 31/01/2013
343 409800 CAMILA GONCALVES COSTA RIBEIRO ANALISTA DO MP ATIVO INHAPIM - COMARCA; INHAPIM-PJ-02PJ 6.379,14 382,75 0,00 0,00 0,00 0,00 6.761,89 743,81 864,39 0,00 1.608,20 5.153,69 352,00 0,00 31/01/2013
344 335000 CAMILA GONTIJO DE PAIVA ANALISTA DO MP ATIVO BELO HORIZONTE - COMARCA; COORD DE CONTROLE CONSTITUCIONALIDADE 7.487,46 748,75 0,00 0,00 2.745,40 0,00 10.981,61 905,98 1.932,93 0,00 2.838,91 8.142,70 352,00 0,00 31/01/2013
345 430000 CANDIDA MARINA COSTA ANALISTA DO MP ATIVO BELO HORIZONTE - COMARCA; DIVISAO DE DOCUMENTACAO JURIDICA 5.883,73 353,02 0,00 0,00 0,00 0,00 6.236,75 686,04 735,87 0,00 1.421,91 4.814,84 352,00 0,00 31/01/2013
346 380400 CARINA DIAS FACANHA DE SOUZA ANALISTA DO MP ATIVO SANTA RITA DO SAPUCAÍ - COMARCA; SANTA RITA DO SAPUCAI-PJ-SECRETARIA 5.883,73 353,02 0,00 0,00 2.078,92 0,00 8.315,67 686,04 1.307,57 0,00 1.993,61 6.322,06 352,00 0,00 31/01/2013
347 255000 CARLA ADRIANA DE MENEZES ASSESSOR/OFICIAL ATIVO BELO HORIZONTE - COMARCA; CENT DE APOIO TEC-SETOR DEF,IDOSO E INFANC 0,00 1.176,75 5.883,73 0,00 0,00 0,00 7.060,48 705,49 957,04 0,00 1.662,53 5.397,95 352,00 0,00 31/01/2013
348 425100 CARLA ADRIANA DINIZ AMARAL OFICIAL DO MP ATIVO CONTAGEM - COMARCA; CONTAGEM-PJ-08PJ 3.757,11 225,43 0,00 0,00 0,00 0,00 3.982,54 441,50 220,50 0,00 662,00 3.320,54 352,00 54,83 31/01/2013
349 508100 CARLA ALESSANDRA FONSECA ANALISTA DO MP ATIVO BELO HORIZONTE - COMARCA; CAO-ORDEM ECONOMICA E TRIBUTARIA-SECRETARIA 5.176,02 0,00 0,00 0,00 0,00 0,00 5.176,02 569,46 476,25 0,00 1.045,71 4.130,31 3.567,68 297,39 31/01/2013
350 351500 CARLA APARECIDA MENDES RAMIRIO OFICIAL DO MP ATIVO PASSOS - COMARCA; PASSOS-PJ-07PJ 4.701,73 470,17 0,00 0,00 0,00 0,00 5.171,90 568,93 427,95 0,00 996,88 4.175,02 2.292,26 157,00 31/01/2013
351 206200 CARLA BORGES DA COSTA COORDENADOR/ANALISTA ATIVO BELO HORIZONTE - COMARCA; DIVIS DE PROJETOS DE ENGENHARIA E ARQUITETURA 12.062,58 6.527,27 0,00 0,00 0,00 0,00 18.589,85 2.349,61 4.175,66 0,00 6.525,27 12.064,58 352,00 4.472,55 31/01/2013
352 442800 CARLA GONCALVES COSTA SOALHEIRO ANALISTA DO MP ATIVO GOVERNADOR VALADARES - COMARCA; GOVERNADOR VALADARES-PJ-11PJ 5.883,73 353,02 0,00 0,00 0,00 0,00 6.236,75 686,04 735,87 0,00 1.421,91 4.814,84 587,00 0,00 31/01/2013
353 321500 CARLA GONCALVES MASSOTE OFICIAL DO MP ATIVO CAMPO BELO - COMARCA; CAMPO BELO-PJ-01PJ 5.344,58 534,46 0,00 0,00 0,00 0,00 5.879,04 646,69 648,32 0,00 1.295,01 4.584,03 352,00 0,00 31/01/2013
354 429200 CARLA HAUTEQUESTT BECHARA ANALISTA DO MP ATIVO BELO HORIZONTE - COMARCA; DIVISAO DE DOCUMENTACAO JURIDICA 5.883,73 353,02 0,00 0,00 2.078,92 0,00 8.315,67 686,04 1.307,57 0,00 1.993,61 6.322,06 352,00 0,00 31/01/2013
355 247500 CARLA MATILDE GUIMARAES DE OLIVEIRA OFICIAL DO MP ATIVO ITAJUBA - COMARCA; ITAJUBA-PJ-03PJ 5.176,02 1.035,20 0,00 0,00 2.070,41 0,00 8.281,63 683,23 1.298,98 0,00 1.982,21 6.299,42 352,00 0,00 31/01/2013
356 226100 CARLA MERLI DA CONCEICAO ANALISTA DO MP ATIVO BELO HORIZONTE - COMARCA; CENTRAL DE APOIO TECNICO-SETOR CONTABIL 10.315,17 2.063,03 0,00 0,00 0,00 0,00 12.378,20 1.361,60 2.191,69 0,00 3.553,29 8.824,91 3.567,68 294,77 31/01/2013
357 330400 CARLA SILVEIRA CASTEJON PINHEIRO OFICIAL DO MP ATIVO PATOS DE MINAS - COMARCA; PATOS DE MINAS-PJ-06PJ 5.176,02 517,60 0,00 0,00 0,00 0,00 5.693,62 631,72 602,93 0,00 1.234,65 4.458,97 587,00 86,15 31/01/2013
358 181401 CARLO MICHEL GAUDENSI COELHO ANALISTA DO MP ATIVO IBIRITÉ - COMARCA; IBIRITE-PJ-01PJ 5.883,73 1.176,75 0,00 0,00 0,00 0,00 7.060,48 776,65 937,47 0,00 1.714,12 5.346,36 352,00 0,00 31/01/2013
359 375800 CARLOS ALBERTO ROCHA OFICIAL DO MP ATIVO VARGINHA - COMARCA; VARGINHA-PJ-07PJ 4.553,46 273,21 0,00 0,00 1.608,89 0,00 6.435,56 536,12 833,19 0,00 1.369,31 5.066,25 352,00 82,60 31/01/2013
360 462800 CARLOS ANDREI SOARES FAGUNDES ANALISTA DO MP ATIVO MONTES CLAROS - COMARCA; MONTES CLAROS-PJ-09PJ 5.698,20 0,00 0,00 0,00 0,00 0,00 5.698,20 632,35 604,06 0,00 1.236,41 4.461,79 3.567,68 382,96 31/01/2013
361 370300 CARLOS AUGUSTO BUENO DIAS ASSESSOR ATIVO BELO HORIZONTE - COMARCA; DIRETORIA DE FISCALIZACAO DE OBRAS 0,00 0,00 7.487,46 0,00 0,00 0,00 7.487,46 457,49 524,95 0,00 982,44 6.505,02 352,00 0,00 31/01/2013
362 505100 CARLOS CEZAR CARVALHO ANALISTA DO MP ATIVO RIBEIRÃO DAS NEVES - COMARCA; RIBEIRAO DAS NEVES-PJ-SEC CIVEL 4.270,85 1.281,26 0,00 0,00 0,00 0,00 5.552,11 705,34 672,83 0,00 1.378,17 4.173,94 352,00 865,49 31/01/2013
363 195900 CARLOS DE SOUZA FERREIRA OFICIAL DO MP ATIVO COROMANDEL - COMARCA; COROMANDEL-PJ-01PJ 6.177,98 3.088,99 0,00 0,00 0,00 0,00 9.266,97 1.256,85 1.559,07 0,00 2.815,92 6.451,05 352,00 2.159,01 31/01/2013
364 196800 CARLOS EDUARDO DE OLIVEIRA MARINHO OFICIAL DO MP ATIVO PASSOS - COMARCA; PASSOS-PJ-SECRETARIA 7.731,26 3.092,51 0,00 0,00 0,00 0,00 10.823,77 1.190,61 1.811,25 0,00 3.001,86 7.821,91 3.802,68 294,77 31/01/2013
365 491800 CARLOS EDUARDO ROMAN OFICIAL DO MP ATIVO BARBACENA - COMARCA; BARBACENA-PJ-01PJ 3.359,85 335,99 0,00 0,00 0,00 0,00 3.695,84 446,41 232,87 0,00 679,28 3.016,56 352,00 373,70 31/01/2013
366 299300 CARLOS HENRIQUE BICALHO ANALISTA DO MP ATIVO BELO HORIZONTE - COMARCA; BH-17PJ PATRIMONIO PUBLICO-SECRETARIA 8.788,36 1.757,67 0,00 0,00 0,00 0,00 10.546,03 1.160,06 1.790,56 0,00 2.950,62 7.595,41 352,00 0,00 31/01/2013
367 205100 CARLOS HENRIQUE ESTEVES OFICIAL DO MP ATIVO ITAMBACURI - COMARCA; ITAMBACURI-PJ-01PJ 7.731,26 1.546,25 0,00 0,00 0,00 0,00 9.277,51 1.195,47 1.869,34 0,00 3.064,81 6.212,70 352,00 1.590,40 31/01/2013
368 351600 CARLOS HENRIQUE FELICIO DA FONSECA OFICIAL DO MP ATIVO LIMA DUARTE - COMARCA; LIMA DUARTE-PJ-UNPJ 4.553,46 910,69 0,00 0,00 1.821,38 0,00 7.285,53 604,95 1.047,65 0,00 1.652,60 5.632,93 352,00 62,23 31/01/2013
369 85400 CARLOS JOSE VIEIRA OFICIAL DO MP ATIVO BELO HORIZONTE - COMARCA; DIR EXECUTIVA DO CONS SUPERIOR DO MP 17.108,05 8.554,03 0,00 0,00 0,00 0,00 25.662,08 2.652,94 5.112,21 1.544,46 9.309,61 16.352,47 3.567,68 294,77 31/01/2013
370 229100 CARLOS MERCES DE OLIVEIRA ANALISTA DO MP ATIVO BELO HORIZONTE - COMARCA; CENTRAL DE APOIO TECN-SETOR DE MEIO AMBIENTE 10.315,17 2.063,03 0,00 0,00 0,00 0,00 12.378,20 1.735,94 1.914,77 0,00 3.650,71 8.727,49 352,00 3.781,27 31/01/2013
371 265100 CARLOS REIFF MIRANDA ANALISTA DO MP ATIVO BELO HORIZONTE - COMARCA; BH-19PJ SAUDE-ASS TECNICA 7.982,93 798,29 0,00 0,00 0,00 0,00 8.781,22 965,93 1.358,62 0,00 2.324,55 6.456,67 352,00 0,00 31/01/2013
372 305400 CARLOS ROCHA DE SOUZA OFICIAL DO MP ATIVO MONTALVÂNIA - COMARCA; MONTALVANIA-PJ-SECRETARIA 4.409,86 440,99 0,00 0,00 0,00 0,00 4.850,85 538,78 396,67 0,00 935,45 3.915,40 4.061,11 377,26 31/01/2013
373 349200 CARLOS WAGNER MELO FRANCO OFICIAL DO MP ATIVO PITANGUI - COMARCA; PITANGUI-PJ-01PJ 3.582,21 214,93 0,00 0,00 0,00 0,00 3.797,14 421,35 160,52 0,00 581,87 3.215,27 850,68 58,61 31/01/2013
374 365100 CARLOS WAGNER SANDER MORAIS ASSESSOR/OFICIAL ATIVO BELO HORIZONTE - COMARCA; DIRETORIA DE ADMINISTRACAO FINANCEIRA 0,00 748,75 7.487,46 0,00 0,00 0,00 8.236,21 550,97 1.322,86 0,00 1.873,83 6.362,38 3.567,68 294,77 31/01/2013
375 399900 CARMELITA EVANGELISTA DE SOUZA OFICIAL DO MP ATIVO JOÃO PINHEIRO - COMARCA; JOAO PINHEIRO-PJ-01PJ 3.469,26 208,16 0,00 0,00 0,00 0,00 3.677,42 407,84 170,34 0,00 578,18 3.099,24 352,00 53,38 31/01/2013
376 390400 CARMEM APARECIDA ANTUNES RESENDE OFICIAL DO MP ATIVO IGARAPÉ - COMARCA; IGARAPE-PJ-SECRETARIA 4.136,15 3.308,93 0,00 0,00 0,00 0,00 7.445,08 818,96 1.031,60 0,00 1.850,56 5.594,52 3.567,68 294,77 31/01/2013
377 202000 CARMEN LUCIA MARIZ DE MACEDO OFICIAL DO MP ATIVO BELO HORIZONTE - COMARCA; COORD COMB REPRES TRAFICO ILICITO ENTORPECEN 7.487,46 2.994,99 0,00 0,00 3.494,15 0,00 13.976,60 1.153,07 2.735,89 0,00 3.888,96 10.087,64 678,74 29,95 31/01/2013
378 228500 CAROLINA CHIARELLA DOS SANTOS RIBEIRO OFICIAL DO MP ATIVO BELO HORIZONTE - COMARCA; BH-13ª PJ JUÍXO DE TÓXICOS 4.409,86 881,97 0,00 0,00 0,00 0,00 5.291,83 587,94 457,30 0,00 1.045,24 4.246,59 822,00 92,57 31/01/2013
379 446500 CAROLINA COSTA VAL RODRIGUES ANALISTA DO MP ATIVO CONTAGEM - COMARCA; CONTAGEM-PJ-05PJ 5.883,73 588,37 0,00 0,00 0,00 0,00 6.472,10 768,06 862,12 0,00 1.630,18 4.841,92 3.567,68 873,01 31/01/2013
380 404300 CAROLINA DOS SANTOS VIEIRA ANALISTA DO MP ATIVO BELO HORIZONTE - COMARCA; BH-08PJ JUIZADO ESPECIAL-SECRETARIA 6.379,14 382,75 0,00 0,00 2.253,96 0,00 9.015,85 743,81 1.484,23 0,00 2.228,04 6.787,81 822,00 0,00 31/01/2013
381 426600 CAROLINA GUEDES PEREIRA ANALISTA DO MP ATIVO BELO HORIZONTE - COMARCA; ASSESS JUR DO CONS SUPERIOR DO MINISTERIO PUB 5.883,73 353,02 0,00 0,00 0,00 0,00 6.236,75 838,94 1.076,06 0,00 1.915,00 4.321,75 352,00 1.389,96 31/01/2013
382 382200 CAROLINA MENDES CHAVES LIN ANALISTA DO MP ATIVO BELO HORIZONTE - COMARCA; SUPERINTENDENCIA GESTÃO DE PESSOAS 5.344,58 320,67 0,00 0,00 0,00 0,00 5.665,25 629,48 595,99 0,00 1.225,47 4.439,78 0,00 99,86 31/01/2013
383 461900 CAROLINA MURTA TEIXEIRA DIAS ANALISTA DO MP ATIVO BELO HORIZONTE - COMARCA; DIRET DE FORMACAO, APERFEIC. E POS-GRADUACAO 5.698,20 0,00 0,00 0,00 1.899,40 0,00 7.597,60 632,83 1.126,39 0,00 1.759,22 5.838,38 3.567,68 390,30 31/01/2013
384 509600 CAROLINA PINTO DE OLIVEIRA SOUZA ANALISTA DO MP ATIVO MURIAÉ - COMARCA; MURIAE-PJ-03PJ 4.701,73 0,00 0,00 0,00 0,00 0,00 4.701,73 517,27 364,52 0,00 881,79 3.819,94 587,00 2,09 31/01/2013
385 502600 CAROLINA RODRIGUES RUBEN ANALISTA DO MP ATIVO BELO HORIZONTE - COMARCA; BH-18PJ VIOLENCIA DOMESTICA-SECRETARIA 4.701,73 0,00 0,00 0,00 0,00 0,00 4.701,73 517,77 364,52 0,00 882,29 3.819,44 352,00 10,12 31/01/2013
386 517600 CAROLINE ALVES DE OLIVEIRA MULLER ANALISTA DO MP ATIVO ERVÁLIA - COMARCA; ERVALIA-PJ-SECRETARIA 5.012,79 0,00 0,00 0,00 0,00 0,00 5.012,79 551,43 436,30 0,00 987,73 4.025,06 587,00 0,44 31/01/2013
387 373200 CAROLINE ANTUNES RIBEIRO OFICIAL DO MP ATIVO JACUI - COMARCA; JACUI-PJ-UNPJ 4.553,46 273,21 0,00 0,00 0,00 0,00 4.826,67 534,73 390,75 0,00 925,48 3.901,19 587,00 60,82 31/01/2013
388 497800 CAROLINE BATISTA MARTINS OFICIAL DO MP ATIVO RIBEIRÃO DAS NEVES - COMARCA; RIBEIRAO DAS NEVES-PJ-04PJ 3.359,85 0,00 0,00 0,00 0,00 0,00 3.359,85 369,70 127,94 0,00 497,64 2.862,21 352,00 3,03 31/01/2013
389 499400 CAROLINE MARQUES DE LOURDES MARZULLO OFICIAL DO MP ATIVO JUIZ DE FORA - COMARCA; JUIZ DE FORA-PJ-20PJ 3.051,96 0,00 0,00 0,00 0,00 0,00 3.051,96 335,81 86,84 0,00 422,65 2.629,31 2.183,18 93,95 31/01/2013
390 268800 CASSIA BEATRIZ TEIXEIRA OFICIAL DO MP ATIVO BELO HORIZONTE - COMARCA; PROC JUST ESP ACOES COMP ORIG CRIMINAL-SEC 5.883,73 588,37 0,00 0,00 0,00 0,00 6.472,10 711,93 793,47 0,00 1.505,40 4.966,70 352,00 0,00 31/01/2013
391 500000 CASSIA DE OLIVEIRA COSTA VIANA ANALISTA DO MP ATIVO SETE LAGOAS - COMARCA; SETE LAGOAS-PJ-01PJ 5.176,02 0,00 0,00 0,00 0,00 0,00 5.176,02 571,04 476,25 0,00 1.047,29 4.128,73 352,00 27,49 31/01/2013
392 368800 CASSIA LUISA BATISTA MENDONCA WEBER OFICIAL DO MP ATIVO BELO HORIZONTE - COMARCA; PROCON-MG-SEC DE EDUCACAO PARA O CONSUMO 3.879,42 387,94 0,00 0,00 0,00 0,00 4.267,36 473,75 277,54 0,00 751,29 3.516,07 587,00 69,34 31/01/2013
393 121000 CASSIO HENRIQUE AFONSO DA SILVA COORDENADOR/OFICIAL ATIVO BELO HORIZONTE - COMARCA; DIVISAO DE ATENDIMENTO E CONSULTA JURIDICA 8.788,36 6.436,87 0,00 0,00 0,00 0,00 15.225,23 1.450,08 2.903,00 0,00 4.353,08 10.872,15 4.037,68 294,77 31/01/2013
394 121100 CASSIO MOREIRA DE MIRANDA AGENTE DO MP ATIVO BELO HORIZONTE - COMARCA; PROCON-MG-SECRETARIA DE FISCALIZACOES 3.151,29 2.205,91 0,00 0,00 0,00 0,00 5.357,20 589,29 60,41 0,00 649,70 4.707,50 3.567,68 80,39 31/01/2013
395 512000 CATARINA NATALINO CALIXTO OFICIAL DO MP ATIVO BELO HORIZONTE - COMARCA; EXTINTA - DIVISÃO DE COMPRAS 2.772,23 0,00 0,00 0,00 924,08 0,00 3.696,31 304,99 188,10 0,00 493,09 3.203,22 2.015,34 42,59 31/01/2013
396 71800 CATIA EFIGENIA CARNEIRO DE FREITAS OFICIAL DO MP ATIVO BELO HORIZONTE - COMARCA; ASSESSORIA JURIDICO-ADMINISTRATIVA 19.713,97 13.799,78 0,00 0,00 0,00 0,00 33.513,75 2.652,94 5.064,92 9.396,13 17.113,99 16.399,76 352,00 0,00 31/01/2013
397 261300 CECILIO ANTONIO CAMPOS DOS REIS ANALISTA DO MP ATIVO BELO HORIZONTE - COMARCA; CENTRAL DE APOIO TECNICO-SETOR CONTABIL 9.074,45 1.814,89 0,00 0,00 0,00 0,00 10.889,34 1.197,83 2.016,49 0,00 3.214,32 7.675,02 352,00 516,00 31/01/2013
398 386400 CEFAS AMORELI DE FIGUEIREDO OFICIAL DO MP ATIVO CABO VERDE - COMARCA; CABO VERDE-PJ-SECRETARIA 3.469,26 208,16 0,00 0,00 0,00 0,00 3.677,42 407,47 170,34 0,00 577,81 3.099,61 352,00 47,54 31/01/2013
399 149000 CELIA MAGALHAES CLAROS SOSSI OFICIAL DO MP ATIVO GOVERNADOR VALADARES - COMARCA; GOVERNADOR VALADARES-PJ-01PJ 7.982,93 3.193,17 0,00 0,00 3.725,37 0,00 14.901,47 1.229,37 2.969,25 0,00 4.198,62 10.702,85 352,00 0,00 31/01/2013
400 113100 CELIA MARIA ALVES PINTO OFICIAL DO MP ATIVO BELO HORIZONTE - COMARCA; PROCON-MG-SEC DE EDUCACAO PARA O CONSUMO 5.883,73 4.118,61 0,00 0,00 0,00 0,00 10.002,34 1.100,26 1.657,49 0,00 2.757,75 7.244,59 3.567,68 294,77 31/01/2013
401 421000 CELINA BENEDITA DE SOUZA ALMEIDA OFICIAL DO MP ATIVO CAMBUÍ - COMARCA; CAMBUI-PJ-01PJ 4.136,15 1.654,47 0,00 0,00 0,00 0,00 5.790,62 793,29 709,26 0,00 1.502,55 4.288,07 352,00 1.452,35 31/01/2013
402 252900 CELIO DE MELO CASTOR ANALISTA DO MP ATIVO BELO HORIZONTE - COMARCA; BH-20PJ ORD ECON TRIBUTARIA-SECRETARIA 9.074,45 1.814,89 0,00 0,00 0,00 0,00 10.889,34 1.197,83 1.827,29 0,00 3.025,12 7.864,22 352,00 0,00 31/01/2013
403 395700 CELIO FERREIRA LIMA OFICIAL DO MP ATIVO CONTAGEM - COMARCA; CONTAGEM-PJ-07PJ 3.757,11 225,43 0,00 0,00 0,00 0,00 3.982,54 440,82 185,27 0,00 626,09 3.356,45 587,00 44,31 31/01/2013
404 281300 CELMA REGINA PEREIRA SANTOS ANALISTA DO MP ATIVO BELO HORIZONTE - COMARCA; DIVISAO DE ACERVOS BIBLIOGRAFICOS 8.788,36 878,84 0,00 0,00 0,00 0,00 9.667,20 1.063,39 1.575,47 0,00 2.638,86 7.028,34 352,00 0,00 31/01/2013
405 367000 CESAR NARVAES DE AVELAR OFICIAL DO MP ATIVO BELO HORIZONTE - COMARCA; DIVISAO DE MEMORIA INSTITUCIONAL 4.701,73 470,17 0,00 0,00 0,00 0,00 5.171,90 568,91 475,24 0,00 1.044,15 4.127,75 352,00 0,00 31/01/2013
406 226500 CESAR SILVEIRA BARROUIN OFICIAL DO MP ATIVO BELO HORIZONTE - COMARCA; DIRETORIA DE ADMINISTRACAO FINANCEIRA 6.177,98 1.853,39 0,00 0,00 0,00 0,00 8.031,37 1.089,02 1.338,92 0,00 2.427,94 5.603,43 352,00 1.868,81 31/01/2013
407 121400 CEZAR MORENO CONCEICAO TAVARES OFICIAL DO MP ATIVO BELO HORIZONTE - COMARCA; BH-15PJ M AMB 16PJ HAB URB-SECRETARIA 7.982,93 3.991,47 0,00 0,00 3.991,47 0,00 15.965,87 1.317,18 3.237,81 0,00 4.554,99 11.410,88 3.567,68 294,77 31/01/2013
408 243800 CHARLES MARTINS MUNIZ OFICIAL DO MP ATIVO BELO HORIZONTE - COMARCA; GAECO - SECRETARIA 5.176,02 1.035,20 0,00 0,00 0,00 0,00 6.211,22 683,23 729,62 0,00 1.412,85 4.798,37 3.567,68 294,77 31/01/2013
409 193500 CHARLIN CESAR KOURLY OFICIAL DO MP ATIVO ITUIUTABA - COMARCA; ITUIUTABA-PJ-SECRETARIA 7.731,26 1.546,25 0,00 0,00 0,00 0,00 9.277,51 1.021,24 1.480,09 0,00 2.501,33 6.776,18 352,00 12,50 31/01/2013
410 385500 CHILLEN PEIXOTO DE MOURA OFICIAL DO MP ATIVO RIBEIRÃO DAS NEVES - COMARCA; RIBEIRAO DAS NEVES-PJ-SEC CIVEL 3.469,26 208,16 0,00 0,00 0,00 0,00 3.677,42 428,26 197,27 0,00 625,53 3.051,89 352,00 236,52 31/01/2013
411 370600 CHRISTIAN KARINE FELIX PRATES ASSESSOR ATIVO BELO HORIZONTE - COMARCA; PROCURADOR-GERAL DE JUSTICA- GABINETE 0,00 0,00 5.883,73 0,00 0,00 0,00 5.883,73 457,49 701,64 0,00 1.159,13 4.724,60 587,00 70,84 31/01/2013
412 435800 CHRISTIANA BAHIA ANDRADE PINA ANALISTA DO MP ATIVO BELO HORIZONTE - COMARCA; CAO-ORDEM ECONOMICA E TRIBUTARIA 5.883,73 353,02 0,00 0,00 0,00 0,00 6.236,75 686,04 735,87 0,00 1.421,91 4.814,84 587,00 0,00 31/01/2013
413 516800 CHRISTIANE FERREIRA DO NASCIMENTO ANALISTA DO MP ATIVO ESTRELA DO SUL - COMARCA; ESTRELA DO SUL-PJ-UNPJ 4.136,15 0,00 0,00 0,00 0,00 0,00 4.136,15 454,98 251,26 0,00 706,24 3.429,91 352,00 0,00 31/01/2013
414 176000 CHRISTIANE JUNQUEIRA PULITI ANDRADE DE BARROS ASSESSOR ATIVO BELO HORIZONTE - COMARCA; GABINETE DO PROCURADOR-GERAL DE JUSTICA 0,00 4.837,47 9.674,93 0,00 0,00 0,00 14.512,40 1.596,36 2.714,04 0,00 4.310,40 10.202,00 3.567,68 294,77 31/01/2013
415 319200 CHRISTIANE MARIA DE ASSIS RUSSO OFICIAL DO MP ATIVO BELO HORIZONTE - COMARCA; CAO-ORDEM ECONOMICA E TRIBUTARIA-SECRETARIA 5.344,58 534,46 0,00 0,00 0,00 0,00 5.879,04 646,69 648,32 0,00 1.295,01 4.584,03 587,00 0,00 31/01/2013
416 510300 CHRISTIANE MARY DE CARVALHO FERREIRA ANALISTA DO MP ATIVO BELO HORIZONTE - COMARCA; DIRETORIA DE SISTEMAS DE INFORMACAO 4.136,15 0,00 0,00 0,00 0,00 0,00 4.136,15 455,06 251,26 0,00 706,32 3.429,83 587,00 2,00 31/01/2013
417 424900 CHRISTIANE PEREIRA TURNER DE ARAUJO OFICIAL DO MP ATIVO BELO HORIZONTE - COMARCA; CAO-PATRIMONIO PUBLICO 3.757,11 225,43 0,00 0,00 0,00 0,00 3.982,54 441,07 220,50 0,00 661,57 3.320,97 352,00 48,18 31/01/2013
418 513700 CHRISTIANE VIEIRA SOARES PEDERSOLI ANALISTA DO MP ATIVO BELO HORIZONTE - COMARCA; EXTINTA - SECRETARIA ADMINISTRATIVA 5.176,02 0,00 0,00 0,00 0,00 0,00 5.176,02 611,30 531,16 0,00 1.142,46 4.033,56 352,00 436,04 31/01/2013
419 412300 CHRYSTIAN MACHADO RIBEIRO ANALISTA DO MP ATIVO VARGINHA - COMARCA; VARGINHA-PJ-04PJ 6.379,14 382,75 0,00 0,00 0,00 0,00 6.761,89 743,81 864,39 0,00 1.608,20 5.153,69 3.567,68 294,77 31/01/2013
420 513800 CHRYSTIANE DO NASCIMENTO DE MAGALHAES OFICIAL DO MP ATIVO UBERLÂNDIA - COMARCA; UBERLANDIA-PJ-10PJ 2.772,23 0,00 0,00 0,00 0,00 0,00 2.772,23 387,73 130,97 0,00 518,70 2.253,53 587,00 811,43 31/01/2013
421 497900 CIBELE DE FREITAS SANCHES DIAS ANALISTA DO MP ATIVO SABARÁ - COMARCA; SABARA-PJ-03PJ 4.701,73 0,00 0,00 0,00 0,00 0,00 4.701,73 518,83 364,52 0,00 883,35 3.818,38 2.044,62 153,77 31/01/2013
422 500900 CIBELLE SILVA PRADO ALVARENGA ANALISTA DO MP ATIVO ITANHANDU - COMARCA; ITANHANDU-PJ-UNPJ 4.701,73 0,00 0,00 0,00 0,00 0,00 4.701,73 518,64 364,52 0,00 883,16 3.818,57 352,00 23,84 31/01/2013
423 296400 CINTIA APARECIDA MOREIRA NAVES E RODRIGUES ANALISTA DO MP ATIVO CAMPO BELO - COMARCA; CAMPO BELO-PJ-04PJ 8.788,36 878,84 0,00 0,00 0,00 0,00 9.667,20 1.063,39 1.575,47 0,00 2.638,86 7.028,34 352,00 0,00 31/01/2013
424 407900 CINTIA NETO COMELLI ANALISTA DO MP ATIVO BELO HORIZONTE - COMARCA; CENTRAL DE APOIO TECNICO-SETOR CONTABIL 6.379,14 382,75 0,00 0,00 0,00 0,00 6.761,89 743,81 864,39 0,00 1.608,20 5.153,69 352,00 0,00 31/01/2013
425 304700 CINTIA QUEIROZ OFICIAL DO MP ATIVO BELO HORIZONTE - COMARCA; BH-17PJ PATRIMONIO PUBLICO 5.344,58 534,46 0,00 0,00 0,00 0,00 5.879,04 646,69 648,32 0,00 1.295,01 4.584,03 352,00 0,00 31/01/2013
426 286100 CIRO CANGUSSU CORDEIRO OFICIAL DO MP ATIVO IPATINGA - COMARCA; IPATINGA-PJ-09PJ 4.409,86 440,99 0,00 0,00 0,00 0,00 4.850,85 538,73 396,67 0,00 935,40 3.915,45 352,00 81,83 31/01/2013
427 412500 CLARICE GOMES MAROTTA ANALISTA DO MP ATIVO BELO HORIZONTE - COMARCA; ASSESS TECNICO-JUR JUNTO AS PROC. DE JUST 6.379,14 1.275,83 0,00 0,00 0,00 0,00 7.654,97 842,05 1.082,97 0,00 1.925,02 5.729,95 3.413,99 280,68 31/01/2013
428 308100 CLARISSA DUARTE MARTINS DIRETOR/ANALISTA ATIVO BELO HORIZONTE - COMARCA; SUPERINTENDENCIA GESTÃO DE PESSOAS 0,00 1.254,01 12.540,10 0,00 0,00 0,00 13.794,11 1.063,39 2.710,37 0,00 3.773,76 10.020,35 3.567,68 294,77 31/01/2013
429 497100 CLARISSA ROCHA GUIDI ANALISTA DO MP ATIVO BELO HORIZONTE - COMARCA; EXTINTA - JUIZO DE FAMILIA-02 PJ-02 VARA 5.176,02 0,00 0,00 0,00 0,00 0,00 5.176,02 571,16 476,25 0,00 1.047,41 4.128,61 352,00 29,28 31/01/2013
430 463700 CLAUDIA ADRIANA FERRAO DIAS ANALISTA DO MP ATIVO SETE LAGOAS - COMARCA; SETE LAGOAS-PJ-06PJ 4.270,85 0,00 0,00 0,00 0,00 0,00 4.270,85 534,86 389,08 0,00 923,94 3.346,91 2.914,51 815,67 31/01/2013
431 415400 CLAUDIA ALMEIDA DE VASCONCELLOS BARROS ASSESSOR/OFICIAL ATIVO BELO HORIZONTE - COMARCA; DIRET DE PESSOAL DO MINISTERIO PUBLICO - DPMP 0,00 449,25 7.487,46 0,00 0,00 0,00 7.936,71 876,97 1.151,93 0,00 2.028,90 5.907,81 3.567,68 357,57 31/01/2013
432 389600 CLAUDIA ALVES PERDOMO ASSESSOR ATIVO BELO HORIZONTE - COMARCA; PROCON-MG-GAB DO COORDENADOR DO PROCON-MG 0,00 0,00 7.487,46 0,00 0,00 0,00 7.487,46 457,49 1.142,66 0,00 1.600,15 5.887,31 3.567,68 294,77 31/01/2013
433 207000 CLAUDIA APARECIDA VILELA MACHADO ANALISTA DO MP ATIVO BELO HORIZONTE - COMARCA; CENTRAL DE APOIO TECNICO-SETOR CONTABIL 11.161,27 3.348,38 0,00 0,00 0,00 0,00 14.509,65 1.959,03 2.988,82 0,00 4.947,85 9.561,80 587,00 3.666,43 31/01/2013
434 365700 CLAUDIA BREGUEZ CUNHA ANALISTA DO MP ATIVO VARGINHA - COMARCA; VARGINHA-PJ-07PJ 7.487,46 748,75 0,00 0,00 0,00 0,00 8.236,21 905,98 1.225,23 0,00 2.131,21 6.105,00 352,00 0,00 31/01/2013
435 430500 CLAUDIA CECILIA SANTANA VENCESLAU ASSESSOR/OFICIAL ATIVO BELO HORIZONTE - COMARCA; DIRET DE DESENV DE RECURSOS HUMANOS-DDRH 0,00 449,25 7.487,46 0,00 0,00 0,00 7.936,71 441,95 1.271,54 0,00 1.713,49 6.223,22 352,00 61,96 31/01/2013
436 112400 CLAUDIA CRISTINA FIUZA DE AVELAR AGENTE DO MP ATIVO BELO HORIZONTE - COMARCA; SERVICO MEDICO-DEPTO PERIC MEDICA SAUDE OCUP 5.176,02 2.070,40 0,00 0,00 0,00 0,00 7.246,42 797,11 982,98 0,00 1.780,09 5.466,33 352,00 0,00 31/01/2013
437 149400 CLAUDIA DINIZ OFICIAL DO MP ATIVO BELO HORIZONTE - COMARCA; BH-09PJ AUDITORIA MILITAR-SECRETARIA 9.989,93 4.994,97 0,00 0,00 4.994,97 0,00 19.979,87 1.648,34 4.061,42 0,00 5.709,76 14.270,11 352,00 0,00 31/01/2013
438 480400 CLAUDIA GOULART DE SOUZA OFICIAL DO MP ATIVO PASSOS - COMARCA; PASSOS-PJ-06PJ 3.051,96 0,00 0,00 0,00 0,00 0,00 3.051,96 337,87 86,84 0,00 424,71 2.627,25 3.403,96 187,60 31/01/2013
439 519800 CLAUDIA HELENA CORREA DE ALMEIDA ANALISTA DO MP ATIVO BELO HORIZONTE - COMARCA; BH-12PJ JUIZO CRIMINAL-GAB 090PJ 4.553,46 0,00 0,00 0,00 0,00 0,00 4.553,46 500,88 334,83 0,00 835,71 3.717,75 352,00 0,00 31/01/2013
440 422100 CLAUDIA IACOMINI CABRAL ANALISTA DO MP ATIVO BELO HORIZONTE - COMARCA; CENT DE APOIO TEC-SETOR DEF,IDOSO E INFANC 6.379,14 2.551,65 0,00 0,00 0,00 0,00 8.930,79 1.168,03 1.628,56 0,00 2.796,59 6.134,20 3.567,68 2.213,65 31/01/2013
441 258200 CLAUDIA LAGE MICHALAROS ANALISTA DO MP ATIVO BELO HORIZONTE - COMARCA; CENTRAL DE APOIO TECN-SETOR DE MEIO AMBIENTE 9.369,85 4.684,93 0,00 0,00 0,00 0,00 14.054,78 1.546,03 2.649,33 0,00 4.195,36 9.859,42 352,00 0,00 31/01/2013
442 284600 CLAUDIA LENI DE ABREU OFICIAL DO MP ATIVO CONTAGEM - COMARCA; CONTAGEM-PJ-22PJ 4.409,86 1.322,96 0,00 0,00 0,00 0,00 5.732,82 630,61 612,53 0,00 1.243,14 4.489,68 3.567,68 294,77 31/01/2013
443 433600 CLAUDIA LUIZA SANTIAGO FELICIO ANALISTA DO MP ATIVO BELO HORIZONTE - COMARCA; CAO-SAUDE-TECNICO JURIDICO 5.883,73 353,02 0,00 0,00 0,00 0,00 6.236,75 686,04 688,57 0,00 1.374,61 4.862,14 822,00 0,00 31/01/2013
444 317000 CLAUDIA MACHADO ALVES OFICIAL DO MP ATIVO BELO HORIZONTE - COMARCA; SEC ESPECIAL DE PLANEJAMENTO ESTRATEGICO 4.409,86 440,99 0,00 0,00 0,00 0,00 4.850,85 538,71 317,00 0,00 855,71 3.995,14 352,00 81,37 31/01/2013
445 155300 CLAUDIA MACIEL MIRANDA OFICIAL DO MP ATIVO CONGONHAS - COMARCA; CONGONHAS-PJ-SECRETARIA 7.982,93 2.394,88 0,00 0,00 0,00 0,00 10.377,81 1.141,56 1.654,81 0,00 2.796,37 7.581,44 822,00 0,00 31/01/2013
446 242200 CLAUDIA MICHELLE DIAS MUNIZ BALEEIRO OFICIAL DO MP ATIVO MONTE AZUL - COMARCA; MONTE AZUL-PJ-SECRETARIA 5.698,20 1.709,46 0,00 0,00 0,00 0,00 7.407,66 814,84 927,86 0,00 1.742,70 5.664,96 1.600,24 92,88 31/01/2013
447 418400 CLAUDIA REGINA MARTINS BONIFACIO OFICIAL DO MP ATIVO CAPINÓPOLIS - COMARCA; CAPINOPOLIS-PJ-UNPJ 3.469,26 208,16 0,00 0,00 0,00 0,00 3.677,42 515,81 226,90 0,00 742,71 2.934,71 352,00 1.142,27 31/01/2013
448 240501 CLAUDIA RENATA SOARES ALVES ANALISTA DO MP ATIVO CONTAGEM - COMARCA; CONTAGEM-PJ-20PJ 5.698,20 1.139,64 0,00 0,00 2.279,28 0,00 9.117,12 752,16 1.462,49 0,00 2.214,65 6.902,47 352,00 0,00 31/01/2013
449 498300 CLAUDIA SOUTO FARIAS BRAUN OFICIAL DO MP ATIVO TEÓFILO OTONI - COMARCA; TEOFILO OTONI-PJ-02PJ 2.772,23 0,00 0,00 0,00 0,00 0,00 2.772,23 305,04 30,94 0,00 335,98 2.436,25 822,00 2,41 31/01/2013
450 206500 CLAUDIA VALERIA FONSECA ANDRADE ANALISTA DO MP ATIVO BELO HORIZONTE - COMARCA; BH-23PJ INF-FISC MED SOC FEC 11.161,27 4.464,51 0,00 0,00 0,00 0,00 15.625,78 2.109,28 3.404,74 0,00 5.514,02 10.111,76 352,00 3.944,36 31/01/2013
451 277500 CLAUDIO ANTONIO BORGES ALVARES ASSESSOR/OFICIAL ATIVO BELO HORIZONTE - COMARCA; COORD REG BACIAS RIO VELHAS E PARAOPEBA 0,00 588,37 5.883,73 0,00 2.157,37 0,00 8.629,47 667,74 1.398,90 0,00 2.066,64 6.562,83 352,00 0,00 31/01/2013
452 444800 CLAUDIO ARESIO DO CARMO ANALISTA DO MP ATIVO SETE LAGOAS - COMARCA; SETE LAGOAS-PJ-09PJ 5.883,73 1.176,75 0,00 0,00 0,00 0,00 7.060,48 876,53 1.159,69 0,00 2.036,22 5.024,26 3.567,68 1.202,72 31/01/2013
453 353500 CLAUDIO HENRIQUE PEDRO DA ROCHA OFICIAL DO MP ATIVO BELO HORIZONTE - COMARCA; DIVISAO DE ATENDIMENTO E CONSULTA JURIDICA 4.553,46 455,35 0,00 0,00 0,00 0,00 5.008,81 556,32 348,63 0,00 904,95 4.103,86 3.567,68 326,28 31/01/2013
454 265800 CLAUDIO KUPIDLOWSKY FERNANDES OFICIAL DO MP ATIVO BELO HORIZONTE - COMARCA; EXTINTA - SECRETARIA ADMINISTRATIVA 5.518,54 1.103,71 0,00 0,00 0,00 0,00 6.622,25 728,45 162,98 0,00 891,43 5.730,82 3.802,68 160,78 31/01/2013
455 193600 CLAUDIO LEITE FONTES OFICIAL DO MP ATIVO ITUIUTABA - COMARCA; ITUIUTABA-PJ-02PJ 4.701,73 1.410,52 0,00 0,00 0,00 0,00 6.112,25 672,35 518,94 0,00 1.191,29 4.920,96 587,00 0,00 31/01/2013
456 329400 CLAUDIO MARCIO BERNARDES OFICIAL DO MP ATIVO ITAÚNA - COMARCA; ITAUNA-PJ-04PJ 5.344,58 2.137,83 0,00 0,00 0,00 0,00 7.482,41 823,07 1.040,74 0,00 1.863,81 5.618,60 352,00 0,00 31/01/2013
457 270200 CLAUDIO RABELO ALVES OFICIAL DO MP ATIVO FORMIGA - COMARCA; FORMIGA-PJ-SECRETARIA 5.883,73 1.176,75 0,00 0,00 0,00 0,00 7.060,48 776,65 748,31 0,00 1.524,96 5.535,52 3.567,68 294,77 31/01/2013
458 264700 CLAUDIO ROBERTO KFURI DE ARAUJO ANALISTA DO MP ATIVO BELO HORIZONTE - COMARCA; CENTRAL DE APOIO TECNICO-SETOR DE INFORMATICA 9.074,45 907,45 0,00 0,00 0,00 0,00 9.981,90 1.145,07 1.662,61 0,00 2.807,68 7.174,22 587,00 427,80 31/01/2013
459 188600 CLAUDIO SALES OFICIAL DO MP ATIVO NEPOMUCENO - COMARCA; NEPOMUCENO-PJ-SECRETARIA 7.487,46 1.497,49 0,00 0,00 0,00 0,00 8.984,95 988,34 1.144,91 0,00 2.133,25 6.851,70 3.567,68 294,77 31/01/2013
460 160700 CLAUDIO VICENTE HESS ASSESSOR ATIVO BELO HORIZONTE - COMARCA; EXTINTA - DIRETORIA DE COMPRAS E LICITAÇÕES 0,00 2.472,85 8.242,82 0,00 0,00 0,00 10.715,67 457,49 1.888,54 0,00 2.346,03 8.369,64 352,00 0,00 31/01/2013
461 312900 CLAUDIO VIEIRA FIRPE ASSESSOR/OFICIAL ATIVO BELO HORIZONTE - COMARCA; DIR RELACOES INSTITUCIONAIS 0,00 588,37 5.883,73 0,00 0,00 0,00 6.472,10 568,91 832,80 0,00 1.401,71 5.070,39 352,00 0,00 31/01/2013
462 459200 CLEIA ZILLE PEREIRA ANALISTA DO MP ATIVO BELO HORIZONTE - COMARCA; ASSESS TECNICO-JUR JUNTO AS PROC. DE JUST 5.698,20 0,00 0,00 0,00 0,00 0,00 5.698,20 626,80 604,06 0,00 1.230,86 4.467,34 822,00 0,00 31/01/2013
463 461300 CLEIDE ALVES DA SILVA OFICIAL DO MP ATIVO BOA ESPERANÇA - COMARCA; BOA ESPERANCA-PJ-01PJ 3.698,79 0,00 0,00 0,00 0,00 0,00 3.698,79 409,71 173,19 0,00 582,90 3.115,89 352,00 45,82 31/01/2013
464 481800 CLEIDE CARDOSO DA SILVA ANALISTA DO MP ATIVO GOVERNADOR VALADARES - COMARCA; GOVERNADOR VALADARES-PJ-15PJ 5.176,02 0,00 0,00 0,00 0,00 0,00 5.176,02 569,36 476,25 0,00 1.045,61 4.130,41 822,00 0,00 31/01/2013
465 347600 CLEIDIMAR DE OLIVEIRA SILVA OFICIAL DO MP ATIVO JOÃO PINHEIRO - COMARCA; JOAO PINHEIRO-PJ-02PJ 3.879,42 775,88 0,00 0,00 0,00 0,00 4.655,30 516,27 200,45 0,00 716,72 3.938,58 352,00 66,97 31/01/2013
466 396500 CLEIDISON BATISTA DE ANDRADE OFICIAL DO MP ATIVO RESPLENDOR - COMARCA; RESPLENDOR-PJ-UNPJ 3.469,26 208,16 0,00 0,00 1.225,81 0,00 4.903,23 408,23 446,57 0,00 854,80 4.048,43 2.558,45 169,75 31/01/2013
467 298100 CLEONICE AUGUSTA BARROS DE OLIVEIRA ANALISTA DO MP ATIVO JUIZ DE FORA - COMARCA; JUIZ DE FORA-PJ-18PJ 8.788,36 878,84 0,00 0,00 3.222,40 0,00 12.889,60 1.063,39 2.461,63 0,00 3.525,02 9.364,58 352,00 0,00 31/01/2013
468 60200 CLERES DE ALMEIDA AGENTE DO MP ATIVO BELO HORIZONTE - COMARCA; EXTINTA - DIVISAO DE TRANSPORTES 4.136,15 2.895,32 0,00 0,00 0,00 0,00 7.031,47 952,46 1.186,78 0,00 2.139,24 4.892,23 3.567,68 1.922,06 31/01/2013
469 114300 CLERES PEREIRA DA SILVA JUNIOR ASSESSOR ATIVO BELO HORIZONTE - COMARCA; GAECO - SECRETARIA 0,00 1.479,52 3.698,79 0,00 0,00 0,00 5.178,31 457,49 413,06 0,00 870,55 4.307,76 3.567,68 389,53 31/01/2013
470 264100 CLETO HENRIQUE ANDRADE SILVA ANALISTA DO MP ATIVO BELO HORIZONTE - COMARCA; DIRETORIA DE SISTEMAS DE INFORMACAO 9.074,45 907,45 0,00 0,00 0,00 0,00 9.981,90 1.098,01 1.510,61 0,00 2.608,62 7.373,28 587,00 0,00 31/01/2013
471 334400 CLEUBA DE OLIVEIRA BARCELOS GONCALVES OFICIAL DO MP ATIVO DIVINÓPOLIS - COMARCA; DIVINOPOLIS-PJ-07PJ 5.344,58 534,46 0,00 0,00 1.959,68 0,00 7.838,72 646,69 1.139,94 0,00 1.786,63 6.052,09 352,00 0,00 31/01/2013
472 347500 CLEUSA CORDEIRO DA MATA PIMENTA OFICIAL DO MP ATIVO CAMPO BELO - COMARCA; CAMPO BELO-PJ-04PJ 4.854,78 2.427,39 0,00 0,00 0,00 0,00 7.282,17 801,04 897,15 0,00 1.698,19 5.583,98 352,00 0,00 31/01/2013
473 510200 CLEZIO SALES SILVA OFICIAL DO MP ATIVO BRASÓPOLIS - COMARCA; BRASOPOLIS-PJ-UNPJ 2.772,23 0,00 0,00 0,00 0,00 0,00 2.772,23 305,00 56,74 0,00 361,74 2.410,49 3.124,23 70,61 31/01/2013
474 323000 CLOTILDE DE PADUA VIEIRA OFICIAL DO MP ATIVO BELO HORIZONTE - COMARCA; BH-15PJ M AMB 16PJ HAB URB-SECRETARIA 3.757,11 375,71 0,00 0,00 0,00 0,00 4.132,82 458,79 250,60 0,00 709,39 3.423,43 352,00 66,85 31/01/2013
475 285200 CLOVIS ANDRE LUDTKE OFICIAL DO MP ATIVO BELO HORIZONTE - COMARCA; DIRETORIA DE MANUTENCAO PREDIAL 5.344,58 534,46 0,00 0,00 0,00 0,00 5.879,04 923,84 1.264,96 0,00 2.188,80 3.690,24 3.567,68 2.814,27 31/01/2013
476 381100 CONCEICAO APARECIDA TEIXEIRA ANALISTA DO MP ATIVO BELO HORIZONTE - COMARCA; BH-23PJ INFRACIONAL-ASS JURIDICA 5.883,73 353,02 0,00 0,00 2.078,92 0,00 8.315,67 686,04 1.307,57 0,00 1.993,61 6.322,06 352,00 0,00 31/01/2013
477 249900 CONSTANTINO CEZAR GOMES MOTA OFICIAL DO MP ATIVO MONTES CLAROS - COMARCA; COORD REG BACIA RIOS VERDE GRANDE E PARDO 4.409,86 881,97 0,00 0,00 0,00 0,00 5.291,83 588,16 504,60 0,00 1.092,76 4.199,07 3.567,68 390,90 31/01/2013
478 481000 CRISHMA ANALIA LOMBELLO ANALISTA DO MP ATIVO JUIZ DE FORA - COMARCA; JUIZ DE FORA-PJ-13PJ 5.176,02 0,00 0,00 0,00 0,00 0,00 5.176,02 574,44 428,96 0,00 1.003,40 4.172,62 352,00 80,71 31/01/2013
479 187500 CRISLEY PATRICK TOSTES OFICIAL DO MP ATIVO JUIZ DE FORA - COMARCA; JUIZ DE FORA-PJ-21PJ 7.731,26 1.546,25 0,00 0,00 0,00 0,00 9.277,51 1.020,53 1.480,09 0,00 2.500,62 6.776,89 352,00 0,00 31/01/2013
480 523900 CRISTHYANE BAZOLI COSTA GUEDES OFICIAL DO MP ATIVO BELO HORIZONTE - COMARCA; TRIBUNAL DO JURI-07 PJ-01 TRIBUNAL 2.684,83 0,00 0,00 0,00 0,00 0,00 2.684,83 295,33 50,90 0,00 346,23 2.338,60 1.962,90 40,27 31/01/2013
481 187000 CRISTIAN DAYVSON EVANGELISTA OFICIAL DO MP ATIVO JUIZ DE FORA - COMARCA; JUIZ DE FORA-PJ-09PJ 7.487,46 1.497,49 0,00 0,00 0,00 0,00 8.984,95 988,34 1.361,20 0,00 2.349,54 6.635,41 352,00 0,00 31/01/2013
482 319800 CRISTIANA GONCALVES DOS SANTOS OFICIAL DO MP ATIVO BELO HORIZONTE - COMARCA; BH-14PJ DEFESA CONSUMIDOR-SECRETARIA 4.854,78 485,48 0,00 0,00 0,00 0,00 5.340,26 593,62 516,45 0,00 1.110,07 4.230,19 352,00 98,12 31/01/2013
483 520600 CRISTIANA JANAINA BARBOZA JUVENCIO DOS SANTOS ANALISTA DO MP ATIVO BELO HORIZONTE - COMARCA; EXTINTA - JUIZO DE FAMILIA-02 PJ-02 VARA 5.012,79 0,00 0,00 0,00 0,00 0,00 5.012,79 551,41 436,30 0,00 987,71 4.025,08 352,00 0,00 31/01/2013
484 195600 CRISTIANA SOARES HALABI OFICIAL DO MP ATIVO UBERABA - COMARCA; UBERABA-PJ-11PJ 6.801,32 1.360,26 0,00 0,00 2.720,53 0,00 10.882,11 1.144,61 2.138,19 0,00 3.282,80 7.599,31 352,00 2.244,03 31/01/2013
485 218900 CRISTIANE ALVES BELLES OFICIAL DO MP ATIVO JUIZ DE FORA - COMARCA; JUIZ DE FORA-PJ-10PJ 4.409,86 881,97 0,00 0,00 1.763,94 0,00 7.055,77 582,10 847,80 0,00 1.429,90 5.625,87 3.567,68 241,18 31/01/2013
486 263600 CRISTIANE CARVALHO COUTINHO OFICIAL DO MP ATIVO BELO HORIZONTE - COMARCA; BH-23PJ INFRACIONAL-SEC EXP 5.344,58 1.068,92 0,00 0,00 0,00 0,00 6.413,50 705,49 731,83 0,00 1.437,32 4.976,18 587,00 0,00 31/01/2013
487 441700 CRISTIANE CORRADO DE ANDRADE ANALISTA DO MP ATIVO BELO HORIZONTE - COMARCA; DIRETORIA DE SISTEMAS DE INFORMACAO 5.883,73 353,02 0,00 0,00 0,00 0,00 6.236,75 686,04 735,87 0,00 1.421,91 4.814,84 587,00 0,00 31/01/2013
488 375100 CRISTIANE DAS DORES ERCIO DE LIMA OFICIAL DO MP ATIVO GOVERNADOR VALADARES - COMARCA; GOVERNADOR VALADARES-PJ-15PJ 3.757,11 225,43 0,00 0,00 1.327,51 0,00 5.310,05 441,78 549,21 0,00 990,99 4.319,06 352,00 59,29 31/01/2013
489 178800 CRISTIANE DE LIMA HOSKEN OFICIAL DO MP ATIVO BELO HORIZONTE - COMARCA; COORD ESTADUAL DE DEFESA DA EDUCACAO 7.731,26 1.546,25 0,00 0,00 0,00 0,00 9.277,51 1.125,49 1.571,77 0,00 2.697,26 6.580,25 3.567,68 1.249,01 31/01/2013
490 494000 CRISTIANE DE MELO MARQUEZ OLIVEIRA ANALISTA DO MP ATIVO UBERLÂNDIA - COMARCA; UBERLANDIA-PJ-06PJ 5.176,02 0,00 0,00 0,00 0,00 0,00 5.176,02 571,77 476,25 0,00 1.048,02 4.128,00 352,00 38,97 31/01/2013
491 266100 CRISTIANE DE OLIVEIRA CASTRO OFICIAL DO MP ATIVO BELO HORIZONTE - COMARCA; PROCON-MG-SECRETARIA DE FISCALIZACOES 5.698,20 1.139,64 0,00 0,00 0,00 0,00 6.837,84 752,16 882,98 0,00 1.635,14 5.202,70 587,00 0,00 31/01/2013
492 329500 CRISTIANE DOS REIS SILVA OFICIAL DO MP ATIVO ARAXÁ - COMARCA; ARAXA-PJ-04PJ 4.005,77 400,58 0,00 0,00 0,00 0,00 4.406,35 489,26 227,98 0,00 717,24 3.689,11 587,00 72,70 31/01/2013
493 301600 CRISTIANE GODINHO PIRES ANALISTA DO MP ATIVO BETIM - COMARCA; BETIM-PJ-07PJ 8.511,21 851,12 0,00 0,00 0,00 0,00 9.362,33 1.029,86 1.500,85 0,00 2.530,71 6.831,62 3.567,68 294,77 31/01/2013
494 406100 CRISTIANE GONCALVES CHAVES ANALISTA DO MP ATIVO BELO HORIZONTE - COMARCA; ASSESS TECNICO-JUR JUNTO AS PROC. DE JUST 6.379,14 1.275,83 0,00 0,00 0,00 0,00 7.654,97 842,05 1.082,97 0,00 1.925,02 5.729,95 3.567,68 294,77 31/01/2013
495 487600 CRISTIANE LOPES DE OLIVEIRA OFICIAL DO MP ATIVO IBIRACI - COMARCA; IBIRACI-PJ-SECRETARIA 3.051,96 0,00 0,00 0,00 0,00 0,00 3.051,96 337,10 62,51 0,00 399,61 2.652,35 352,00 22,96 31/01/2013
496 502500 CRISTIANE MACIEL DE OLIVEIRA GOMES ANALISTA DO MP ATIVO JUIZ DE FORA - COMARCA; JUIZ DE FORA-PJ-04PJ 5.176,02 0,00 0,00 0,00 0,00 0,00 5.176,02 570,90 476,25 0,00 1.047,15 4.128,87 352,00 25,21 31/01/2013
497 285500 CRISTIANE MAGALHAES LOURENCO ANALISTA DO MP ATIVO BELO HORIZONTE - COMARCA; CENTRAL DE APOIO TECNICO-SETOR CONTABIL 8.788,36 878,84 0,00 0,00 0,00 0,00 9.667,20 1.063,39 1.480,88 0,00 2.544,27 7.122,93 3.567,68 294,77 31/01/2013
498 346600 CRISTIANE NOGUEIRA ANDRADE ANALISTA DO MP ATIVO BELO HORIZONTE - COMARCA; CENTRAL DE APOIO TECNICO-SETOR CONTABIL 7.731,26 773,13 0,00 0,00 0,00 0,00 8.504,39 935,48 1.290,87 0,00 2.226,35 6.278,04 822,00 0,00 31/01/2013
499 234000 CRISTIANE OLIVEIRA TOSTES OFICIAL DO MP ATIVO JUIZ DE FORA - COMARCA; JUIZ DE FORA-PJ-19PJ 6.177,98 1.235,60 0,00 0,00 0,00 0,00 7.413,58 815,49 1.023,89 0,00 1.839,38 5.574,20 3.567,68 294,77 31/01/2013
500 445800 CRISTIANE ORZIL COSTA OFICIAL DO MP ATIVO SANTA LUZIA - COMARCA; SANTA LUZIA-PJ-05PJ 3.151,29 189,08 0,00 0,00 1.113,46 0,00 4.453,83 402,57 363,52 0,00 766,09 3.687,74 352,00 332,44 31/01/2013
501 215000 CRISTIANE RODRIGUES DE CARVALHO ASSESSOR ATIVO BELO HORIZONTE - COMARCA; BH-14PJ DEFESA CONSUMIDOR-SECRETARIA 0,00 739,76 3.698,79 0,00 0,00 0,00 4.438,55 457,49 318,74 0,00 776,23 3.662,32 352,00 82,84 31/01/2013
502 257700 CRISTIANE RODRIGUES PAES NUNES ANALISTA DO MP ATIVO BELO HORIZONTE - COMARCA; BH-22PJ PES COM DEF E IDOSOS-ORIENTACAO PSIC 8.788,36 1.757,67 0,00 0,00 0,00 0,00 10.546,03 1.490,12 2.390,42 0,00 3.880,54 6.665,49 3.567,68 3.588,30 31/01/2013
503 510800 CRISTIANE SANTOS FERNANDES ORNELES ANALISTA DO MP ATIVO BELO HORIZONTE - COMARCA; COORD ESTADUAL DAS PJS DE HAB. E URBANISMO 4.270,85 0,00 0,00 0,00 0,00 0,00 4.270,85 469,86 278,24 0,00 748,10 3.522,75 352,00 1,89 31/01/2013
504 477400 CRISTIANO SOARES ELEUTERIO ANALISTA DO MP ATIVO BELO HORIZONTE - COMARCA; BH-17PJ PATRIMONIO PUBLICO 5.176,02 0,00 0,00 0,00 1.725,34 0,00 6.901,36 693,81 1.066,80 0,00 1.760,61 5.140,75 352,00 1.173,34 31/01/2013
505 449400 CRISTIANO TEIXEIRA RODRIGUES LANA ANALISTA DO MP ATIVO BELO HORIZONTE - COMARCA; ASSESS TECNICO-JUR JUNTO AS PROC. DE JUST 5.698,20 0,00 0,00 0,00 0,00 0,00 5.698,20 632,63 604,06 0,00 1.236,69 4.461,51 352,00 92,59 31/01/2013
506 239400 CRISTINA DE FATIMA CRUZ E SILVA OFICIAL DO MP ATIVO MONTE SANTO DE MINAS - COMARCA; MONTE SANTO DE MINAS-PJ-SECRETARIA 5.344,58 1.068,92 0,00 0,00 0,00 0,00 6.413,50 784,11 954,06 0,00 1.738,17 4.675,33 352,00 714,74 31/01/2013
507 356800 CRISTINA DE PINHO BARROSO OFICIAL DO MP ATIVO SABINÓPOLIS - COMARCA; SABINOPOLIS-PJ-UNPJ 3.879,42 775,88 0,00 0,00 0,00 0,00 4.655,30 516,21 355,22 0,00 871,43 3.783,87 382,72 65,98 31/01/2013
508 449100 CRISTINA KISTEMANN CHIODI ASSESSOR ATIVO BELO HORIZONTE - COMARCA; CAO-MEIO AMBIENTE-SECRETARIA 0,00 0,00 7.487,46 0,00 0,00 0,00 7.487,46 457,49 1.142,66 0,00 1.600,15 5.887,31 352,00 0,00 31/01/2013
509 348201 CRISTINA MARIA DA SILVA ANALISTA DO MP ATIVO JOÃO PINHEIRO - COMARCA; JOAO PINHEIRO-PJ-01PJ 5.518,54 0,00 0,00 0,00 0,00 0,00 5.518,54 613,11 560,08 0,00 1.173,19 4.345,35 352,00 96,28 31/01/2013
510 434900 CRISTINA MELO DE MADUREIRA ANALISTA DO MP ATIVO BELO HORIZONTE - COMARCA; CAO-CRIMINAL-SECRETARIA 5.883,73 353,02 0,00 0,00 0,00 0,00 6.236,75 686,04 735,87 0,00 1.421,91 4.814,84 587,00 0,00 31/01/2013
511 117100 CRISTINA PEDROSA GARABINI COORDENADOR/ANALISTA ATIVO BELO HORIZONTE - COMARCA; DIRET DE INFORMACAO E CONHECIMENTO-DINC/CEAF 16.456,57 10.550,27 0,00 0,00 8.039,21 0,00 35.046,05 2.652,94 7.228,41 2.889,22 12.770,57 22.275,48 352,00 0,00 31/01/2013
512 307700 CRISTINA TEIXEIRA MARQUES OFICIAL DO MP ATIVO BELO HORIZONTE - COMARCA; BH-14PJ DEFESA CONSUMIDOR-SECRETARIA 4.553,46 455,35 0,00 0,00 0,00 0,00 5.008,81 556,86 388,03 0,00 944,89 4.063,92 3.567,68 388,22 31/01/2013
513 265300 CRISTOVAO SANCHES DE MEDEIROS ANALISTA DO MP ATIVO BELO HORIZONTE - COMARCA; BH-02PJ FAMILIA-SECRETARIA 7.982,93 798,29 0,00 0,00 0,00 0,00 8.781,22 965,93 1.264,04 0,00 2.229,97 6.551,25 352,00 0,00 31/01/2013
514 349800 CROZEIR LUIZ DA SILVA OFICIAL DO MP ATIVO UNAÍ - COMARCA; UNAI-PJ-SECRETARIA 3.879,42 387,94 0,00 0,00 0,00 0,00 4.267,36 474,92 200,15 0,00 675,07 3.592,29 1.548,80 87,62 31/01/2013
515 490500 CYNTHIA CRISTINA DE SOUZA OLIVEIRA VALENTE ANALISTA DO MP ATIVO BELO HORIZONTE - COMARCA; BH-09PJ AUDITORIA MILITAR 4.701,73 0,00 0,00 0,00 0,00 0,00 4.701,73 519,77 364,52 0,00 884,29 3.817,44 822,00 41,58 31/01/2013
516 389800 CYNTHIA GARIGLIO DOS SANTOS OFICIAL DO MP ATIVO PERDIZES - COMARCA; PERDIZES-PJ-SECRETARIA 3.469,26 208,16 0,00 0,00 0,00 0,00 3.677,42 407,46 118,74 0,00 526,20 3.151,22 587,00 47,40 31/01/2013
517 335101 CYNTHIA GONTIJO D ASSUNCAO ANALISTA DO MP ATIVO BELO HORIZONTE - COMARCA; CAO-CRIANCAS E ADOLESCENTES 5.698,20 0,00 0,00 0,00 0,00 0,00 5.698,20 779,97 731,86 0,00 1.511,83 4.186,37 352,00 1.392,48 31/01/2013
518 154000 CYNTHIA LOPES DOS SANTOS LAGES ASSESSOR ATIVO BELO HORIZONTE - COMARCA; PROCURADOR-GERAL DE JUSTICA- GABINETE 0,00 3.869,97 9.674,93 0,00 0,00 0,00 13.544,90 1.489,94 2.477,24 0,00 3.967,18 9.577,72 352,00 0,00 31/01/2013
519 269700 CYNTIA ROCHA CAVALCANTI OFICIAL DO MP ATIVO UBERLÂNDIA - COMARCA; UBERLANDIA-PJ-06PJ 5.698,20 569,82 0,00 0,00 0,00 0,00 6.268,02 689,48 743,52 0,00 1.433,00 4.835,02 3.567,68 294,77 31/01/2013
520 278000 DAIRTON LOPES MARTINS FILHO COORDENADOR/ANALISTA ATIVO BELO HORIZONTE - COMARCA; DIRETORIA DE SISTEMAS DE INFORMACAO 7.022,72 2.404,51 0,00 0,00 0,00 0,00 9.427,23 849,75 1.568,23 0,00 2.417,98 7.009,25 3.567,68 294,77 31/01/2013
521 392700 DALIANA CHAVES SILVA OFICIAL DO MP ATIVO ITAÚNA - COMARCA; ITAUNA-PJ-SECRETARIA 4.136,15 248,17 0,00 0,00 0,00 0,00 4.384,32 485,98 300,96 0,00 786,94 3.597,38 2.982,59 256,61 31/01/2013
522 476700 DALTON DAUD ANALISTA DO MP ATIVO ARAGUARI - COMARCA; ARAGUARI-PJ-05PJ 5.698,20 0,00 0,00 0,00 0,00 0,00 5.698,20 758,91 685,14 0,00 1.444,05 4.254,15 3.567,68 1.669,84 31/01/2013
523 121900 DALVA MARIA DE LIMA ANALISTA DO MP ATIVO BELO HORIZONTE - COMARCA; EXTINTA-TUTELA DAS FUNDACOES-21 PJ- GABINETE 16.456,57 14.810,92 0,00 0,00 0,00 2.652,94 33.920,43 2.652,94 5.841,77 7.149,87 15.644,58 18.275,85 352,00 0,00 31/01/2013
524 426900 DANIEL ALVES DA SILVA OFICIAL DO MP ATIVO BELO HORIZONTE - COMARCA; EXTINTA - PROTOCOLO DA PGJ 3.151,29 189,08 0,00 0,00 0,00 0,00 3.340,37 369,79 125,34 0,00 495,13 2.845,24 3.802,68 198,90 31/01/2013
525 122000 DANIEL ANTONIO VIEIRA OFICIAL DO MP ATIVO ENTRE-RIOS DE MINAS - COMARCA; ENTRE RIOS DE MINAS-PJ-SECRETARIA 7.022,72 3.511,36 0,00 0,00 0,00 0,00 10.534,08 1.477,32 1.834,74 0,00 3.312,06 7.222,02 352,00 2.896,11 31/01/2013
526 272401 DANIEL AUGUSTO DOS REIS ANALISTA DO MP ATIVO BELO HORIZONTE - COMARCA; BH-22PJ PES COM DEF E IDOSOS-ASS JURIDICA 6.379,14 382,75 0,00 0,00 2.253,96 0,00 9.015,85 743,81 1.484,23 0,00 2.228,04 6.787,81 352,00 0,00 31/01/2013
527 411000 DANIEL FERREIRA DA SILVA ANALISTA DO MP ATIVO GOVERNADOR VALADARES - COMARCA; GOVERNADOR VALADARES-PJ-15PJ 6.379,14 1.275,83 0,00 0,00 0,00 0,00 7.654,97 842,05 1.035,68 0,00 1.877,73 5.777,24 3.802,68 294,77 31/01/2013
528 309000 DANIEL GOMES DOS SANTOS ANALISTA DO MP ATIVO POÇOS DE CALDAS - COMARCA; POCOS DE CALDAS-PJ-03PJ 6.801,32 680,13 0,00 0,00 0,00 0,00 7.481,45 822,96 1.040,50 0,00 1.863,46 5.617,99 352,00 0,00 31/01/2013
529 453000 DANIEL GONCALVES PEREIRA ANALISTA DO MP ATIVO UNAÍ - COMARCA; UNAI-PJ-SECRETARIA 5.698,20 0,00 0,00 0,00 0,00 0,00 5.698,20 643,81 627,96 0,00 1.271,77 4.426,43 352,00 196,92 31/01/2013
530 495500 DANIEL GUIMARAES CABRAL OFICIAL DO MP ATIVO LAGOA DA PRATA - COMARCA; LAGOA DA PRATA-PJ-02PJ 2.772,23 0,00 0,00 0,00 0,00 0,00 2.772,23 305,07 56,74 0,00 361,81 2.410,42 352,00 3,18 31/01/2013
531 442900 DANIEL GUIMARAES GONCALVES ANALISTA DO MP ATIVO UBERLÂNDIA - COMARCA; UBERLANDIA-PJ-03PJ 5.883,73 353,02 0,00 0,00 0,00 0,00 6.236,75 686,04 735,87 0,00 1.421,91 4.814,84 3.567,68 294,77 31/01/2013
532 491200 DANIEL HENRIQUE SOUTO COSTA ANALISTA DO MP ATIVO CORAÇÃO DE JESUS - COMARCA; CORACAO DE JESUS-PJ-UNPJ 5.176,02 0,00 0,00 0,00 0,00 0,00 5.176,02 573,76 476,25 0,00 1.050,01 4.126,01 352,00 69,92 31/01/2013
533 464600 DANIEL PIACENTINI STIVANIN ANALISTA DO MP ATIVO ANDRADAS - COMARCA; ANDRADAS-PJ-02PJ 5.176,02 0,00 0,00 0,00 0,00 0,00 5.176,02 574,90 476,25 0,00 1.051,15 4.124,87 352,00 88,03 31/01/2013
534 417000 DANIEL QUEIROZ FERREIRA ANALISTA DO MP ATIVO AREADO - COMARCA; AREADO-PJ-UNPJ 6.379,14 382,75 0,00 0,00 0,00 0,00 6.761,89 743,81 864,39 0,00 1.608,20 5.153,69 352,00 0,00 31/01/2013
535 396700 DANIEL SILVA CARNEVALLI COORDENADOR/ANALISTA ATIVO BELO HORIZONTE - COMARCA; DIRETORIA DE REDES E BANCOS DE DADOS 0,00 510,67 8.511,21 0,00 0,00 0,00 9.021,88 743,81 1.955,66 0,00 2.699,47 6.322,41 352,00 1.708,25 31/01/2013
536 489300 DANIEL TABOZA ROCHA ANALISTA DO MP ATIVO IPATINGA - COMARCA; IPATINGA-PJ-08PJ 5.176,02 0,00 0,00 0,00 0,00 0,00 5.176,02 571,68 476,25 0,00 1.047,93 4.128,09 352,00 37,52 31/01/2013
537 414100 DANIEL TARDELI VALADAO ANALISTA DO MP ATIVO TRÊS CORACOES - COMARCA; TRES CORACOES-PJ-02PJ 6.379,14 382,75 0,00 0,00 2.253,96 0,00 9.015,85 743,81 1.484,23 0,00 2.228,04 6.787,81 352,00 0,00 31/01/2013
538 446600 DANIEL VIEIRA BUENO OFICIAL DO MP ATIVO RIO PIRACICABA - COMARCA; RIO PIRACICABA-PJ-UNPJ 3.469,26 208,16 0,00 0,00 1.225,81 0,00 4.903,23 437,62 474,95 0,00 912,57 3.990,66 352,00 312,60 31/01/2013
539 253200 DANIELA BATISTA LIMA BARBOSA ASSESSOR ATIVO BELO HORIZONTE - COMARCA; CENTRAL DE APOIO TECN-SETOR DE MEIO AMBIENTE 0,00 369,88 3.698,79 0,00 0,00 0,00 4.068,67 457,49 235,52 0,00 693,01 3.375,66 352,00 71,12 31/01/2013
540 505800 DANIELA BORGES DE MATTOS RESENDE ANALISTA DO MP ATIVO JUIZ DE FORA - COMARCA; JUIZ DE FORA-PJ-20PJ 4.701,73 0,00 0,00 0,00 0,00 0,00 4.701,73 517,53 364,52 0,00 882,05 3.819,68 352,00 6,46 31/01/2013
541 478000 DANIELA CARVALHO SOARES ANALISTA DO MP ATIVO SÃO JOÃO DEL REI - COMARCA; SAO JOAO DEL REI-PJ-06PJ 5.698,20 0,00 0,00 0,00 0,00 0,00 5.698,20 758,62 731,86 0,00 1.490,48 4.207,72 352,00 1.235,39 31/01/2013
542 518900 DANIELA CERUTTI AGUIAR ANALISTA DO MP ATIVO BELO HORIZONTE - COMARCA; ASSESS TECNICO-JUR JUNTO AS PROC. DE JUST 4.553,46 0,00 0,00 0,00 0,00 0,00 4.553,46 500,88 334,83 0,00 835,71 3.717,75 352,00 0,00 31/01/2013
543 275900 DANIELA CHAGAS SODRE ANALISTA DO MP ATIVO BELO HORIZONTE - COMARCA; CENTRAL DE APOIO TECNICO-SETOR CONTABIL 8.788,36 878,84 0,00 0,00 0,00 0,00 9.667,20 1.063,39 1.528,18 0,00 2.591,57 7.075,63 587,00 0,00 31/01/2013
544 234301 DANIELA CRUZ SOARES ANALISTA DO MP ATIVO BELO HORIZONTE - COMARCA; CAO-ORDEM ECONOMICA E TRIBUTARIA-SECRETARIA 9.074,45 1.814,89 0,00 0,00 3.629,78 0,00 14.519,12 1.197,83 2.872,77 0,00 4.070,60 10.448,52 352,00 0,00 31/01/2013
545 301000 DANIELA DE ALMEIDA E OLIVEIRA ANALISTA DO MP ATIVO BELO HORIZONTE - COMARCA; DIRETORIA DE REDES E BANCOS DE DADOS 8.788,36 878,84 0,00 0,00 3.222,40 0,00 12.889,60 1.063,39 2.461,63 0,00 3.525,02 9.364,58 352,00 0,00 31/01/2013
546 296000 DANIELA DE AZEVEDO SILVA ANALISTA DO MP ATIVO ITAJUBA - COMARCA; ITAJUBA-PJ-03PJ 7.731,26 1.546,25 0,00 0,00 0,00 0,00 9.277,51 1.020,53 1.480,09 0,00 2.500,62 6.776,89 352,00 0,00 31/01/2013
547 453500 DANIELA DE CASTRO SOUSA BARBOSA ANALISTA DO MP ATIVO BELO HORIZONTE - COMARCA; BH-08PJ JUIZADO ESPECIAL-SECRETARIA 5.698,20 0,00 0,00 0,00 0,00 0,00 5.698,20 712,76 795,31 0,00 1.508,07 4.190,13 352,00 781,44 31/01/2013
548 506000 DANIELA DE OLIVEIRA CAVALIERI ANALISTA DO MP ATIVO BELO HORIZONTE - COMARCA; BH-14PJ DEFESA CONSUMIDOR-SECRETARIA 4.270,85 0,00 0,00 0,00 0,00 0,00 4.270,85 470,18 278,24 0,00 748,42 3.522,43 352,00 7,22 31/01/2013
549 482900 DANIELA DINIZ MONTEIRO NASCIMENTO ASSESSOR ATIVO BELO HORIZONTE - COMARCA; COORD REG BACIAS RIO VELHAS E PARAOPEBA 0,00 0,00 5.883,73 0,00 1.961,24 0,00 7.844,97 457,49 1.240,98 0,00 1.698,47 6.146,50 587,00 0,00 31/01/2013
550 393700 DANIELA GOMES CARDOSO OFICIAL DO MP ATIVO SABARÁ - COMARCA; SABARA-PJ-02PJ 2.862,51 171,75 0,00 0,00 0,00 0,00 3.034,26 335,54 61,33 0,00 396,87 2.637,39 587,00 29,14 31/01/2013
551 356400 DANIELA LEAL FERRAZ ANALISTA DO MP ATIVO MONTES CLAROS - COMARCA; COORD REG PJ DEF EDUC DIR CRIANCA ADOL NORTE 7.487,46 748,75 0,00 0,00 0,00 0,00 8.236,21 1.022,46 1.484,39 0,00 2.506,85 5.729,36 352,00 1.058,85 31/01/2013
552 501000 DANIELA LOURENCO SANTOS DA SILVA GUIMARAES ANALISTA DO MP ATIVO BELO HORIZONTE - COMARCA; BH-12PJ JUIZO CRIMINAL 4.701,73 0,00 0,00 0,00 0,00 0,00 4.701,73 518,18 364,52 0,00 882,70 3.819,03 352,00 16,59 31/01/2013
553 195801 DANIELA MARIA DE OLIVEIRA QUEIROZ ANALISTA DO MP ATIVO ARAGUARI - COMARCA; ARAGUARI-PJ-02PJ 6.379,14 1.275,83 0,00 0,00 0,00 0,00 7.654,97 842,05 1.082,97 0,00 1.925,02 5.729,95 352,00 0,00 31/01/2013
554 511400 DANIELA MARIA LARA DE OLIVEIRA ANALISTA DO MP ATIVO BOA ESPERANÇA - COMARCA; BOA ESPERANCA-PJ-02PJ 4.701,73 0,00 0,00 0,00 0,00 0,00 4.701,73 517,26 287,14 0,00 804,40 3.897,33 352,00 1,76 31/01/2013
555 252101 DANIELA PAULA ALVES PENA ANALISTA DO MP ATIVO CONTAGEM - COMARCA; CONTAGEM-PJ-APO TECNICO 6.379,14 1.275,83 0,00 0,00 2.551,66 0,00 10.206,63 842,05 1.784,68 0,00 2.626,73 7.579,90 352,00 0,00 31/01/2013
556 429600 DANIELA PIMENTA NUNES MACHADO ANALISTA DO MP ATIVO BELO HORIZONTE - COMARCA; BH-05PJ JUÍZO DE SUCESSÕES 5.883,73 353,02 0,00 0,00 0,00 0,00 6.236,75 686,04 735,87 0,00 1.421,91 4.814,84 352,00 0,00 31/01/2013
557 424300 DANIELA PORTO PINTO OFICIAL DO MP ATIVO BELO HORIZONTE - COMARCA; BH-19PJ SAUDE-ASS TECNICA 3.253,89 195,23 0,00 0,00 0,00 0,00 3.449,12 454,20 182,05 0,00 636,25 2.812,87 352,00 693,06 31/01/2013
558 462000 DANIELA SOUSA GOMES DO AMARAL ANALISTA DO MP ATIVO BETIM - COMARCA; BETIM-PJ-08PJ 5.698,20 0,00 0,00 0,00 0,00 0,00 5.698,20 632,11 604,06 0,00 1.236,17 4.462,03 587,00 84,35 31/01/2013
559 427000 DANIELA TEIXEIRA DINIZ ANDRADE ANALISTA DO MP ATIVO BELO HORIZONTE - COMARCA; DIVIS DE PROJETOS DE ENGENHARIA E ARQUITETURA 4.854,78 291,29 0,00 0,00 0,00 0,00 5.146,07 571,48 468,92 0,00 1.040,40 4.105,67 587,00 86,03 31/01/2013
560 337200 DANIELA TOLEDO SENIUK ANALISTA DO MP ATIVO BELO HORIZONTE - COMARCA; CGMP-SECRETARIA DA CORREGEDORIA-GERAL DO MP 6.801,32 680,13 0,00 0,00 0,00 0,00 7.481,45 822,96 993,21 0,00 1.816,17 5.665,28 587,00 0,00 31/01/2013
561 229900 DANIELA UCHOA SALOMON ANALISTA DO MP ATIVO BELO HORIZONTE - COMARCA; CAO-PATRIMONIO PUBLICO-SECRETARIA 7.251,34 1.450,27 0,00 0,00 0,00 0,00 8.701,61 957,18 1.339,14 0,00 2.296,32 6.405,29 587,00 0,00 31/01/2013
562 195500 DANIELE CHAVES FONSECA ASSESSOR/OFICIAL ATIVO BELO HORIZONTE - COMARCA; ASSESSORIA ESPECIAL DO PGJ 0,00 1.497,49 7.487,46 0,00 0,00 0,00 8.984,95 1.062,33 1.388,14 0,00 2.450,47 6.534,48 3.567,68 294,77 31/01/2013
563 323400 DANIELE MEGALE SANTINI OFICIAL DO MP ATIVO BELO HORIZONTE - COMARCA; ASSESS TECNICO-JUR JUNTO AS PROC. DE JUST 5.176,02 517,60 0,00 0,00 0,00 0,00 5.693,62 632,18 602,93 0,00 1.235,11 4.458,51 3.802,68 388,07 31/01/2013
564 357900 DANIELE REJANE PINTO VERSIEUX OFICIAL DO MP ATIVO PEDRO LEOPOLDO - COMARCA; PEDRO LEOPOLDO-PJ-01PJ 4.701,73 470,17 0,00 0,00 0,00 0,00 5.171,90 574,55 475,24 0,00 1.049,79 4.122,11 3.567,68 384,33 31/01/2013
565 389500 DANIELE VASCONCELOS AMORIM OFICIAL DO MP ATIVO SÃO SEBASTIÃO DO PARAÍSO - COMARCA; SAO SEBASTIAO DO PARAISO-PJ-04PJ 4.553,46 273,21 0,00 0,00 0,00 0,00 4.826,67 534,04 390,75 0,00 924,79 3.901,88 352,00 50,02 31/01/2013
566 265000 DANIELLE CASTANHEIRA SCALABRINI OFICIAL DO MP ATIVO BELO HORIZONTE - COMARCA; JUNTA RECURSAL DO PROCON ESTADUAL 4.854,78 485,48 0,00 0,00 1.780,09 0,00 7.120,35 688,14 1.088,19 0,00 1.776,33 5.344,02 352,00 915,60 31/01/2013
567 490100 DANIELLE DE AVILA SILVA LOPES ANALISTA DO MP ATIVO BELO HORIZONTE - COMARCA; PROC. JUSTICA DIR. DIFUSOS E COLETIVOS-SEC 5.176,02 517,60 0,00 0,00 0,00 0,00 5.693,62 630,51 602,93 0,00 1.233,44 4.460,18 352,00 67,05 31/01/2013
568 379900 DANIELLE GUIMARAES CARNEIRO PERES ANALISTA DO MP ATIVO BELO HORIZONTE - COMARCA; DIRETORIA DE ORCAMENTO-DIOR/SPC 6.379,14 382,75 0,00 0,00 0,00 0,00 6.761,89 743,81 864,39 0,00 1.608,20 5.153,69 587,00 0,00 31/01/2013
569 380800 DANILLO RIBEIRO ANTUNES ANALISTA DO MP ATIVO MONTES CLAROS - COMARCA; MONTES CLAROS-PJ-SECRETARIA 6.379,14 382,75 0,00 0,00 2.253,96 0,00 9.015,85 743,81 1.484,23 0,00 2.228,04 6.787,81 352,00 0,00 31/01/2013
570 453700 DANILO BOTELHO DE CARVALHO ANALISTA DO MP ATIVO BELO HORIZONTE - COMARCA; DIRETORIA DE ADMINISTRACAO FINANCEIRA 5.698,20 0,00 0,00 0,00 0,00 0,00 5.698,20 761,11 902,89 0,00 1.664,00 4.034,20 3.567,68 1.515,77 31/01/2013
571 391200 DANILO D'AVILA MENDES ANALISTA DO MP ATIVO JANAÚBA - COMARCA; JANAUBA-PJ-01PJ 6.379,14 382,75 0,00 0,00 0,00 0,00 6.761,89 794,81 977,88 0,00 1.772,69 4.989,20 3.567,68 758,45 31/01/2013
572 494900 DANILO GAVIAO AVELINO DE MELLO ANALISTA DO MP ATIVO POUSO ALEGRE - COMARCA; POUSO ALEGRE-PJ-08PJ 4.701,73 0,00 0,00 0,00 1.567,24 0,00 6.268,97 520,07 791,16 0,00 1.311,23 4.957,74 352,00 46,24 31/01/2013
573 298300 DANUZA MONICA DE SOUZA DINIZ ANALISTA DO MP ATIVO DIVINÓPOLIS - COMARCA; DIVINOPOLIS-PJ-02PJ 6.586,88 658,69 0,00 0,00 0,00 0,00 7.245,57 797,01 935,48 0,00 1.732,49 5.513,08 3.567,68 294,77 31/01/2013
574 398700 DARCY LUIZ MILEO GREGATTI OFICIAL DO MP ATIVO LAMBARI - COMARCA; LAMBARI-PJ-SECRETARIA 3.469,26 208,16 0,00 0,00 0,00 0,00 3.677,42 407,26 170,34 0,00 577,60 3.099,82 352,00 44,31 31/01/2013
575 406200 DARIANA AUGUSTA DE TOLEDO PATROCINIO ASSESSOR/OFICIAL ATIVO BELO HORIZONTE - COMARCA; EXTINTA - DIRETORIA DE CONTRATOS E CONVÊNIOS 0,00 449,25 7.487,46 0,00 0,00 0,00 7.936,71 536,73 1.246,75 0,00 1.783,48 6.153,23 352,00 94,57 31/01/2013
576 305000 DARLI LEITE DE OLIVEIRA OFICIAL DO MP ATIVO ARAÇUAÍ - COMARCA; ARACUAI-PJ-02PJ 4.409,86 440,99 0,00 0,00 0,00 0,00 4.850,85 652,51 519,39 0,00 1.171,90 3.678,95 3.802,68 1.322,26 31/01/2013
577 122200 DAVID RIBEIRO DOS SANTOS ANALISTA DO MP ATIVO BORDA DA MATA - COMARCA; BORDA DA MATA-PJ-UNPJ 13.036,58 9.125,60 0,00 0,00 0,00 0,00 22.162,18 3.408,94 5.893,56 0,00 9.302,50 12.859,68 3.567,68 9.935,24 31/01/2013
578 389400 DAWSON CANEDO MARQUES OFICIAL DO MP ATIVO GOVERNADOR VALADARES - COMARCA; GOVERNADOR VALADARES-PJ-08PJ 4.553,46 273,21 0,00 0,00 0,00 0,00 4.826,67 533,88 350,85 0,00 884,73 3.941,94 352,00 47,50 31/01/2013
579 256100 DAYSE ROSALY PEREIRA BATISTA OFICIAL DO MP ATIVO BELO HORIZONTE - COMARCA; PROCON-MG-SECRETARIA DE FISCALIZACOES 4.553,46 910,69 0,00 0,00 0,00 0,00 5.464,15 607,18 404,89 0,00 1.012,07 4.452,08 3.567,68 391,79 31/01/2013
580 311901 DEBORA APARECIDA DA SILVA ASSESSOR ATIVO BELO HORIZONTE - COMARCA; BH-23PJ CIVEL-SETOR ATEND PUB 0,00 0,00 2.215,31 0,00 0,00 0,00 2.215,31 360,23 10,82 0,00 371,05 1.844,26 352,00 11,77 31/01/2013
581 194301 DEBORA APARECIDA DOS SANTOS ANALISTA DO MP ATIVO UBERLÂNDIA - COMARCA; UBERLANDIA-COORD CONJ-FAMÍLIA E JUIZ ESP CRIM 7.731,26 1.546,25 0,00 0,00 3.092,50 0,00 12.370,01 1.020,53 2.330,53 0,00 3.351,06 9.018,95 352,00 0,00 31/01/2013
582 518800 DEBORA CARVALHO FIORATTO OFICIAL DO MP ATIVO CONTAGEM - COMARCA; CONTAGEM-PJ-11PJ 2.955,70 0,00 0,00 0,00 0,00 0,00 2.955,70 341,85 94,28 0,00 436,13 2.519,57 3.307,70 299,83 31/01/2013
583 444900 DEBORA CLAUDIA PEREIRA ALVES ANALISTA DO MP ATIVO BELO HORIZONTE - COMARCA; BH-08PJ JUIZADO ESPECIAL-SECRETARIA 5.883,73 353,02 0,00 0,00 0,00 0,00 6.236,75 692,23 735,87 0,00 1.428,10 4.808,65 822,00 98,04 31/01/2013
584 513100 DEBORA CRISTINA PEREIRA DE OLIVEIRA ANALISTA DO MP ATIVO BELO HORIZONTE - COMARCA; BH-23PJ CIVEL-SETOR JURIDICO 4.701,73 0,00 0,00 0,00 0,00 0,00 4.701,73 597,06 537,76 0,00 1.134,82 3.566,91 1.609,90 821,37 31/01/2013
585 424100 DEBORA SANTOS E ALVES ANALISTA DO MP ATIVO JANUÁRIA - COMARCA; JANUARIA-PJ-01PJ 6.379,14 382,75 0,00 0,00 2.253,96 0,00 9.015,85 867,03 1.612,76 0,00 2.479,79 6.536,06 352,00 1.120,27 31/01/2013
586 426300 DEBORA SCUCATO MACHADO SOARES OFICIAL DO MP ATIVO ITABIRA - COMARCA; ITABIRA-PJ-03PJ 3.469,26 208,16 0,00 0,00 0,00 0,00 3.677,42 406,87 170,34 0,00 577,21 3.100,21 352,00 38,29 31/01/2013
587 438000 DEBORAH COSTA LAGE ANALISTA DO MP ATIVO BELO HORIZONTE - COMARCA; ASSESS TECNICO-JUR JUNTO AS PROC. DE JUST 5.883,73 353,02 0,00 0,00 0,00 0,00 6.236,75 686,04 735,87 0,00 1.421,91 4.814,84 352,00 0,00 31/01/2013
588 475700 DEBORAH LOBAO LACERDA OFICIAL DO MP ATIVO BELO HORIZONTE - COMARCA; BH-23PJ INFRACIONAL 3.051,96 0,00 0,00 0,00 0,00 0,00 3.051,96 414,24 138,17 0,00 552,41 2.499,55 352,00 818,88 31/01/2013
589 506200 DEBORAH RALEMADHA RODRIGUES MELO ANALISTA DO MP ATIVO BELO HORIZONTE - COMARCA; PROC JUST ESP ACOES COMP ORIG CRIMINAL-ASSESS 5.176,02 0,00 0,00 0,00 0,00 0,00 5.176,02 569,63 476,25 0,00 1.045,88 4.130,14 352,00 5,29 31/01/2013
590 501900 DELI RAQUEL RODRIGUES ANALISTA DO MP ATIVO ITUIUTABA - COMARCA; ITUIUTABA-PJ-04PJ 4.701,73 0,00 0,00 0,00 0,00 0,00 4.701,73 518,65 364,52 0,00 883,17 3.818,56 352,00 23,93 31/01/2013
591 378600 DELIANE LOPES VIEIRA BREIJAO NEVES ANALISTA DO MP ATIVO SANTOS DUMONT - COMARCA; SANTOS DUMONT-PJ-03PJ 6.379,14 382,75 0,00 0,00 0,00 0,00 6.761,89 743,81 864,39 0,00 1.608,20 5.153,69 352,00 0,00 31/01/2013
592 522500 DELMINDA MARIA LEAO E SILVA OFICIAL DO MP ATIVO ITAGUARA - COMARCA; ITAGUARA-PJ-UNPJ 2.684,83 1.879,38 0,00 0,00 0,00 0,00 4.564,21 502,06 259,60 0,00 761,66 3.802,55 352,00 0,00 31/01/2013
593 393000 DENER LOPES MACHADO ANALISTA DO MP ATIVO PATOS DE MINAS - COMARCA; COORD REG BACIAS PARACATU,URUCUIA E ABAETE 5.344,58 320,67 0,00 0,00 0,00 0,00 5.665,25 623,18 595,99 0,00 1.219,17 4.446,08 352,00 0,00 31/01/2013
594 487700 DENIA FERREIRA MAIA SILVA OFICIAL DO MP ATIVO TRÊS CORACOES - COMARCA; TRES CORACOES-PJ-01PJ 2.772,23 0,00 0,00 0,00 0,00 0,00 2.772,23 305,85 43,84 0,00 349,69 2.422,54 587,00 15,42 31/01/2013
595 424800 DENIS APARECIDO CAMPOS DELFINO ANALISTA DO MP ATIVO LUZ - COMARCA; LUZ-PJ-UNPJ 5.883,73 353,02 0,00 0,00 0,00 0,00 6.236,75 686,04 546,70 0,00 1.232,74 5.004,01 3.802,68 294,77 31/01/2013
596 381400 DENISE ANGELICA MELLO DE PAULA OFICIAL DO MP ATIVO BELO HORIZONTE - COMARCA; BH-18PJ DIREITOS HUMANOS-SECRETARIA 4.553,46 273,21 0,00 0,00 0,00 0,00 4.826,67 534,84 390,75 0,00 925,59 3.901,08 1.317,33 150,96 31/01/2013
597 196300 DENISE DE ALMEIDA VILELA FURTADO OFICIAL DO MP ATIVO BELO HORIZONTE - COMARCA; CENTRAL DE APOIO TECNICO-SECRETARIA 6.177,98 1.235,60 0,00 0,00 0,00 0,00 7.413,58 815,49 929,31 0,00 1.744,80 5.668,78 352,00 0,00 31/01/2013
598 336900 DENISE DE SOUSA MORAES SILVA OFICIAL DO MP ATIVO MATEUS LEME - COMARCA; MATEUS LEME-PJ-02PJ 4.005,77 400,58 0,00 0,00 1.468,78 0,00 5.875,13 489,48 691,79 0,00 1.181,27 4.693,86 352,00 76,15 31/01/2013
599 271100 DENISE ELOY PEIXOTO OFICIAL DO MP ATIVO BELO HORIZONTE - COMARCA; GAECO - SECRETARIA 5.698,20 569,82 0,00 0,00 0,00 0,00 6.268,02 689,48 1.083,89 0,00 1.773,37 4.494,65 3.567,68 1.532,49 31/01/2013
600 385400 DENISE FREITAS DE ASSIS OFICIAL DO MP ATIVO CARATINGA - COMARCA; CARATINGA-PJ-01PJ 4.136,15 248,17 0,00 0,00 0,00 0,00 4.384,32 485,70 223,57 0,00 709,27 3.675,05 352,00 54,91 31/01/2013
601 437100 DENISE NOGUEIRA MAGRI MENDES ANALISTA DO MP ATIVO BELO HORIZONTE - COMARCA; CAO-ORDEM ECONOMICA E TRIBUTARIA-SECRETARIA 5.883,73 1.176,75 0,00 0,00 0,00 0,00 7.060,48 776,65 795,60 0,00 1.572,25 5.488,23 587,00 0,00 31/01/2013
602 524700 DENISE RAMOS GUIMARAES OFICIAL DO MP ATIVO SANTA LUZIA - COMARCA; SANTA LUZIA-PJ-02PJ 2.955,70 0,00 0,00 0,00 985,23 0,00 3.940,93 325,13 236,56 0,00 561,69 3.379,24 352,00 0,00 31/01/2013
603 239100 DENISE RIBEIRO DOS SANTOS CAETANO OFICIAL DO MP ATIVO ITANHANDU - COMARCA; ITANHANDU-PJ-SECRETARIA 5.883,73 1.176,75 0,00 0,00 0,00 0,00 7.060,48 776,65 842,89 0,00 1.619,54 5.440,94 352,00 0,00 31/01/2013
604 325500 DENISE ROSA TORRES ASSESSOR/OFICIAL ATIVO BELO HORIZONTE - COMARCA; DIRETORIA DE PESSOAL ADMINISTRATIVO - DPAD 0,00 748,75 7.487,46 0,00 0,00 0,00 8.236,21 646,69 1.296,54 0,00 1.943,23 6.292,98 3.567,68 294,77 31/01/2013
605 437200 DENISE VIVIANE DOS SANTOS ANALISTA DO MP ATIVO BELO HORIZONTE - COMARCA; CGMP-ASSESSORIA JURIDICA 5.344,58 320,67 0,00 0,00 0,00 0,00 5.665,25 628,74 595,99 0,00 1.224,73 4.440,52 3.567,68 383,09 31/01/2013
606 267900 DENISIA DE ALMEIDA SALES OFICIAL DO MP ATIVO BELO HORIZONTE - COMARCA; CAO-SAUDE-SECRETARIA 4.409,86 440,99 0,00 0,00 0,00 0,00 4.850,85 539,45 317,00 0,00 856,45 3.994,40 3.567,68 334,17 31/01/2013
607 480300 DESIREE ARANTES FERREIRA GOUVEA OFICIAL DO MP ATIVO PRATÁPOLIS - COMARCA; PRATAPOLIS-PJ-UNPJ 2.772,23 0,00 0,00 0,00 924,08 0,00 3.696,31 306,34 188,10 0,00 494,44 3.201,87 352,00 23,22 31/01/2013
608 355300 DEYSE CRISTINA MORAIS OFICIAL DO MP ATIVO PASSOS - COMARCA; PASSOS-PJ-02PJ 3.879,42 387,94 0,00 0,00 0,00 0,00 4.267,36 473,94 277,54 0,00 751,48 3.515,88 3.567,68 313,40 31/01/2013
609 523700 DIANA CAMPOS RESENDE OFICIAL DO MP ATIVO SÃO JOÃO DEL REI - COMARCA; SAO JOAO DEL REI-PJ-04PJ 2.955,70 1.182,28 0,00 0,00 0,00 0,00 4.137,98 455,18 251,63 0,00 706,81 3.431,17 352,00 0,00 31/01/2013
610 241900 DIANA CARDOSO MARTINS OFICIAL DO MP ATIVO BELO HORIZONTE - COMARCA; DIRETORIA DE PRODUCAO EDITORIAL 4.701,73 940,35 0,00 0,00 0,00 0,00 5.642,08 620,63 590,32 0,00 1.210,95 4.431,13 3.567,68 294,77 31/01/2013
611 410100 DIANA GORDILHO SILVEIRA SENA ANALISTA DO MP ATIVO BELO HORIZONTE - COMARCA; ASSESS TECNICO-JUR JUNTO AS PROC. DE JUST 6.379,14 382,75 0,00 0,00 0,00 0,00 6.761,89 743,81 864,39 0,00 1.608,20 5.153,69 3.567,68 294,77 31/01/2013
612 520000 DIARLE TOSTE DOS SANTOS ANALISTA DO MP ATIVO RIO POMBA - COMARCA; RIO POMBA-PJ-UNPJ 4.553,46 0,00 0,00 0,00 0,00 0,00 4.553,46 500,88 218,75 0,00 719,63 3.833,83 3.319,08 204,91 31/01/2013
613 388100 DIEGO CESAR DO NASCIMENTO PERONI OFICIAL DO MP ATIVO CASSIA - COMARCA; CASSIA-PJ-02PJ 3.469,26 208,16 0,00 0,00 0,00 0,00 3.677,42 407,47 170,34 0,00 577,81 3.099,61 352,00 47,52 31/01/2013
614 446900 DIEGO DE FREITAS OFICIAL DO MP ATIVO UBERABA - COMARCA; UBERABA-PJ-06PJ 3.151,29 189,08 0,00 0,00 0,00 0,00 3.340,37 395,90 139,58 0,00 535,48 2.804,89 394,12 279,37 31/01/2013
615 379800 DIEGO OSORIO DA SILVA CORDEIRO OFICIAL DO MP ATIVO CONSELHEIRO LAFAIETE - COMARCA; CONSELHEIRO LAFAIETE-PJ-05PJ 3.757,11 225,43 0,00 0,00 0,00 0,00 3.982,54 441,08 220,50 0,00 661,58 3.320,96 352,00 48,34 31/01/2013
616 288800 DILENE NEPOMUCENO ALVES OFICIAL DO MP ATIVO BELO HORIZONTE - COMARCA; DIRETORIA DE PESSOAL ADMINISTRATIVO - DPAD 5.518,54 551,85 0,00 0,00 0,00 0,00 6.070,39 667,74 695,15 0,00 1.362,89 4.707,50 352,00 0,00 31/01/2013
617 270100 DILSON DO AMARAL OFICIAL DO MP ATIVO RIO CASCA - COMARCA; RIO CASCA-PJ-SECRETARIA 5.012,79 501,28 0,00 0,00 0,00 0,00 5.514,07 612,29 558,99 0,00 1.171,28 4.342,79 352,00 91,09 31/01/2013
618 466000 DIMITRI GUDE MARCIAL ANALISTA DO MP ATIVO NANUQUE - COMARCA; NANUQUE-PJ-02PJ 4.270,85 0,00 0,00 0,00 0,00 0,00 4.270,85 535,50 349,48 0,00 884,98 3.385,87 3.802,68 874,75 31/01/2013
619 516300 DINORA APARECIDA MACEDO BRANDAO ANALISTA DO MP ATIVO BELO HORIZONTE - COMARCA; PROC JUST ESP ACOES COMP ORIG CRIMINAL-ASSESS 4.270,85 0,00 0,00 0,00 0,00 0,00 4.270,85 502,92 305,21 0,00 808,13 3.462,72 352,00 346,40 31/01/2013
620 511700 DIOGENES HENRIQUES PEREIRA LOURENCO ANALISTA DO MP ATIVO CONTAGEM - COMARCA; CONTAGEM-PJ-22PJ 5.176,02 0,00 0,00 0,00 0,00 0,00 5.176,02 569,41 476,25 0,00 1.045,66 4.130,36 2.061,17 158,04 31/01/2013
621 387800 DIOGO FELIX DA SILVA OFICIAL DO MP ATIVO MANTENA - COMARCA; MANTENA-PJ-SECRETARIA 3.469,26 208,16 0,00 0,00 1.225,81 0,00 4.903,23 407,46 446,57 0,00 854,03 4.049,20 3.567,68 208,18 31/01/2013
622 259600 DIOGO MESQUITA MAIA ANALISTA DO MP ATIVO BELO HORIZONTE - COMARCA; DIRET DE APOIO AS PROCURADORIAS DE JUSTICA 7.982,93 5.588,05 0,00 0,00 4.523,66 0,00 18.094,64 1.492,81 3.633,05 0,00 5.125,86 12.968,78 587,00 0,00 31/01/2013
623 364100 DIOGO OLIVEIRA CANUTO OFICIAL DO MP ATIVO BELO HORIZONTE - COMARCA; EXTINTA-04ª PJ JUÍZO REG PÚBLICOS-SECRETARIA 4.553,46 455,35 0,00 0,00 0,00 0,00 5.008,81 555,51 435,33 0,00 990,84 4.017,97 3.567,68 367,12 31/01/2013
624 386700 DIRCIMAR FERNANDES CARNEIRO OFICIAL DO MP ATIVO ALTO RIO DOCE - COMARCA; ALTO RIO DOCE-PJ-UNPJ 4.553,46 1.821,39 0,00 0,00 0,00 0,00 6.374,85 743,31 863,29 0,00 1.606,60 4.768,25 3.567,68 677,32 31/01/2013
625 113800 DIRSON APARECIDO GUIMARAES ASSESSOR ATIVO BELO HORIZONTE - COMARCA; DIRETORIA DE MANUTENCAO PREDIAL 0,00 1.772,24 2.215,31 0,00 0,00 0,00 3.987,55 457,49 131,52 0,00 589,01 3.398,54 2.744,53 186,34 31/01/2013
626 216700 DOMICIO VALDETE PEREIRA OFICIAL DO MP ATIVO TEÓFILO OTONI - COMARCA; COORD REG PJ DEF EDU DIR CRIAN ADOL JEQUI MUC 7.487,46 1.497,49 0,00 0,00 2.994,98 0,00 11.979,93 1.140,82 2.334,92 0,00 3.475,74 8.504,19 352,00 1.386,18 31/01/2013
627 85700 DONIZETTE PEREIRA DOS SANTOS OFICIAL DO MP ATIVO BELO HORIZONTE - COMARCA; EXTINTA - PROTOCOLO DA PGJ 15.227,00 10.658,90 0,00 0,00 8.039,21 0,00 33.925,11 2.652,94 7.181,11 1.768,28 11.602,33 22.322,78 352,00 0,00 31/01/2013
628 192701 DONIZETTI APARECIDO AMORIM ANALISTA DO MP ATIVO PRATÁPOLIS - COMARCA; PRATAPOLIS-PJ-UNPJ 4.701,73 940,35 0,00 0,00 0,00 0,00 5.642,08 789,61 716,87 0,00 1.506,48 4.135,60 352,00 1.576,41 31/01/2013
629 276700 DORALICE ROSA DE OLIVEIRA FREITAS OFICIAL DO MP ATIVO CARMO DA MATA - COMARCA; CARMO DA MATA-PJ-SECRETARIA 4.409,86 3.527,89 0,00 0,00 0,00 873,15 8.810,90 873,15 1.392,30 0,00 2.265,45 6.545,45 352,00 0,00 31/01/2013
630 265900 DOUGLAS GOMES MOREIRA ANALISTA DO MP ATIVO BELO HORIZONTE - COMARCA; CENTRAL DE APOIO TECNICO-SETOR DE ENGENHARIA 8.788,36 878,84 0,00 0,00 0,00 0,00 9.667,20 1.063,39 1.575,47 0,00 2.638,86 7.028,34 352,00 0,00 31/01/2013
631 241000 DOUGLAS MEIRELLES DE CASTRO OFICIAL DO MP ATIVO CONCEIÇÃO DO RIO VERDE - COMARCA; CONCEICAO DO RIO VERDE-PJ-UNPJ 6.075,32 1.215,06 0,00 0,00 2.430,13 0,00 9.720,51 801,94 1.567,44 0,00 2.369,38 7.351,13 587,00 0,00 31/01/2013
632 146800 DUCINALVA AMARAL LOPES REIS OFICIAL DO MP ATIVO PARAISÓPOLIS - COMARCA; PARAISOPOLIS-PJ-UNPJ 8.788,36 4.394,18 0,00 0,00 0,00 0,00 13.182,54 1.450,08 2.246,68 0,00 3.696,76 9.485,78 587,00 0,00 31/01/2013
633 122500 DUILIO CARLOS FERREIRA UTSCH OFICIAL DO MP ATIVO CONCEIÇÃO DO MATO DENTRO - COMARCA; CONCEICAO DO MATO DENTRO-PJ-UNPJ 7.487,46 5.241,23 0,00 0,00 0,00 0,00 12.728,69 1.400,16 2.324,77 0,00 3.724,93 9.003,76 352,00 0,00 31/01/2013
634 201800 DULCINEIA ANDRE DE SOUZA OFICIAL DO MP ATIVO JEQUITINHONHA - COMARCA; JEQUITINHONHA-PJ-SECRETARIA 7.487,46 1.497,49 0,00 0,00 0,00 0,00 8.984,95 988,34 1.219,32 0,00 2.207,66 6.777,29 587,00 0,00 31/01/2013
635 395800 DUVIDIER MEDIRCIO JUNIOR ANALISTA DO MP ATIVO BELO HORIZONTE - COMARCA; CENTRAL DE APOIO TECNICO-SETOR DE ENGENHARIA 5.883,73 353,02 0,00 0,00 2.078,92 0,00 8.315,67 686,04 1.307,57 0,00 1.993,61 6.322,06 352,00 0,00 31/01/2013
636 273000 EDELFINA APARECIDA GUIMARAES OFICIAL DO MP ATIVO BELO HORIZONTE - COMARCA; PROMOT ESTADUAL DE DEF PATRI CULT E TUR DE MG 4.854,78 1.941,91 0,00 0,00 0,00 0,00 6.796,69 747,64 778,33 0,00 1.525,97 5.270,72 3.567,68 294,77 31/01/2013
637 523300 EDER DOS SANTOS PATRICIO ANALISTA DO MP ATIVO NOVA SERRANA - COMARCA; NOVA SERRANA-PJ-03PJ 4.136,15 0,00 0,00 0,00 0,00 0,00 4.136,15 454,98 251,26 0,00 706,24 3.429,91 352,00 0,00 31/01/2013
638 356700 EDER JOSE PACHECO OFICIAL DO MP ATIVO CAMPO BELO - COMARCA; CAMPO BELO-PJ-SECRETARIA 4.701,73 470,17 0,00 0,00 0,00 0,00 5.171,90 568,91 427,95 0,00 996,86 4.175,04 3.935,68 294,77 31/01/2013
639 507900 EDERSON SILVA LOPES OFICIAL DO MP ATIVO BELO HORIZONTE - COMARCA; SERVICO MEDICO-DEPTO PERIC MEDICA SAUDE OCUP 2.772,23 0,00 0,00 0,00 0,00 0,00 2.772,23 305,02 56,74 0,00 361,76 2.410,47 352,00 1,75 31/01/2013
640 296200 EDGARD GOULART MATOSINHO DE LAET JUNIOR ANALISTA DO MP ATIVO GOVERNADOR VALADARES - COMARCA; GOVERNADOR VALADARES-PJ-SECRETARIA 7.982,93 798,29 0,00 0,00 0,00 0,00 8.781,22 965,93 1.216,75 0,00 2.182,68 6.598,54 587,00 0,00 31/01/2013
641 295000 EDILA MARIA DA SILVEIRA OFICIAL DO MP ATIVO FORMIGA - COMARCA; FORMIGA-PJ-SECRETARIA 4.553,46 455,35 0,00 0,00 0,00 0,00 5.008,81 556,11 435,33 0,00 991,44 4.017,37 352,00 81,80 31/01/2013
642 332300 EDILA MARILAC MIRANDA PRADO OFICIAL DO MP ATIVO DIAMANTINA - COMARCA; DIAMANTINA-PJ-03PJ 4.701,73 1.410,52 0,00 0,00 0,00 0,00 6.112,25 672,35 610,81 0,00 1.283,16 4.829,09 3.567,68 294,77 31/01/2013
643 376600 EDILANE CONSOLACAO ROSA NAZARETH ANALISTA DO MP ATIVO BETIM - COMARCA; BETIM-PJ-10PJ 6.379,14 382,75 0,00 0,00 0,00 0,00 6.761,89 743,81 864,39 0,00 1.608,20 5.153,69 352,00 0,00 31/01/2013
644 301500 EDILENE APARECIDA DE CARVALHO ANALISTA DO MP ATIVO BELO HORIZONTE - COMARCA; DIRETORIA DE ADMINISTRACAO FINANCEIRA 7.982,93 798,29 0,00 0,00 0,00 0,00 8.781,22 965,93 1.358,62 0,00 2.324,55 6.456,67 352,00 0,00 31/01/2013
645 309800 EDILZA DOS REIS OFICIAL DO MP ATIVO UBERLÂNDIA - COMARCA; UBERLANDIA-PJ-03PJ 5.344,58 534,46 0,00 0,00 0,00 0,00 5.879,04 646,69 601,02 0,00 1.247,71 4.631,33 352,00 0,00 31/01/2013
646 200500 EDINEIA MARIA DE OLIVEIRA ANTUNES OFICIAL DO MP ATIVO MONTES CLAROS - COMARCA; MONTES CLAROS-PJ-10PJ 7.487,46 2.246,24 0,00 0,00 0,00 0,00 9.733,70 1.070,71 1.591,74 0,00 2.662,45 7.071,25 352,00 0,00 31/01/2013
647 427700 EDISANGELA SOARES LOPES OFICIAL DO MP ATIVO PIRAPORA - COMARCA; PIRAPORA-PJ-03PJ 3.469,26 208,16 0,00 0,00 0,00 0,00 3.677,42 407,26 170,34 0,00 577,60 3.099,82 352,00 44,24 31/01/2013
648 517700 EDMILSON TADEU FERNANDES OFICIAL DO MP ATIVO POUSO ALEGRE - COMARCA; POUSO ALEGRE-PJ-04PJ 2.955,70 0,00 0,00 0,00 0,00 0,00 2.955,70 325,14 73,99 0,00 399,13 2.556,57 3.307,70 148,09 31/01/2013
649 358400 EDNA APARECIDA SILVA FERREIRA OFICIAL DO MP ATIVO CORONEL FABRICIANO - COMARCA; CORONEL FABRICIANO-PJ-02PJ 4.701,73 470,17 0,00 0,00 0,00 0,00 5.171,90 574,91 475,24 0,00 1.050,15 4.121,75 3.802,68 389,84 31/01/2013
650 331800 EDNA MARCIA CAMILO DA SILVA OFICIAL DO MP ATIVO SETE LAGOAS - COMARCA; SETE LAGOAS-PJ-07PJ 5.344,58 534,46 0,00 0,00 0,00 0,00 5.879,04 646,69 648,32 0,00 1.295,01 4.584,03 3.567,68 294,77 31/01/2013
651 87400 EDNA MARIA DE LIMA OFICIAL DO MP ATIVO BELO HORIZONTE - COMARCA; EXTINTA - DIVISÃO DE MATERIAL PERMANENTE 7.487,46 3.743,73 0,00 0,00 0,00 0,00 11.231,19 1.235,43 1.910,96 0,00 3.146,39 8.084,80 3.567,68 294,77 31/01/2013
652 422800 EDNILSON DE SOUZA FERREIRA ASSESSOR ATIVO BELO HORIZONTE - COMARCA; DIRET DE INFORMACAO E EXPEDICAO DE PROCESSOS 0,00 0,00 2.215,31 0,00 738,44 0,00 2.953,75 282,40 80,10 0,00 362,50 2.591,25 352,00 0,00 31/01/2013
653 327900 EDRIEL SANTANA PEREIRA OFICIAL DO MP ATIVO TUPACIGUARA - COMARCA; TUPACIGUARA-PJ-01PJ 5.344,58 534,46 0,00 0,00 0,00 0,00 5.879,04 646,69 648,32 0,00 1.295,01 4.584,03 379,78 0,00 31/01/2013
654 482400 EDSON GARCIA OFICIAL DO MP ATIVO MACHADO - COMARCA; MACHADO-PJ-SECRETARIA 2.772,23 0,00 0,00 0,00 924,08 0,00 3.696,31 337,70 243,15 0,00 580,85 3.115,46 3.124,23 377,65 31/01/2013
655 225601 EDSON LABRE FILHO ANALISTA DO MP ATIVO VARGINHA - COMARCA; VARGINHA-PJ-01PJ 7.982,93 1.596,59 0,00 0,00 0,00 0,00 9.579,52 1.053,75 1.554,01 0,00 2.607,76 6.971,76 3.567,68 294,77 31/01/2013
656 414400 EDUARDO ABRANTES CAMPOS ANALISTA DO MP ATIVO OLIVEIRA - COMARCA; OLIVEIRA-PJ-02PJ 6.379,14 382,75 0,00 0,00 0,00 0,00 6.761,89 913,24 1.041,05 0,00 1.954,29 4.807,60 352,00 1.715,42 31/01/2013
657 476800 EDUARDO ALVES DE MOURA ANALISTA DO MP ATIVO UBERLÂNDIA - COMARCA; UBERLANDIA-PJ-19PJ 4.701,73 0,00 0,00 0,00 0,00 0,00 4.701,73 522,64 364,52 0,00 887,16 3.814,57 352,00 86,59 31/01/2013
658 390800 EDUARDO AMORIM PETTERSEN OFICIAL DO MP ATIVO CARANGOLA - COMARCA; CARANGOLA-PJ-03PJ 3.469,26 208,16 0,00 0,00 0,00 0,00 3.677,42 407,47 170,34 0,00 577,81 3.099,61 352,00 47,61 31/01/2013
659 461600 EDUARDO ANTONIO DE ASSIS FARIA ASSESSOR ATIVO BELO HORIZONTE - COMARCA; ASSESS EXECUTIVA DO CONSELHO SUPERIOR DO MP 0,00 0,00 3.698,79 0,00 0,00 0,00 3.698,79 457,49 165,60 0,00 623,09 3.075,70 2.571,27 186,97 31/01/2013
660 248800 EDUARDO DE CASTRO AMORIM ANALISTA DO MP ATIVO BELO HORIZONTE - COMARCA; CAO-FUNDACOES-ASSESSORIA JURIDICA 9.369,85 1.873,97 0,00 0,00 0,00 0,00 11.243,82 1.236,82 1.961,35 0,00 3.198,17 8.045,65 352,00 0,00 31/01/2013
661 209100 EDUARDO DE SOUZA MAIA ANALISTA DO MP ATIVO BELO HORIZONTE - COMARCA; CAO-FUNDACOES-ASSESSORIA JURIDICA 10.651,04 2.130,21 0,00 0,00 0,00 0,00 12.781,25 1.405,94 2.195,76 0,00 3.601,70 9.179,55 352,00 0,00 31/01/2013
662 350500 EDUARDO GONCALVES RIBEIRO OFICIAL DO MP ATIVO VESPASIANO - COMARCA; VESPASIANO-PJ-04PJ 3.879,42 387,94 0,00 0,00 0,00 0,00 4.267,36 474,76 277,54 0,00 752,30 3.515,06 352,00 85,08 31/01/2013
663 115800 EDUARDO HENRIQUE DE CAMPOS MAIA OFICIAL DO MP ATIVO BELO HORIZONTE - COMARCA; EXTINTA - DIVISAO DE SERVICOS GERAIS 7.982,93 3.193,17 0,00 0,00 0,00 0,00 11.176,10 1.229,37 1.897,48 0,00 3.126,85 8.049,25 352,00 0,00 31/01/2013
664 392600 EDUARDO HENRIQUE DOS SANTOS COSTA ELIAZAR OFICIAL DO MP ATIVO MATOZINHOS - COMARCA; MATOZINHOS-PJ-02PJ 3.757,11 225,43 0,00 0,00 0,00 0,00 3.982,54 441,82 159,48 0,00 601,30 3.381,24 587,00 59,96 31/01/2013
665 122900 EDUARDO JOSE COSTA SILVA OFICIAL DO MP ATIVO SETE LAGOAS - COMARCA; SETE LAGOAS-PJ-04PJ 11.161,27 7.812,89 0,00 0,00 0,00 0,00 18.974,16 2.561,82 4.289,95 0,00 6.851,77 12.122,39 3.567,68 5.089,34 31/01/2013
666 418700 EDUARDO LEMOS SIMOES OFICIAL DO MP ATIVO LAVRAS - COMARCA; COORD REG DO MA DA BACIA DO RIO GRANDE 3.469,26 208,16 0,00 0,00 0,00 0,00 3.677,42 506,97 252,18 0,00 759,15 2.918,27 352,00 1.060,50 31/01/2013
667 407500 EDUARDO MASCARENHAS CURI AZEVEDO ANALISTA DO MP ATIVO BELO HORIZONTE - COMARCA; ASSESSORIA DE COMUNICACAO INTEGRADA 5.883,73 353,02 0,00 0,00 0,00 0,00 6.236,75 686,04 735,87 0,00 1.421,91 4.814,84 352,00 0,00 31/01/2013
668 257600 EDUARDO VALADARES CABRAL ASSESSOR/ANALISTA ATIVO BELO HORIZONTE - COMARCA; EXTINTA - SECRETARIA ADMINISTRATIVA 0,00 1.648,56 8.242,82 0,00 3.297,13 0,00 13.188,51 988,34 2.564,47 0,00 3.552,81 9.635,70 352,00 0,00 31/01/2013
669 401700 EDWANIA AMORIM DO CARMO OFICIAL DO MP ATIVO RIBEIRÃO DAS NEVES - COMARCA; RIBEIRAO DAS NEVES-PJ-10PJ 4.553,46 273,21 0,00 0,00 0,00 0,00 4.826,67 534,18 390,75 0,00 924,93 3.901,74 3.248,00 317,79 31/01/2013
670 303600 EFIGENIO SARAIVA LOPES ANALISTA DO MP ATIVO BELO HORIZONTE - COMARCA; DIRETORIA DE PAGAMENTO DE PESSOAL-DPAG 8.788,36 878,84 0,00 0,00 0,00 0,00 9.667,20 1.063,39 1.433,59 0,00 2.496,98 7.170,22 352,00 0,00 31/01/2013
671 312000 ELAINE APARECIDA DE ARAUJO RODRIGUES ASSESSOR/OFICIAL ATIVO DIVINÓPOLIS - COMARCA; DIVINOPOLIS-PJ-02PJ 0,00 2.941,87 5.883,73 0,00 2.941,87 0,00 11.767,47 801,04 2.177,90 0,00 2.978,94 8.788,53 352,00 0,00 31/01/2013
672 286000 ELAINE APARECIDA SILVA BERZOINI OFICIAL DO MP ATIVO JUIZ DE FORA - COMARCA; JUIZ DE FORA-PJ-07PJ 5.518,54 551,85 0,00 0,00 0,00 0,00 6.070,39 667,74 695,15 0,00 1.362,89 4.707,50 587,00 0,00 31/01/2013
673 509000 ELAINE CANDIDA PONTES OFICIAL DO MP ATIVO BELO HORIZONTE - COMARCA; BH-02PJ FAMILIA-SECRETARIA 2.772,23 0,00 0,00 0,00 0,00 0,00 2.772,23 305,01 56,74 0,00 361,75 2.410,48 3.124,23 70,76 31/01/2013
674 283601 ELAINE CRISTINA MEQUELINO DUARTE ANALISTA DO MP ATIVO ALFENAS - COMARCA; ALFENAS-PJ-04PJ 6.379,14 382,75 0,00 0,00 0,00 0,00 6.761,89 743,81 864,39 0,00 1.608,20 5.153,69 587,00 0,00 31/01/2013
675 455700 ELAINE DE OLIVEIRA CASTRO ANALISTA DO MP ATIVO POMPÉU - COMARCA; POMPEU-PJ-UNPJ 5.176,02 0,00 0,00 0,00 0,00 0,00 5.176,02 575,03 476,25 0,00 1.051,28 4.124,74 352,00 90,10 31/01/2013
676 367200 ELAINE MUNIZ BARBOSA FIGUEIREDO ANALISTA DO MP ATIVO BELO HORIZONTE - COMARCA; DIRETORIA DE REDES E BANCOS DE DADOS 7.487,46 748,75 0,00 0,00 0,00 0,00 8.236,21 913,75 1.242,51 0,00 2.156,26 6.079,95 352,00 70,59 31/01/2013
677 176900 ELAINE RIBEIRO TAVEIRA OFICIAL DO MP ATIVO BELO HORIZONTE - COMARCA; DIRETORIA DE PESSOAL ADMINISTRATIVO - DPAD 5.698,20 1.139,64 0,00 0,00 0,00 0,00 6.837,84 958,95 1.093,79 0,00 2.052,74 4.785,10 352,00 2.088,73 31/01/2013
678 496200 ELAINE SABRINA DIAS MOREIRA ANALISTA DO MP ATIVO CORONEL FABRICIANO - COMARCA; CORONEL FABRICIANO-PJ-03PJ 4.701,73 0,00 0,00 0,00 0,00 0,00 4.701,73 519,76 364,52 0,00 884,28 3.817,45 352,00 41,30 31/01/2013
679 489200 ELAINE VICENTINO GARCIA ANALISTA DO MP ATIVO BELO HORIZONTE - COMARCA; CENTRAL DE APOIO TECNICO-SETOR CONTABIL 5.176,02 1.035,20 0,00 0,00 0,00 0,00 6.211,22 687,00 729,62 0,00 1.416,62 4.794,60 822,00 60,20 31/01/2013
680 244500 ELCI ALVES DE SOUZA ASSESSOR ATIVO BELO HORIZONTE - COMARCA; CAO-DH CONT EXT ATIV POLIC E AP COMUN-SEC ADM 0,00 739,76 3.698,79 0,00 1.479,52 0,00 5.918,07 457,49 711,08 0,00 1.168,57 4.749,50 352,00 80,72 31/01/2013
681 472500 ELCI VAZ DE OLIVEIRA FILHO ANALISTA DO MP ATIVO PIUMHI - COMARCA; PIUMHI-PJ-02PJ 5.698,20 1.709,46 0,00 0,00 0,00 0,00 7.407,66 1.031,38 1.188,59 0,00 2.219,97 5.187,69 352,00 1.968,61 31/01/2013
682 385200 ELCI VIANA REIS OFICIAL DO MP ATIVO RIO PARDO DE MINAS - COMARCA; RIO PARDO DE MINAS-PJ-SECRETARIA 4.553,46 1.366,04 0,00 0,00 0,00 0,00 5.919,50 657,19 658,22 0,00 1.315,41 4.604,09 903,68 95,92 31/01/2013
683 289801 ELCIO JOSE DOS SANTOS ANALISTA DO MP ATIVO BELO HORIZONTE - COMARCA; EXTINTA - DIVISAO DE SERVICOS GERAIS 5.698,20 0,00 0,00 0,00 0,00 0,00 5.698,20 626,80 604,06 0,00 1.230,86 4.467,34 352,00 0,00 31/01/2013
684 123000 ELCIO VILHENA DE FARIA OFICIAL DO MP ATIVO BELO HORIZONTE - COMARCA; ARQUIVO DO MINISTERIO PUBLICO DO ESTADO DE MG 11.161,27 8.929,02 0,00 0,00 0,00 2.544,99 22.635,28 2.712,52 5.257,72 0,00 7.970,24 14.665,04 352,00 4.781,94 31/01/2013
685 503200 ELDER GOMES DUTRA ANALISTA DO MP ATIVO IGARAPÉ - COMARCA; IGARAPE-PJ-01PJ 5.176,02 0,00 0,00 0,00 0,00 0,00 5.176,02 570,84 476,25 0,00 1.047,09 4.128,93 352,00 24,23 31/01/2013
686 319600 ELEN TULER DE ALBERGARIA ANALISTA DO MP ATIVO BELO HORIZONTE - COMARCA; BH-19PJ SAUDE 6.379,14 1.275,83 0,00 0,00 2.551,66 0,00 10.206,63 842,05 1.784,68 0,00 2.626,73 7.579,90 587,00 0,00 31/01/2013
687 333100 ELENILDA ROCHA DE MORAES MELO OFICIAL DO MP ATIVO ALÉM PARAÍBA - COMARCA; ALEM PARAIBA-PJ-03PJ 4.005,77 400,58 0,00 0,00 0,00 0,00 4.406,35 489,52 227,98 0,00 717,50 3.688,85 352,00 76,87 31/01/2013
688 151000 ELI LOURENCO RIBEIRO AGENTE DO MP ATIVO BELO HORIZONTE - COMARCA; BH-17PJ PATRIMONIO PUBLICO-SECRETARIA 5.883,73 1.765,12 0,00 0,00 0,00 0,00 7.648,85 841,37 616,87 0,00 1.458,24 6.190,61 3.567,68 294,77 31/01/2013
689 205500 ELIANA ALVES DE SOUSA OFICIAL DO MP ATIVO GOVERNADOR VALADARES - COMARCA; GOVERNADOR VALADARES-PJ-07PJ 4.854,78 970,96 0,00 0,00 0,00 0,00 5.825,74 640,83 635,27 0,00 1.276,10 4.549,64 352,00 0,00 31/01/2013
690 301700 ELIANA DA SILVEIRA ANALISTA DO MP ATIVO BELO HORIZONTE - COMARCA; ASSESS TECNICO-JUR JUNTO AS PROC. DE JUST 7.731,26 773,13 0,00 0,00 0,00 0,00 8.504,39 935,48 1.243,58 0,00 2.179,06 6.325,33 3.567,68 294,77 31/01/2013
691 103400 ELIANA DE FARIA MORAIS JOTTA OFICIAL DO MP ATIVO BELO HORIZONTE - COMARCA; DIRET DE PESSOAL DO MINISTERIO PUBLICO - DPMP 17.785,38 7.114,15 0,00 0,00 8.039,21 0,00 32.938,74 2.652,94 7.181,11 781,91 10.615,96 22.322,78 352,00 0,00 31/01/2013
692 251500 ELIANA DE LIMA MILAGRES FONSECA ANALISTA DO MP ATIVO CONTAGEM - COMARCA; CONTAGEM-PJ-17PJ 7.731,26 1.546,25 0,00 0,00 0,00 0,00 9.277,51 1.020,53 1.385,51 0,00 2.406,04 6.871,47 352,00 0,00 31/01/2013
693 503900 ELIANA DIAS DUTRA FERREIRA OFICIAL DO MP ATIVO GOVERNADOR VALADARES - COMARCA; GOVERNADOR VALADARES-PJ-10PJ 3.359,85 0,00 0,00 0,00 0,00 0,00 3.359,85 369,69 57,27 0,00 426,96 2.932,89 587,00 2,75 31/01/2013
694 413900 ELIANA PINTO DE OLIVEIRA NEVES ANALISTA DO MP ATIVO CAMPO BELO - COMARCA; CAMPO BELO-PJ-03PJ 6.379,14 382,75 0,00 0,00 0,00 0,00 6.761,89 743,81 864,39 0,00 1.608,20 5.153,69 352,00 0,00 31/01/2013
695 228200 ELIANA RODRIGUES DA CUNHA PINHEIRO COORDENADOR/OFICIAL ATIVO BELO HORIZONTE - COMARCA; SUPERINTENDÊNCIA DE ENGENHARIA E ARQUITETURA 0,00 1.934,99 9.674,93 0,00 0,00 0,00 11.609,92 1.277,09 2.003,66 0,00 3.280,75 8.329,17 352,00 0,00 31/01/2013
696 386600 ELIANA SABINO CHAVES ANALISTA DO MP ATIVO CARATINGA - COMARCA; CARATINGA-PJ-05PJ 6.075,32 2.430,13 0,00 0,00 2.835,15 0,00 11.340,60 935,60 2.023,50 0,00 2.959,10 8.381,50 352,00 0,00 31/01/2013
697 297400 ELIANE AUGUSTA RIBEIRO COSTA ANALISTA DO MP ATIVO CONSELHEIRO LAFAIETE - COMARCA; CONSELHEIRO LAFAIETE-PJ-05PJ 8.788,36 878,84 0,00 0,00 3.222,40 0,00 12.889,60 1.063,39 2.319,75 0,00 3.383,14 9.506,46 587,00 0,00 31/01/2013
698 510600 ELIANE CAROLINA MAIA ANALISTA DO MP ATIVO IGARAPÉ - COMARCA; IGARAPE-PJ-02PJ 4.270,85 0,00 0,00 0,00 0,00 0,00 4.270,85 469,87 278,24 0,00 748,11 3.522,74 822,00 1,92 31/01/2013
699 269300 ELIANE EDLAMAR ROCHA OFICIAL DO MP ATIVO POÇOS DE CALDAS - COMARCA; POCOS DE CALDAS-PJ-05PJ 5.012,79 501,28 0,00 0,00 0,00 0,00 5.514,07 679,88 662,10 0,00 1.341,98 4.172,09 3.567,68 1.000,35 31/01/2013
700 359100 ELIANE FARIAS DE OLIVEIRA ASSESSOR ATIVO BELO HORIZONTE - COMARCA; EXTINTA-TUTELA DAS FUNDACOES-21 PJ- GABINETE 0,00 0,00 2.215,31 0,00 0,00 0,00 2.215,31 283,24 16,60 0,00 299,84 1.915,47 352,00 16,42 31/01/2013
701 262600 ELIANE FERREIRA SOARES ASSESSOR ATIVO BELO HORIZONTE - COMARCA; BH-18PJ DIREITOS HUMANOS 0,00 739,76 3.698,79 0,00 0,00 0,00 4.438,55 457,49 318,74 0,00 776,23 3.662,32 587,00 0,00 31/01/2013
702 204400 ELIANE GLAUCE DE QUEIROS MAIA OFICIAL DO MP ATIVO GUANHÃES - COMARCA; GUANHAES-PJ-01PJ 7.487,46 1.497,49 0,00 0,00 0,00 0,00 8.984,95 988,34 1.408,49 0,00 2.396,83 6.588,12 352,00 0,00 31/01/2013
703 91800 ELIANE KAPLER OFICIAL DO MP ATIVO BELO HORIZONTE - COMARCA; SUPERINTENDÊNCIA DE ENGENHARIA E ARQUITETURA 9.674,93 3.869,97 0,00 0,00 0,00 0,00 13.544,90 1.489,94 2.429,95 0,00 3.919,89 9.625,01 4.037,68 294,77 31/01/2013
704 334200 ELIANE MARCIA DE OLIVEIRA BRITO OFICIAL DO MP ATIVO BELO HORIZONTE - COMARCA; BH-09PJ AUDITORIA MILITAR 4.005,77 400,58 0,00 0,00 0,00 0,00 4.406,35 489,53 305,37 0,00 794,90 3.611,45 352,00 77,02 31/01/2013
705 365900 ELIANE MARIA DE OLIVEIRA FERREIRA OFICIAL DO MP ATIVO SETE LAGOAS - COMARCA; SETE LAGOAS-PJ-SECRETARIA 4.854,78 1.456,43 0,00 0,00 0,00 0,00 6.311,21 694,23 754,09 0,00 1.448,32 4.862,89 3.567,68 294,77 31/01/2013
706 320600 ELIANE STADLER DE SOUZA OFICIAL DO MP ATIVO FRANCISCO SÁ - COMARCA; FRANCISCO SA-PJ-SECRETARIA 4.701,73 470,17 0,00 0,00 1.723,97 0,00 6.895,87 568,91 902,04 0,00 1.470,95 5.424,92 352,00 0,00 31/01/2013
707 448900 ELIAS PEREIRA OTONI ASSESSOR ATIVO BELO HORIZONTE - COMARCA; EXTINTA - DIVISAO DE TRANSPORTES 0,00 0,00 2.215,31 0,00 0,00 0,00 2.215,31 279,00 16,91 0,00 295,91 1.919,40 2.567,31 67,08 31/01/2013
708 495400 ELICA SOUZA GASPARONI MATTOS OFICIAL DO MP ATIVO UBÁ - COMARCA; UBA-PJ-SECRETARIA 2.772,23 0,00 0,00 0,00 0,00 0,00 2.772,23 305,07 56,74 0,00 361,81 2.410,42 352,00 3,19 31/01/2013
709 86600 ELIENE FERREIRA DA SILVA OFICIAL DO MP ATIVO BELO HORIZONTE - COMARCA; BH-22PJ PES COM DEF E IDOSOS 15.227,00 7.613,50 0,00 0,00 0,00 0,00 22.840,50 2.512,46 4.752,34 0,00 7.264,80 15.575,70 4.037,68 294,77 31/01/2013
710 183800 ELIENE MARIA CUNHA OFICIAL DO MP ATIVO BELO HORIZONTE - COMARCA; DIRETORIA DE PESSOAL ADMINISTRATIVO - DPAD 7.731,26 1.546,25 0,00 0,00 0,00 0,00 9.277,51 1.020,53 1.432,80 0,00 2.453,33 6.824,18 3.567,68 294,77 31/01/2013
711 172300 ELINA APARECIDA SILVA ASSESSOR ATIVO BELO HORIZONTE - COMARCA; BH-19PJ SAUDE 0,00 443,06 2.215,31 0,00 0,00 0,00 2.658,37 425,42 13,37 0,00 438,79 2.219,58 587,00 25,42 31/01/2013
712 492500 ELINE CAMPOS DA FONSECA CUNHA ANALISTA DO MP ATIVO CAPELINHA - COMARCA; CAPELINHA-PJ-02PJ 4.270,85 0,00 0,00 0,00 1.423,62 0,00 5.694,47 472,49 646,21 0,00 1.118,70 4.575,77 587,00 43,51 31/01/2013
713 256500 ELISABETE NOGUEIRA ANALISTA DO MP ATIVO BELO HORIZONTE - COMARCA; BH-21PJ TUTELA DAS FUNDACOES-ASS CURADORES 7.487,46 2.246,24 0,00 0,00 0,00 0,00 9.733,70 1.070,71 1.497,16 0,00 2.567,87 7.165,83 3.802,68 294,77 31/01/2013
714 355000 ELISANGELA DARLANTONI RIBEIRO OFICIAL DO MP ATIVO ARAXÁ - COMARCA; ARAXA-PJ-05PJ 3.879,42 387,94 0,00 0,00 0,00 0,00 4.267,36 475,44 277,54 0,00 752,98 3.514,38 587,00 95,64 31/01/2013
715 323800 ELISANGELA GONCALVES DE JESUS OFICIAL DO MP ATIVO BELO HORIZONTE - COMARCA; CAO-FUNDACOES-SECRETARIA 4.005,77 400,58 0,00 0,00 0,00 0,00 4.406,35 490,99 305,37 0,00 796,36 3.609,99 352,00 99,83 31/01/2013
716 261400 ELISANGELA MENDES OFICIAL DO MP ATIVO POUSO ALEGRE - COMARCA; POUSO ALEGRE-PJ-05PJ 5.176,02 517,60 0,00 0,00 0,00 0,00 5.693,62 632,01 602,93 0,00 1.234,94 4.458,68 3.567,68 385,44 31/01/2013
717 507400 ELISANGELA MIGUEL DA ROCHA ASSESSOR ATIVO BELO HORIZONTE - COMARCA; EXTINTA-CGMP-DIV APOIO FISC ORIENT FUNCIONAL 0,00 0,00 2.215,31 0,00 0,00 0,00 2.215,31 164,65 25,49 0,00 190,14 2.025,17 2.567,31 56,92 31/01/2013
718 461700 ELIZABETH ALEIXO DA PAZ ANALISTA DO MP ATIVO JUIZ DE FORA - COMARCA; JUIZ DE FORA-PJ-24PJ 5.698,20 0,00 0,00 0,00 0,00 0,00 5.698,20 631,91 604,06 0,00 1.235,97 4.462,23 1.719,57 206,50 31/01/2013
719 198100 ELIZABETH CARDOSO CAMPOS OFICIAL DO MP ATIVO PIUMHI - COMARCA; PIUMHI-PJ-02PJ 5.883,73 4.706,98 0,00 0,00 0,00 1.164,98 11.755,69 1.164,98 2.121,87 0,00 3.286,85 8.468,84 352,00 0,00 31/01/2013
720 227300 ELIZABETH COIMBRA FELIX ASSESSOR/OFICIAL ATIVO BELO HORIZONTE - COMARCA; DIRETORIA DE PAGAMENTO DE PESSOAL-DPAG 0,00 2.472,85 8.242,82 0,00 0,00 0,00 10.715,67 764,27 1.804,18 0,00 2.568,45 8.147,22 3.567,68 294,77 31/01/2013
721 354800 ELIZABETH DOS REIS OFICIAL DO MP ATIVO BELO HORIZONTE - COMARCA; EXTINTA - DIVISÃO DE MATERIAL PERMANENTE 4.854,78 485,48 0,00 0,00 1.780,09 0,00 7.120,35 587,43 958,68 0,00 1.546,11 5.574,24 352,00 0,00 31/01/2013
722 452800 ELIZANGELA MARIA DAVI OFICIAL DO MP ATIVO ARCOS - COMARCA; ARCOS-PJ-01PJ 3.051,96 0,00 0,00 0,00 0,00 0,00 3.051,96 337,29 86,84 0,00 424,13 2.627,83 587,00 25,95 31/01/2013
723 496300 ELIZANGELA MARQUES PINTO COELHO OFICIAL DO MP ATIVO BELO HORIZONTE - COMARCA; DIRETORIA DE PESSOAL ADMINISTRATIVO - DPAD 3.051,96 0,00 0,00 0,00 0,00 0,00 3.051,96 335,84 86,84 0,00 422,68 2.629,28 2.183,18 94,70 31/01/2013
724 422500 ELIZETE FORTES DA CUNHA ANALISTA DO MP ATIVO RIBEIRÃO DAS NEVES - COMARCA; RIBEIRAO DAS NEVES-PJ-01PJ 6.379,14 382,75 0,00 0,00 0,00 0,00 6.761,89 884,36 992,92 0,00 1.877,28 4.884,61 587,00 1.452,86 31/01/2013
725 506100 ELLEM CRISTINA ROCHA FONSECA BOWEN ANALISTA DO MP ATIVO GOVERNADOR VALADARES - COMARCA; COORD REG PJ DEF EDU DIR CRIANCA ADOL RIODOCE 4.136,15 0,00 0,00 0,00 0,00 0,00 4.136,15 455,08 251,26 0,00 706,34 3.429,81 822,00 2,49 31/01/2013
726 468200 ELLEN CRISTINA BERNARDES DARE ANALISTA DO MP ATIVO TRÊS PONTAS - COMARCA; TRES PONTAS-PJ-02PJ 5.698,20 0,00 0,00 0,00 0,00 0,00 5.698,20 632,64 604,06 0,00 1.236,70 4.461,50 3.567,68 387,51 31/01/2013
727 418800 ELLEN CRISTINA DE QUEIROZ FERREIRA ANALISTA DO MP ATIVO BELO HORIZONTE - COMARCA; CENTRAL DE APOIO TECNICO-SETOR CONTABIL 6.379,14 382,75 0,00 0,00 0,00 0,00 6.761,89 909,39 1.041,05 0,00 1.950,44 4.811,45 3.567,68 1.975,19 31/01/2013
728 328401 ELLEN CRISTINA FERREIRA MORAIS MONTEIRO ANALISTA DO MP ATIVO CAMANDUCAIA - COMARCA; CAMANDUCAIA-PJ-UNPJ 6.379,14 382,75 0,00 0,00 0,00 0,00 6.761,89 743,81 769,81 0,00 1.513,62 5.248,27 587,00 0,00 31/01/2013
729 447100 ELLEN ROSANA DE MACEDO BORGES OFICIAL DO MP ATIVO UBERLÂNDIA - COMARCA; UBERLANDIA-PJ-17PJ 3.757,11 225,43 0,00 0,00 0,00 0,00 3.982,54 454,93 232,88 0,00 687,81 3.294,73 352,00 170,17 31/01/2013
730 477700 ELMA JACOB OFICIAL DO MP ATIVO BELO HORIZONTE - COMARCA; CAO-CRIANCAS E ADOLESCENTES 3.051,96 1.525,98 0,00 0,00 0,00 0,00 4.577,94 612,56 471,03 0,00 1.083,59 3.494,35 3.567,68 1.401,74 31/01/2013
731 123300 ELMA PAULA DOS SANTOS COELHO OFICIAL DO MP ATIVO BELO HORIZONTE - COMARCA; BH-19PJ SAUDE 8.788,36 7.030,69 0,00 0,00 0,00 1.740,10 17.559,15 1.740,10 3.465,08 0,00 5.205,18 12.353,97 352,00 0,00 31/01/2013
732 356500 ELOISA CARDOSO SILVA FRANCA OFICIAL DO MP ATIVO PEÇANHA - COMARCA; PECANHA-PJ-SECRETARIA 3.879,42 387,94 0,00 0,00 0,00 0,00 4.267,36 473,25 277,54 0,00 750,79 3.516,57 352,00 61,37 31/01/2013
733 251901 ELOISA COSTA E SILVA ANALISTA DO MP ATIVO SANTOS DUMONT - COMARCA; SANTOS DUMONT-PJ-02PJ 5.176,02 1.035,20 0,00 0,00 0,00 0,00 6.211,22 686,38 729,62 0,00 1.416,00 4.795,22 352,00 50,33 31/01/2013
734 400400 ELOIZA MARIA FERRI PIRES DA SILVA OFICIAL DO MP ATIVO BELO HORIZONTE - COMARCA; CAO-MEIO AMBIENTE 3.757,11 225,43 0,00 0,00 0,00 0,00 3.982,54 534,20 345,89 0,00 880,09 3.102,45 352,00 914,49 31/01/2013
735 258000 ELSO CECIANO PALMEIRA ASSESSOR/OFICIAL ATIVO BELO HORIZONTE - COMARCA; DIRET DE PESSOAL DO MINISTERIO PUBLICO - DPMP 0,00 2.994,98 7.487,46 0,00 0,00 0,00 10.482,44 877,52 1.708,90 0,00 2.586,42 7.896,02 3.567,68 294,77 31/01/2013
736 206900 ELVIRA RITA DOS SANTOS ANALISTA DO MP ATIVO BELO HORIZONTE - COMARCA; CENTRAL DE APOIO TECNICO-SETOR CONTABIL 12.062,58 2.412,52 0,00 0,00 0,00 0,00 14.475,10 2.013,97 3.182,10 0,00 5.196,07 9.279,03 3.567,68 4.554,34 31/01/2013
737 506800 ELVIS FERREIRA DA SILVA ANALISTA DO MP ATIVO BELO HORIZONTE - COMARCA; DIRETORIA DE SISTEMAS DE INFORMACAO 5.176,02 0,00 0,00 0,00 1.725,34 0,00 6.901,36 569,46 903,43 0,00 1.472,89 5.428,47 352,00 2,49 31/01/2013
738 154300 ELZA MARIA DA SILVA OFICIAL DO MP ATIVO ERVÁLIA - COMARCA; ERVALIA-PJ-SECRETARIA 6.586,88 4.610,81 0,00 0,00 0,00 1.231,75 12.429,44 1.231,75 2.194,20 0,00 3.425,95 9.003,49 352,00 0,00 31/01/2013
739 206600 ELZA MARIA GONTIJO DE MAGALHAES GOMES ANALISTA DO MP ATIVO BELO HORIZONTE - COMARCA; DIVISAO DE ACERVOS BIBLIOGRAFICOS 8.788,36 1.757,67 0,00 0,00 0,00 1.160,06 11.706,09 1.160,06 2.109,58 0,00 3.269,64 8.436,45 3.567,68 294,77 31/01/2013
740 368401 ELZIRA SIMOES DOS SANTOS ASSESSOR ATIVO BELO HORIZONTE - COMARCA; DIR RELACOES INSTITUCIONAIS 0,00 0,00 7.487,46 0,00 2.495,82 0,00 9.983,28 457,49 1.829,01 0,00 2.286,50 7.696,78 3.567,68 294,77 31/01/2013
741 437400 EMANOELLE DA SILVA RODRIGUES OFICIAL DO MP ATIVO UNAÍ - COMARCA; UNAI-PJ-03PJ 3.757,11 225,43 0,00 0,00 1.327,51 0,00 5.310,05 440,81 501,92 0,00 942,73 4.367,32 352,00 44,03 31/01/2013
742 458900 EMANUELLE CONRAD SILVA FREDERICO ANALISTA DO MP ATIVO DIVINÓPOLIS - COMARCA; DIVINOPOLIS-PJ-08PJ 5.698,20 0,00 0,00 0,00 0,00 0,00 5.698,20 626,80 604,06 0,00 1.230,86 4.467,34 3.567,68 294,77 31/01/2013
743 284100 EMERSON MAGNO ALMEIDA PEDROSA DA FONSECA ANALISTA DO MP ATIVO BELO HORIZONTE - COMARCA; CENTRAL DE APOIO TECNICO-SETOR CONTABIL 8.788,36 878,84 0,00 0,00 0,00 0,00 9.667,20 1.063,39 1.386,30 0,00 2.449,69 7.217,51 4.037,68 294,77 31/01/2013
744 179900 EMERSON MORAIS DIAS OFICIAL DO MP ATIVO BELO HORIZONTE - COMARCA; EXTINTA - DIVISÃO DE APOIO À LICITAÇÃO 7.731,26 1.546,25 0,00 0,00 0,00 0,00 9.277,51 1.020,53 1.480,09 0,00 2.500,62 6.776,89 352,00 0,00 31/01/2013
745 488700 EMERSON SIQUEIRA DE SOUSA TEIXEIRA ANALISTA DO MP ATIVO TARUMIRIM - COMARCA; TARUMIRIM-PJ-UNPJ 5.176,02 0,00 0,00 0,00 0,00 0,00 5.176,02 574,10 382,11 0,00 956,21 4.219,81 822,00 75,45 31/01/2013
746 194200 EMILIA ALVES FERREIRA RAMOS OFICIAL DO MP ATIVO UBERLÂNDIA - COMARCA; UBERLANDIA-PJ-04PJ 4.409,86 881,97 0,00 0,00 0,00 0,00 5.291,83 582,10 410,01 0,00 992,11 4.299,72 352,00 0,00 31/01/2013
747 123400 EMILIO CARLOS MARTINS OFICIAL DO MP ATIVO AREADO - COMARCA; AREADO-PJ-UNPJ 9.074,45 6.352,13 0,00 0,00 0,00 0,00 15.426,58 1.696,92 2.937,78 0,00 4.634,70 10.791,88 421,12 0,00 31/01/2013
748 297000 ENEIDA SOARES COSTA MELO ANALISTA DO MP ATIVO PIUMHI - COMARCA; PIUMHI-PJ-01PJ 8.788,36 878,84 0,00 0,00 0,00 0,00 9.667,20 1.063,39 1.575,47 0,00 2.638,86 7.028,34 3.567,68 294,77 31/01/2013
749 276000 ENEZIO RODRIGUES DE SOUZA FILHO OFICIAL DO MP ATIVO UBERLÂNDIA - COMARCA; UBERLANDIA-COORD CONJ-FAMÍLIA E JUIZ ESP CRIM 5.344,58 534,46 0,00 0,00 0,00 0,00 5.879,04 926,93 1.271,83 0,00 2.198,76 3.680,28 496,00 2.547,58 31/01/2013
750 387700 ENI MARIA DOS REIS OFICIAL DO MP ATIVO POUSO ALEGRE - COMARCA; POUSO ALEGRE-PJ-03PJ 4.553,46 273,21 0,00 0,00 1.608,89 0,00 6.435,56 534,30 785,90 0,00 1.320,20 5.115,36 352,00 54,13 31/01/2013
751 417300 ERIC BARATTI DA SILVA ANALISTA DO MP ATIVO PRATA - COMARCA; PRATA-PJ-UNPJ 5.883,73 353,02 0,00 0,00 0,00 0,00 6.236,75 686,04 735,87 0,00 1.421,91 4.814,84 352,00 0,00 31/01/2013
752 398900 ERIC TEIXEIRA SILVA OFICIAL DO MP ATIVO UBERLÂNDIA - COMARCA; UBERLANDIA-PJ-08PJ 3.757,11 225,43 0,00 0,00 0,00 0,00 3.982,54 441,51 220,50 0,00 662,01 3.320,53 352,00 55,12 31/01/2013
753 274200 ERICA DE SOUZA ANDRADE OFICIAL DO MP ATIVO BELO HORIZONTE - COMARCA; BH-18PJ DIREITOS HUMANOS 5.344,58 534,46 0,00 0,00 0,00 0,00 5.879,04 646,69 648,32 0,00 1.295,01 4.584,03 352,00 0,00 31/01/2013
754 225700 ERICA GOMES DO COUTO OFICIAL DO MP ATIVO BELO HORIZONTE - COMARCA; BH-18PJ VIOLENCIA DOMESTICA 6.177,98 1.235,60 0,00 0,00 0,00 0,00 7.413,58 815,49 1.023,89 0,00 1.839,38 5.574,20 3.567,68 294,77 31/01/2013
755 524800 ERICA MACHADO DA COSTA E SOUZA ANALISTA DO MP ATIVO BELO HORIZONTE - COMARCA; BH-02PJ FAMILIA 4.553,46 0,00 0,00 0,00 0,00 0,00 4.553,46 500,88 334,83 0,00 835,71 3.717,75 352,00 0,00 31/01/2013
756 249500 ERICA RODRIGUES ANDRADE OFICIAL DO MP ATIVO SÃO FRANCISCO - COMARCA; SAO FRANCISCO-PJ-02PJ 4.409,86 881,97 0,00 0,00 0,00 0,00 5.291,83 588,16 504,60 0,00 1.092,76 4.199,07 3.802,68 390,90 31/01/2013
757 260800 ERICA VIANA GIARDINI DE OLIVEIRA OFICIAL DO MP ATIVO BELO HORIZONTE - COMARCA; EXTINTA - DIVISÃO DE COMPRAS 5.883,73 588,37 0,00 0,00 0,00 0,00 6.472,10 711,93 793,47 0,00 1.505,40 4.966,70 352,00 0,00 31/01/2013
758 299800 ERICH DOUGLAS RIBEIRO GARCIA ANALISTA DO MP ATIVO BELO HORIZONTE - COMARCA; CENTRAL DE APOIO TECNICO-SETOR CONTABIL 7.982,93 798,29 0,00 0,00 2.927,07 0,00 11.708,29 965,93 2.163,57 0,00 3.129,50 8.578,79 352,00 0,00 31/01/2013
759 365000 ERICK EDUARDO JOSE DA SILVA OFICIAL DO MP ATIVO ALÉM PARAÍBA - COMARCA; ALEM PARAIBA-PJ-02PJ 3.879,42 387,94 0,00 0,00 1.422,45 0,00 5.689,81 473,22 645,03 0,00 1.118,25 4.571,56 352,00 60,97 31/01/2013
760 123500 ERICO SEGISMUNDO LIMA VILASBOAS ANALISTA DO MP ATIVO MONTES CLAROS - COMARCA; COORD REG PJ DEF EDUC DIR CRIANCA ADOL NORTE 12.540,10 10.032,08 0,00 0,00 7.524,06 0,00 30.096,24 2.482,94 6.566,62 0,00 9.049,56 21.046,68 352,00 0,00 31/01/2013
761 227400 ERIKA DE LAET GOULART BOECHAT ASSESSOR/OFICIAL ATIVO BELO HORIZONTE - COMARCA; ASSESSORIA ESPECIAL DO PGJ 0,00 1.497,49 7.487,46 0,00 0,00 0,00 8.984,95 815,49 1.456,02 0,00 2.271,51 6.713,44 352,00 0,00 31/01/2013
762 451800 ERIKA DELLARETTI GUIMARAES OFICIAL DO MP ATIVO LAVRAS - COMARCA; LAVRAS-PJ-04PJ 3.051,96 0,00 0,00 0,00 0,00 0,00 3.051,96 337,49 86,84 0,00 424,33 2.627,63 352,00 29,21 31/01/2013
763 285100 ERIKA FERREIRA DA SILVA OFICIAL DO MP ATIVO JUIZ DE FORA - COMARCA; JUIZ DE FORA-PJ-14PJ 5.344,58 534,46 0,00 0,00 0,00 0,00 5.879,04 646,69 648,32 0,00 1.295,01 4.584,03 352,00 0,00 31/01/2013
764 420100 ERIKA JEANINE VERSIANI DE CASTRO ANALISTA DO MP ATIVO MONTES CLAROS - COMARCA; COORD REG PJ DEF EDUC DIR CRIANCA ADOL NORTE 6.379,14 382,75 0,00 0,00 0,00 0,00 6.761,89 1.037,19 1.346,80 0,00 2.383,99 4.377,90 3.567,68 3.136,89 31/01/2013
765 491000 ERIKA ROCHA PEREIRA E SILVA ANALISTA DO MP ATIVO BELO HORIZONTE - COMARCA; DIRETORIA DE SISTEMAS DE INFORMACAO 5.176,02 0,00 0,00 0,00 0,00 0,00 5.176,02 573,46 476,25 0,00 1.049,71 4.126,31 352,00 65,41 31/01/2013
766 283201 ERIKA STEHLING ASSESSOR/ANALISTA ATIVO BELO HORIZONTE - COMARCA; CENTRAL DE APOIO TECNICO-SETOR DE ENGENHARIA 0,00 0,00 7.487,46 0,00 0,00 0,00 7.487,46 569,36 1.111,90 0,00 1.681,26 5.806,20 352,00 0,00 31/01/2013
767 383500 ERIKO RODRIGUES VELOSO ANALISTA DO MP ATIVO BOCAIÚVA - COMARCA; BOCAIUVA-PJ-01PJ 5.344,58 320,67 0,00 0,00 0,00 0,00 5.665,25 623,18 595,99 0,00 1.219,17 4.446,08 3.567,68 294,77 31/01/2013
768 254000 ERLANDIA DA SILVA MENDES OFICIAL DO MP ATIVO IPATINGA - COMARCA; IPATINGA-PJ-03PJ 5.698,20 1.709,46 0,00 0,00 0,00 0,00 7.407,66 814,84 880,57 0,00 1.695,41 5.712,25 822,00 0,00 31/01/2013
769 208600 ERNANE JOSE DA COSTA ANALISTA DO MP ATIVO BELO HORIZONTE - COMARCA; CENTRAL DE APOIO TECNICO-SETOR MEDICO 12.062,58 6.031,29 0,00 0,00 0,00 0,00 18.093,87 2.517,45 4.028,84 0,00 6.546,29 11.547,58 352,00 4.792,02 31/01/2013
770 260600 ERNANI CALDEIRA DE ANDRADE ANALISTA DO MP ATIVO BELO HORIZONTE - COMARCA; CENTRAL DE APOIO TECNICO-SETOR CONTABIL 9.674,93 1.934,99 0,00 0,00 0,00 0,00 11.609,92 1.277,09 2.003,66 0,00 3.280,75 8.329,17 3.567,68 294,77 31/01/2013
771 348500 ERNILANDIA OLIVEIRA DIAS OFICIAL DO MP ATIVO BELO HORIZONTE - COMARCA; EXTINTA - JUIZO DE FAMILIA-02 PJ-02 VARA 4.553,46 455,35 0,00 0,00 0,00 0,00 5.008,81 555,19 435,33 0,00 990,52 4.018,29 352,00 67,37 31/01/2013
772 199300 ERTON PORTINARI DE ANDRADE OFICIAL DO MP ATIVO SETE LAGOAS - COMARCA; SETE LAGOAS-PJ-01PJ 7.487,46 2.246,24 0,00 0,00 0,00 0,00 9.733,70 1.208,37 1.803,45 0,00 3.011,82 6.721,88 3.802,68 1.546,22 31/01/2013
773 430400 ESDRAS SOARES VILAS BOAS RIBEIRO OFICIAL DO MP ATIVO BELO HORIZONTE - COMARCA; BH-17PJ PATRIMONIO PUBLICO-SECRETARIA 3.757,11 225,43 0,00 0,00 1.327,51 0,00 5.310,05 440,45 549,21 0,00 989,66 4.320,39 352,00 38,54 31/01/2013
774 326900 ESTER ALICE PIMENTA OFICIAL DO MP ATIVO BELO HORIZONTE - COMARCA; COORD DE INCLUSAO E MOBILIZACAO SOCIAIS 4.005,77 400,58 0,00 0,00 0,00 0,00 4.406,35 489,66 266,68 0,00 756,34 3.650,01 3.567,68 320,16 31/01/2013
775 503700 ESTHER GONCALVES FONSECA ANALISTA DO MP ATIVO BELO HORIZONTE - COMARCA; DIR CRIACAO E MIDIAS 4.270,85 0,00 0,00 0,00 0,00 0,00 4.270,85 469,90 278,24 0,00 748,14 3.522,71 352,00 2,88 31/01/2013
776 475600 ETIENE DE FATIMA OLIVEIRA PEREIRA ANALISTA DO MP ATIVO PATROCÍNIO - COMARCA; PATROCINIO-PJ-04PJ 5.176,02 0,00 0,00 0,00 0,00 0,00 5.176,02 693,94 592,33 0,00 1.286,27 3.889,75 352,00 1.164,01 31/01/2013
777 428800 EUGENIA RODRIGUES TRAJANO BORGES ANALISTA DO MP ATIVO UBERABA - COMARCA; UBERABA-PJ-08PJ 5.344,58 320,67 0,00 0,00 0,00 0,00 5.665,25 623,18 595,99 0,00 1.219,17 4.446,08 352,00 0,00 31/01/2013
778 272700 EUGENIO DE BARCELOS FILHO OFICIAL DO MP ATIVO FRUTAL - COMARCA; FRUTAL-PJ-02PJ 4.553,46 455,35 0,00 0,00 0,00 0,00 5.008,81 550,97 388,03 0,00 939,00 4.069,81 3.567,68 294,77 31/01/2013
779 254100 EULALIA ALVES MIRANDA LUCAS OFICIAL DO MP ATIVO ALMENARA - COMARCA; ALMENARA-PJ-SECRETARIA 5.344,58 1.068,92 0,00 0,00 2.137,83 0,00 8.551,33 705,49 1.225,15 0,00 1.930,64 6.620,69 352,00 0,00 31/01/2013
780 225800 EURO CESAR VIEIRA BARBOSA ANALISTA DO MP ATIVO BELO HORIZONTE - COMARCA; AUDITORIA INTERNA 10.315,17 2.063,03 0,00 0,00 4.126,07 0,00 16.504,27 1.361,60 3.326,36 0,00 4.687,96 11.816,31 587,00 0,00 31/01/2013
781 199400 EUSTAQUIO ADAILTON LIMA E SILVA OFICIAL DO MP ATIVO MANGA - COMARCA; MANGA-PJ-01PJ 7.487,46 2.994,99 0,00 0,00 0,00 0,00 10.482,45 1.153,07 1.633,12 0,00 2.786,19 7.696,26 587,00 0,00 31/01/2013
782 249000 EUSTAQUIO GOMES DE OLIVEIRA OFICIAL DO MP ATIVO BELO HORIZONTE - COMARCA; CAO-FUNDACOES-CONTROLADORIA E APOIO ENTIDADES 5.883,73 2.353,49 0,00 0,00 0,00 0,00 8.237,22 906,09 1.130,90 0,00 2.036,99 6.200,23 352,00 0,00 31/01/2013
783 67100 EVA DAS DORES BARROS VALGAS ANALISTA DO MP ATIVO FERROS - COMARCA; FERROS-PJ-SECRETARIA 12.062,58 6.031,29 0,00 0,00 0,00 0,00 18.093,87 1.990,33 3.496,02 0,00 5.486,35 12.607,52 3.567,68 294,77 31/01/2013
784 517000 EVALDO SENA COSTA FILHO ANALISTA DO MP ATIVO CONTAGEM - COMARCA; CONTAGEM-PJ-21PJ 4.270,85 854,17 0,00 0,00 0,00 0,00 5.125,02 599,92 503,33 0,00 1.103,25 4.021,77 2.093,85 521,23 31/01/2013
785 217500 EVELANGE LEAO RABELO ASSESSOR ATIVO BELO HORIZONTE - COMARCA; EXTINTA-COORD EST DEF DIR FAM PES DEFIC IDOSO 0,00 443,06 2.215,31 0,00 0,00 0,00 2.658,37 332,48 46,13 0,00 378,61 2.279,76 352,00 22,41 31/01/2013
786 469000 EWERTON CARDOSO DE SA RODRIGUES ANALISTA DO MP ATIVO CAMPO BELO - COMARCA; CAMPO BELO-PJ-01PJ 4.701,73 0,00 0,00 0,00 0,00 0,00 4.701,73 521,85 364,52 0,00 886,37 3.815,36 352,00 74,28 31/01/2013
787 368900 FABIANA BARBOSA SIQUEIRA OFICIAL DO MP ATIVO BELO HORIZONTE - COMARCA; CAO-ORDEM ECONOMICA E TRIBUTARIA-SECRETARIA 4.701,73 470,17 0,00 0,00 0,00 0,00 5.171,90 575,21 475,24 0,00 1.050,45 4.121,45 587,00 99,96 31/01/2013
788 273800 FABIANA CARNEIRO AMORIM COORDENADOR/OFICIAL ATIVO BELO HORIZONTE - COMARCA; BH-23PJ INFRACIONAL-COORD ADM INFRACIONAL 0,00 851,12 8.511,21 0,00 0,00 0,00 9.362,33 626,30 1.517,24 0,00 2.143,54 7.218,79 3.567,68 294,77 31/01/2013
789 519300 FABIANA DE OLIVEIRA LOUREIRO ANALISTA DO MP ATIVO BELO HORIZONTE - COMARCA; BH-09PJ AUDITORIA MILITAR 5.012,79 0,00 0,00 0,00 0,00 0,00 5.012,79 551,41 436,30 0,00 987,71 4.025,08 3.359,67 275,70 31/01/2013
790 363400 FABIANA DOURADO DUPIN VIEGAS ANALISTA DO MP ATIVO BELO HORIZONTE - COMARCA; PROC. JUSTICA DE HABEAS CORPUS 7.731,26 773,13 0,00 0,00 0,00 0,00 8.504,39 935,48 1.290,87 0,00 2.226,35 6.278,04 587,00 0,00 31/01/2013
791 410800 FABIANA DUARTE QUITITE ANALISTA DO MP ATIVO BELO HORIZONTE - COMARCA; COORD ESTADUAL COMBATE CRIMES CIBERNETICOS 6.379,14 382,75 0,00 0,00 0,00 0,00 6.761,89 743,81 864,39 0,00 1.608,20 5.153,69 3.056,76 247,94 31/01/2013
792 419500 FABIANA EULALIA DOS SANTOS ANALISTA DO MP ATIVO SÃO JOÃO DEL REI - COMARCA; SAO JOAO DEL REI-PJ-01PJ 6.379,14 382,75 0,00 0,00 0,00 0,00 6.761,89 899,77 1.041,05 0,00 1.940,82 4.821,07 352,00 1.592,90 31/01/2013
793 376300 FABIANA MATTOSO LEMOS ANALISTA DO MP ATIVO BELO HORIZONTE - COMARCA; COORD-GERAL DAS PJS POR BACIA HIDRO. DE MG 6.379,14 382,75 0,00 0,00 0,00 0,00 6.761,89 743,81 864,39 0,00 1.608,20 5.153,69 352,00 0,00 31/01/2013
794 331500 FABIANA PACHECO OFICIAL DO MP ATIVO GUAXUPÉ - COMARCA; GUAXUPE-PJ-01PJ 4.854,78 485,48 0,00 0,00 0,00 0,00 5.340,26 593,56 516,45 0,00 1.110,01 4.230,25 352,00 97,24 31/01/2013
795 510700 FABIANA PEREIRA SANTOS BORGES ANALISTA DO MP ATIVO BELO HORIZONTE - COMARCA; DIRETORIA DE SISTEMAS DE INFORMACAO 4.270,85 0,00 0,00 0,00 0,00 0,00 4.270,85 469,84 278,24 0,00 748,08 3.522,77 587,00 1,31 31/01/2013
796 181700 FABIANA SOUZA FERREIRA OFICIAL DO MP ATIVO BELO HORIZONTE - COMARCA; BH-23PJ CIVEL-SETOR ATEND PUB 3.308,93 827,23 0,00 0,00 0,00 0,00 4.136,16 551,90 166,34 0,00 718,24 3.417,92 3.802,68 335,35 31/01/2013
797 272900 FABIANA STOCKLER LEITE OFICIAL DO MP ATIVO LAJINHA - COMARCA; LAJINHA-PJ-SECRETARIA 5.344,58 1.603,37 0,00 0,00 2.315,98 0,00 9.263,93 764,27 1.452,24 0,00 2.216,51 7.047,42 587,00 0,00 31/01/2013
798 225500 FABIANE DE FATIMA PORTELLA ANALISTA DO MP ATIVO BELO HORIZONTE - COMARCA; SERVICO MEDICO-DEPTO PERIC MEDICA SAUDE OCUP 9.989,93 1.997,99 0,00 0,00 0,00 0,00 11.987,92 1.318,67 2.143,46 0,00 3.462,13 8.525,79 3.567,68 294,77 31/01/2013
799 433800 FABIANE DINIZ MATTOS ANALISTA DO MP ATIVO BELO HORIZONTE - COMARCA; BH-23PJ INFRACIONAL-ASS JURIDICA 5.883,73 353,02 0,00 0,00 0,00 0,00 6.236,75 756,61 892,88 0,00 1.649,49 4.587,26 352,00 641,52 31/01/2013
800 455000 FABIANO CARVALHO DA SILVA ANALISTA DO MP ATIVO LAVRAS - COMARCA; COORD REG DO MA DA BACIA DO RIO GRANDE 5.698,20 0,00 0,00 0,00 0,00 0,00 5.698,20 626,80 604,06 0,00 1.230,86 4.467,34 352,00 0,00 31/01/2013
801 498800 FABIANO FURTADO PESSOA COELHO ANALISTA DO MP ATIVO BELO HORIZONTE - COMARCA; DIRETORIA DE REDES E BANCOS DE DADOS 4.701,73 0,00 0,00 0,00 1.567,24 0,00 6.268,97 643,69 1.020,11 0,00 1.663,80 4.605,17 587,00 1.166,44 31/01/2013
802 394600 FABIANO PALHARES SILVA ANALISTA DO MP ATIVO BELO HORIZONTE - COMARCA; CENTRAL DE APOIO TECN-SETOR DE MEIO AMBIENTE 6.379,14 382,75 0,00 0,00 0,00 0,00 6.761,89 743,81 864,39 0,00 1.608,20 5.153,69 587,00 0,00 31/01/2013
803 444400 FABIANO SARAIVA MEDEIROS ANALISTA DO MP ATIVO BETIM - COMARCA; BETIM-PJ-11PJ 5.883,73 353,02 0,00 0,00 0,00 0,00 6.236,75 748,36 754,73 0,00 1.503,09 4.733,66 3.802,68 926,80 31/01/2013
804 408700 FABIANO SOARES PORTILHO ANALISTA DO MP ATIVO VIÇOSA - COMARCA; VICOSA-PJ-SECRETARIA 5.883,73 353,02 0,00 0,00 0,00 0,00 6.236,75 686,04 735,87 0,00 1.421,91 4.814,84 3.567,68 294,77 31/01/2013
805 384301 FABIO BRUNO DA SILVA ANALISTA DO MP ATIVO BONFIM - COMARCA; BONFIM-PJ-UNPJ 5.344,58 320,67 0,00 0,00 0,00 0,00 5.665,25 623,18 595,99 0,00 1.219,17 4.446,08 352,00 0,00 31/01/2013
806 442600 FABIO CARVALHO ANALISTA DO MP ATIVO BELO HORIZONTE - COMARCA; BH-09PJ AUDITORIA MILITAR 4.854,78 291,29 0,00 0,00 0,00 0,00 5.146,07 622,39 523,50 0,00 1.145,89 4.000,18 352,00 599,80 31/01/2013
807 123700 FABIO JOSE ANDRADE NOGUEIRA OFICIAL DO MP ATIVO FORMIGA - COMARCA; FORMIGA-PJ-SECRETARIA 7.022,72 4.915,91 0,00 0,00 0,00 0,00 11.938,63 1.674,30 1.161,85 0,00 2.836,15 9.102,48 352,00 3.282,24 31/01/2013
808 240101 FABIO JUNQUEIRA DE ASSIS FONSECA OFICIAL DO MP ATIVO BELO HORIZONTE - COMARCA; BH-17PJ PATRIMONIO PUBLICO 3.757,11 375,71 0,00 0,00 0,00 0,00 4.132,82 457,66 250,60 0,00 708,26 3.424,56 352,00 49,04 31/01/2013
809 271500 FABIO LUIZ VIEIRA OFICIAL DO MP ATIVO SANTA VITÓRIA - COMARCA; SANTA VITORIA-PJ-UNPJ 4.553,46 455,35 0,00 0,00 0,00 0,00 5.008,81 598,19 445,81 0,00 1.044,00 3.964,81 3.567,68 670,48 31/01/2013
810 213100 FABIO PRATES GONCALVES ASSESSOR ATIVO BELO HORIZONTE - COMARCA; DIR RELACOES INSTITUCIONAIS 0,00 739,76 3.698,79 0,00 0,00 0,00 4.438,55 457,49 241,35 0,00 698,84 3.739,71 587,00 82,84 31/01/2013
811 436700 FABIO SANTIAGO DE CARVALHO OFICIAL DO MP ATIVO POÇO FUNDO - COMARCA; POCO FUNDO-PJ-UNPJ 3.757,11 225,43 0,00 0,00 0,00 0,00 3.982,54 486,06 302,54 0,00 788,60 3.193,94 352,00 456,73 31/01/2013
812 208400 FABIOLA DE SOUSA CARDOSO ASSESSOR/ANALISTA ATIVO BELO HORIZONTE - COMARCA; CGMP-ASSESSORIA JURIDICA 11.161,27 4.047,14 0,00 0,00 0,00 0,00 15.208,41 1.473,29 2.986,58 0,00 4.459,87 10.748,54 3.567,68 294,77 31/01/2013
813 392200 FABIOLA LEROY COSTA ANALISTA DO MP ATIVO ESMERALDAS - COMARCA; ESMERALDAS-PJ-01PJ 5.344,58 320,67 0,00 0,00 0,00 0,00 5.665,25 623,18 595,99 0,00 1.219,17 4.446,08 352,00 0,00 31/01/2013
814 409000 FABIOLA MONTEIRO DE CARVALHO CASTRO ANALISTA DO MP ATIVO BOM SUCESSO - COMARCA; BOM SUCESSO-PJ-UNPJ 6.379,14 382,75 0,00 0,00 0,00 0,00 6.761,89 743,81 864,39 0,00 1.608,20 5.153,69 352,00 0,00 31/01/2013
815 227900 FABIOLA PIMENTA DE CARVALHO OFICIAL DO MP ATIVO MONTES CLAROS - COMARCA; COORD REG BACIA RIOS VERDE GRANDE E PARDO 4.854,78 970,96 0,00 0,00 0,00 0,00 5.825,74 640,83 587,98 0,00 1.228,81 4.596,93 3.567,68 294,77 31/01/2013
816 525800 FABRICIA ALVES DANTAS OFICIAL DO MP ATIVO MONTES CLAROS - COMARCA; MONTES CLAROS-PJ-02PJ 3.253,89 0,00 0,00 0,00 1.084,63 0,00 4.338,52 357,93 318,63 0,00 676,56 3.661,96 587,00 0,00 31/01/2013
817 263400 FABRICIA PINTO TEIXEIRA SANTIAGO OFICIAL DO MP ATIVO BELO HORIZONTE - COMARCA; CAO-FUNDACOES-SECRETARIA 5.883,73 588,37 0,00 0,00 0,00 0,00 6.472,10 711,93 698,88 0,00 1.410,81 5.061,29 587,00 0,00 31/01/2013
818 420800 FABRICIO BERNARDES DE OLIVEIRA OFICIAL DO MP ATIVO ITURAMA - COMARCA; ITURAMA-PJ-02PJ 3.757,11 225,43 0,00 0,00 1.327,51 0,00 5.310,05 650,98 893,76 0,00 1.544,74 3.765,31 394,29 1.958,02 31/01/2013
819 474000 FABRICIO DE FREITAS SALES ANALISTA DO MP ATIVO BUENÓPOLIS - COMARCA; BUENOPOLIS-PJ-UNPJ 5.698,20 0,00 0,00 0,00 0,00 0,00 5.698,20 781,89 731,86 0,00 1.513,75 4.184,45 352,00 1.409,89 31/01/2013
820 510100 FABRICIO FURTADO ASSIS DO CARMO ANALISTA DO MP ATIVO BELO HORIZONTE - COMARCA; SERVICO MEDICO-DEPTO PERIC MEDICA SAUDE OCUP 4.701,73 0,00 0,00 0,00 0,00 0,00 4.701,73 517,28 364,52 0,00 881,80 3.819,93 1.609,90 96,55 31/01/2013
821 519600 FABRICIO GONTIJO SALVATI ANALISTA DO MP ATIVO JUIZ DE FORA - COMARCA; JUIZ DE FORA-PJ-13PJ 4.553,46 0,00 0,00 0,00 1.517,82 0,00 6.071,28 500,88 741,28 0,00 1.242,16 4.829,12 352,00 0,00 31/01/2013
822 428200 FABRICIO ORZIL VIANA ANALISTA DO MP ATIVO SANTA LUZIA - COMARCA; SANTA LUZIA-PJ-04PJ 5.344,58 320,67 0,00 0,00 0,00 0,00 5.665,25 623,18 595,99 0,00 1.219,17 4.446,08 352,00 0,00 31/01/2013
823 455600 FABRICIO PAIVA DA ROCHA ANALISTA DO MP ATIVO ANDRELÂNDIA - COMARCA; ANDRELANDIA-PJ-UNPJ 5.176,02 0,00 0,00 0,00 0,00 0,00 5.176,02 574,53 476,25 0,00 1.050,78 4.125,24 559,04 101,27 31/01/2013
824 511500 FABRICIO RENE CARDOSO DE PADUA ANALISTA DO MP ATIVO SÃO SEBASTIÃO DO PARAÍSO - COMARCA; SAO SEBASTIAO DO PARAISO-PJ-03PJ 4.701,73 0,00 0,00 0,00 0,00 0,00 4.701,73 517,27 364,52 0,00 881,79 3.819,94 352,00 2,01 31/01/2013
825 496100 FABRICIO RESENDE GONCALVES OFICIAL DO MP ATIVO ENTRE-RIOS DE MINAS - COMARCA; ENTRE RIOS DE MINAS-PJ-UNPJ 2.772,23 0,00 0,00 0,00 0,00 0,00 2.772,23 305,07 56,74 0,00 361,81 2.410,42 352,00 3,14 31/01/2013
826 514900 FADUA MARIA DRUMOND CHEQUER MAGNO ANALISTA DO MP ATIVO ALMENARA - COMARCA; COORD REG INCLUSAO MOBILIZ VALE JEQUITINHONHA 5.012,79 0,00 0,00 0,00 0,00 0,00 5.012,79 551,41 436,30 0,00 987,71 4.025,08 352,00 0,00 31/01/2013
827 282500 FANNY FERREIRA MELO FAVERO DE FRAVET OFICIAL DO MP ATIVO ARAXÁ - COMARCA; ARAXA-PJ-02PJ 4.553,46 455,35 0,00 0,00 0,00 0,00 5.008,81 623,26 582,44 0,00 1.205,70 3.803,11 4.037,68 993,63 31/01/2013
828 382800 FATIMA DE OLIVEIRA COELHO E SILVA OFICIAL DO MP ATIVO BELO HORIZONTE - COMARCA; DIRETORIA DE ADMINISTRACAO FINANCEIRA 3.151,29 315,13 0,00 0,00 0,00 0,00 3.466,42 383,90 142,17 0,00 526,07 2.940,35 352,00 42,01 31/01/2013
829 398600 FELIPE ANTONIO HORTA DE PAULA OFICIAL DO MP ATIVO BELO HORIZONTE - COMARCA; PROC. JUSTICA DIR. DIFUSOS E COLETIVOS-SEC 3.757,11 225,43 0,00 0,00 0,00 0,00 3.982,54 440,78 220,50 0,00 661,28 3.321,26 352,00 43,58 31/01/2013
830 529200 FELIPE AUGUSTO NASCIMENTO PEREIRA ASSESSOR ATIVO UBERABA - COMARCA; COORD REG PP TRIANGULO MINEIRO UBERABA 0,00 0,00 3.698,79 0,00 0,00 0,00 3.698,79 445,59 167,38 0,00 612,97 3.085,82 352,00 0,00 31/01/2013
831 430900 FELIPE BOY VIEIRA ANALISTA DO MP ATIVO BELO HORIZONTE - COMARCA; CAO-DH CONT EXT ATIV POLIC E AP COMUN-SEC ADM 5.883,73 353,02 0,00 0,00 0,00 0,00 6.236,75 686,04 735,87 0,00 1.421,91 4.814,84 352,00 0,00 31/01/2013
832 487300 FELIPE FERNANDES SILVEIRA ASSESSOR ATIVO BELO HORIZONTE - COMARCA; DIRETORIA DE MANUTENCAO PREDIAL 0,00 0,00 2.215,31 0,00 0,00 0,00 2.215,31 282,54 16,65 0,00 299,19 1.916,12 352,00 3,60 31/01/2013
833 394200 FELIPE VALENTE VASCONCELOS SOUSA ANALISTA DO MP ATIVO SÃO SEBASTIÃO DO PARAÍSO - COMARCA; SAO SEBASTIAO DO PARAISO-PJ-05PJ 6.379,14 382,75 0,00 0,00 0,00 0,00 6.761,89 743,81 817,10 0,00 1.560,91 5.200,98 352,00 0,00 31/01/2013
834 508400 FERNANDA AGANETTI MATTOS DE OLIVEIRA ANALISTA DO MP ATIVO BELO HORIZONTE - COMARCA; BH-19PJ SAUDE 5.176,02 0,00 0,00 0,00 0,00 0,00 5.176,02 569,45 476,25 0,00 1.045,70 4.130,32 352,00 2,18 31/01/2013
835 453600 FERNANDA ALBERNAZ RABELO ANALISTA DO MP ATIVO BELO HORIZONTE - COMARCA; ASSESS TECNICO-JUR JUNTO AS PROC. DE JUST 5.698,20 0,00 0,00 0,00 0,00 0,00 5.698,20 626,80 604,06 0,00 1.230,86 4.467,34 352,00 0,00 31/01/2013
836 255600 FERNANDA ALINA DE ALMEIDA ANDRADE OFICIAL DO MP ATIVO BELO HORIZONTE - COMARCA; DIR ESTRUTURA E PROCESSOS ORGANIZACIONAIS 4.854,78 970,96 0,00 0,00 0,00 0,00 5.825,74 640,83 635,27 0,00 1.276,10 4.549,64 462,14 10,10 31/01/2013
837 443200 FERNANDA ALMEIDA LOPES ANALISTA DO MP ATIVO CONTAGEM - COMARCA; CONTAGEM-PJ-23PJ 5.883,73 353,02 0,00 0,00 0,00 0,00 6.236,75 721,33 814,37 0,00 1.535,70 4.701,05 352,00 320,76 31/01/2013
838 281100 FERNANDA ANANIAS MEIRA ANALISTA DO MP ATIVO BELO HORIZONTE - COMARCA; BH-23PJ INFRACIONAL-ASS JURIDICA 7.982,93 798,29 0,00 0,00 0,00 0,00 8.781,22 965,93 1.358,62 0,00 2.324,55 6.456,67 352,00 0,00 31/01/2013
839 451200 FERNANDA BLOISE PRADO OFICIAL DO MP ATIVO BELO HORIZONTE - COMARCA; NUCLEO DE NEGOCIACAO DE CONFLITOS AMBIENTAIS 3.359,85 0,00 0,00 0,00 0,00 0,00 3.359,85 371,74 127,94 0,00 499,68 2.860,17 352,00 35,22 31/01/2013
840 427900 FERNANDA BRAGA CARNEIRO BICALHO ANALISTA DO MP ATIVO PEÇANHA - COMARCA; PECANHA-PJ-SECRETARIA 5.344,58 320,67 0,00 0,00 0,00 0,00 5.665,25 623,18 548,70 0,00 1.171,88 4.493,37 352,00 0,00 31/01/2013
841 507100 FERNANDA CABRINI VAZ MOTA ANALISTA DO MP ATIVO BELO HORIZONTE - COMARCA; ASSESSORIA JURIDICO-ADMINISTRATIVA 4.701,73 0,00 0,00 0,00 0,00 0,00 4.701,73 517,30 364,52 0,00 881,82 3.819,91 3.567,68 244,05 31/01/2013
842 259800 FERNANDA CALZAVARA DE SOUSA COORDENADOR/OFICIAL ATIVO BELO HORIZONTE - COMARCA; DIRET DE FORMACAO, APERFEIC. E POS-GRADUACAO 0,00 967,49 9.674,93 0,00 0,00 0,00 10.642,42 776,44 2.615,94 0,00 3.392,38 7.250,04 3.567,68 2.816,12 31/01/2013
843 494400 FERNANDA CAMPOS BARATA OFICIAL DO MP ATIVO JUIZ DE FORA - COMARCA; JUIZ DE FORA-PJ-08PJ 2.772,23 0,00 0,00 0,00 924,08 0,00 3.696,31 305,08 188,10 0,00 493,18 3.203,13 587,00 3,33 31/01/2013
844 294500 FERNANDA COSTA FLORES OFICIAL DO MP ATIVO PARÁ DE MINAS - COMARCA; PARA DE MINAS-PJ-04PJ 5.344,58 534,46 0,00 0,00 0,00 0,00 5.879,04 646,69 601,02 0,00 1.247,71 4.631,33 3.567,68 294,77 31/01/2013
845 344500 FERNANDA CRISTINA DE SOUZA PAZ ASSESSOR ATIVO BELO HORIZONTE - COMARCA; CENTRAL DE APOIO TECN-SETOR DE MEIO AMBIENTE 0,00 0,00 3.698,79 0,00 0,00 0,00 3.698,79 447,54 167,09 0,00 614,63 3.084,16 822,00 32,27 31/01/2013
846 337800 FERNANDA CRISTINA REIS ROLAND CLIMACO DA SILVA ASSESSOR/OFICIAL ATIVO BELO HORIZONTE - COMARCA; DIRETORIA-GERAL 0,00 748,75 7.487,46 0,00 0,00 0,00 8.236,21 626,30 1.302,15 0,00 1.928,45 6.307,76 3.567,68 294,77 31/01/2013
847 429801 FERNANDA CUNHA PINHEIRO DA SILVA ANALISTA DO MP ATIVO BELO HORIZONTE - COMARCA; DIRETORIA DE PRODUCAO EDITORIAL 4.701,73 0,00 0,00 0,00 0,00 0,00 4.701,73 555,28 396,46 0,00 951,74 3.749,99 352,00 396,17 31/01/2013
848 408000 FERNANDA DAS NEVES RAMOS ANALISTA DO MP ATIVO BELO HORIZONTE - COMARCA; CENTRAL DE APOIO TECNICO-SETOR CONTABIL 6.379,14 382,75 0,00 0,00 2.253,96 0,00 9.015,85 743,81 1.484,23 0,00 2.228,04 6.787,81 352,00 0,00 31/01/2013
849 496000 FERNANDA DE ALMEIDA VIANA ANALISTA DO MP ATIVO BELO HORIZONTE - COMARCA; PROC JUST RECURSOS ESP E EXTRAORD CRIMINAIS 4.701,73 0,00 0,00 0,00 0,00 0,00 4.701,73 519,08 364,52 0,00 883,60 3.818,13 352,00 30,77 31/01/2013
850 266700 FERNANDA DE CASTRO LUCAS OFICIAL DO MP ATIVO BELO HORIZONTE - COMARCA; DIRET DE DESENV DE RECURSOS HUMANOS-DDRH 5.883,73 588,37 0,00 0,00 0,00 0,00 6.472,10 711,93 793,47 0,00 1.505,40 4.966,70 3.567,68 294,77 31/01/2013
851 433200 FERNANDA DE FIGUEIREDO NORTE ANALISTA DO MP ATIVO BELO HORIZONTE - COMARCA; ASSESS JUR DO CONS SUPERIOR DO MINISTERIO PUB 5.883,73 353,02 0,00 0,00 0,00 0,00 6.236,75 921,27 1.259,24 0,00 2.180,51 4.056,24 352,00 2.138,40 31/01/2013
852 419200 FERNANDA DE MIRANDA MARTINS SIMOES ANALISTA DO MP ATIVO UBERLÂNDIA - COMARCA; UBERLANDIA-PJ-19PJ 6.379,14 382,75 0,00 0,00 0,00 0,00 6.761,89 899,77 992,92 0,00 1.892,69 4.869,20 352,00 1.417,86 31/01/2013
853 441400 FERNANDA DE MORAIS PINTO ANALISTA DO MP ATIVO BELO HORIZONTE - COMARCA; PROC. JUSTICA DIR. DIFUSOS E COLETIVOS-SEC 5.883,73 353,02 0,00 0,00 0,00 0,00 6.236,75 686,04 735,87 0,00 1.421,91 4.814,84 352,00 0,00 31/01/2013
854 432200 FERNANDA DE MOURA GUIMARAES ANALISTA DO MP ATIVO BELO HORIZONTE - COMARCA; CAO-CRIMINAL-SECRETARIA 5.883,73 353,02 0,00 0,00 0,00 0,00 6.236,75 686,04 735,87 0,00 1.421,91 4.814,84 3.567,68 294,77 31/01/2013
855 461800 FERNANDA DE OLIVEIRA SANTOS ANALISTA DO MP ATIVO JUIZ DE FORA - COMARCA; JUIZ DE FORA-PJ-21PJ 5.698,20 0,00 0,00 0,00 0,00 0,00 5.698,20 626,80 604,06 0,00 1.230,86 4.467,34 3.567,68 294,77 31/01/2013
856 432500 FERNANDA DE PAULA ABRANTES ANALISTA DO MP ATIVO BELO HORIZONTE - COMARCA; BH-12PJ JUIZO CRIMINAL-GAB 091PJ 5.883,73 353,02 0,00 0,00 0,00 0,00 6.236,75 686,04 735,87 0,00 1.421,91 4.814,84 352,00 0,00 31/01/2013
857 431600 FERNANDA DIAS BARBOSA MENEZES ANALISTA DO MP ATIVO OURO BRANCO - COMARCA; OURO BRANCO-PJ-UNPJ 5.883,73 353,02 0,00 0,00 0,00 0,00 6.236,75 686,04 688,57 0,00 1.374,61 4.862,14 352,00 0,00 31/01/2013
858 162200 FERNANDA FERNANDES MONTEIRO ASSESSOR ATIVO BELO HORIZONTE - COMARCA; PROCON-MG-SECRETARIA DE FISCALIZACOES 0,00 1.109,64 3.698,79 0,00 0,00 0,00 4.808,43 457,49 285,88 0,00 743,37 4.065,06 3.802,68 1.787,37 31/01/2013
859 512800 FERNANDA FERREIRA BARBOSA MOREIRA ANALISTA DO MP ATIVO CARATINGA - COMARCA; CARATINGA-PJ-03PJ 4.701,73 0,00 0,00 0,00 0,00 0,00 4.701,73 517,24 364,52 0,00 881,76 3.819,97 352,00 1,31 31/01/2013
860 329200 FERNANDA GABRIEL GUZELLA OFICIAL DO MP ATIVO BELO HORIZONTE - COMARCA; DIRET DE PLANOS PROJETOS E PROGRAMAS INST 4.553,46 455,35 0,00 0,00 0,00 0,00 5.008,81 556,74 435,33 0,00 992,07 4.016,74 352,00 91,63 31/01/2013
861 324200 FERNANDA GEORGIA NEVES ZAHAN OFICIAL DO MP ATIVO IPANEMA - COMARCA; IPANEMA-PJ-SECRETARIA 4.409,86 2.204,93 0,00 0,00 0,00 0,00 6.614,79 727,63 781,10 0,00 1.508,73 5.106,06 352,00 0,00 31/01/2013
862 355400 FERNANDA HELENA BASQUES OFICIAL DO MP ATIVO SABARÁ - COMARCA; SABARA-PJ-01PJ 4.701,73 470,17 0,00 0,00 1.723,97 0,00 6.895,87 598,17 1.014,43 0,00 1.612,60 5.283,27 352,00 265,98 31/01/2013
863 454800 FERNANDA IATAROLA BARBOSA DIAS ANALISTA DO MP ATIVO BARBACENA - COMARCA; BARBACENA-PJ-01PJ 5.698,20 0,00 0,00 0,00 0,00 0,00 5.698,20 664,41 687,73 0,00 1.352,14 4.346,06 352,00 341,88 31/01/2013
864 515500 FERNANDA LILIANE MARUGEIRO ANALISTA DO MP ATIVO VESPASIANO - COMARCA; VESPASIANO-PJ-02PJ 4.701,73 0,00 0,00 0,00 1.567,24 0,00 6.268,97 560,72 827,45 0,00 1.388,17 4.880,80 352,00 396,42 31/01/2013
865 392900 FERNANDA MAGALHAES SILVA ANALISTA DO MP ATIVO BELO HORIZONTE - COMARCA; ASSESSORIA DE COMUNICACAO INTEGRADA 6.379,14 382,75 0,00 0,00 2.253,96 0,00 9.015,85 743,81 1.868,52 0,00 2.612,33 6.403,52 352,00 1.397,42 31/01/2013
866 409200 FERNANDA MAIA SANTIAGO ANALISTA DO MP ATIVO PIRAPORA - COMARCA; PIRAPORA-PJ-02PJ 5.344,58 320,67 0,00 0,00 1.888,42 0,00 7.553,67 628,94 1.115,30 0,00 1.744,24 5.809,43 352,00 91,37 31/01/2013
867 412900 FERNANDA PORTELA ROSA ANALISTA DO MP ATIVO BELO HORIZONTE - COMARCA; BH-08PJ JUIZADO ESPECIAL-SECRETARIA 6.379,14 382,75 0,00 0,00 0,00 0,00 6.761,89 986,08 1.403,45 0,00 2.389,53 4.372,36 352,00 2.202,48 31/01/2013
868 274301 FERNANDA QUEIROZ PARREIRA ANALISTA DO MP ATIVO PATOS DE MINAS - COMARCA; COORD REG PJ DEF EDU DIR CRI ADO AL PAR NOROE 5.176,02 0,00 0,00 0,00 0,00 0,00 5.176,02 571,75 476,25 0,00 1.048,00 4.128,02 352,00 38,52 31/01/2013
869 467900 FERNANDA QUEIROZ SIMOES GANNAM ANALISTA DO MP ATIVO SÃO LOURENÇO - COMARCA; SAO LOURENCO-PJ-04PJ 5.698,20 0,00 0,00 0,00 0,00 0,00 5.698,20 626,80 604,06 0,00 1.230,86 4.467,34 352,00 0,00 31/01/2013
870 255500 FERNANDA SIMOES LOPES MENDES ANALISTA DO MP ATIVO BELO HORIZONTE - COMARCA; BH-17PJ PATRIMONIO PUBLICO-SECRETARIA 9.074,45 1.814,89 0,00 0,00 0,00 0,00 10.889,34 1.197,83 1.827,29 0,00 3.025,12 7.864,22 587,00 0,00 31/01/2013
871 481700 FERNANDA VIANA FROES DA SILVA OFICIAL DO MP ATIVO GOVERNADOR VALADARES - COMARCA; GOVERNADOR VALADARES-PJ-09PJ 3.359,85 0,00 0,00 0,00 0,00 0,00 3.359,85 371,31 127,94 0,00 499,25 2.860,60 587,00 28,47 31/01/2013
872 123900 FERNANDO ANTONIO FARIA ABREU ANALISTA DO MP ATIVO BELO HORIZONTE - COMARCA; DIRETORIA-GERAL 19.062,49 15.250,00 0,00 0,00 0,00 2.652,94 36.965,43 2.652,94 3.586,77 10.194,87 16.434,58 20.530,85 3.567,68 294,78 31/01/2013
873 416900 FERNANDO APARECIDO DA SILVA ANALISTA DO MP ATIVO BOM DESPACHO - COMARCA; BOM DESPACHO-PJ-01PJ 6.379,14 2.551,65 0,00 0,00 0,00 0,00 8.930,79 982,39 1.347,94 0,00 2.330,33 6.600,46 3.802,68 294,77 31/01/2013
874 395900 FERNANDO AUGUSTO ETO LAGES ANALISTA DO MP ATIVO BELO HORIZONTE - COMARCA; CENTRAL DE APOIO TECN-SETOR DE MEIO AMBIENTE 5.883,73 353,02 0,00 0,00 0,00 0,00 6.236,75 686,04 735,87 0,00 1.421,91 4.814,84 352,00 0,00 31/01/2013
875 380500 FERNANDO BONES COSTA OFICIAL DO MP ATIVO BELO HORIZONTE - COMARCA; EXTINTA - DIVISÃO DE MATERIAL PERMANENTE 3.469,26 208,16 0,00 0,00 0,00 0,00 3.677,42 407,51 170,34 0,00 577,85 3.099,57 352,00 48,12 31/01/2013
876 500100 FERNANDO CEZAR PINTO OFICIAL DO MP ATIVO BELO HORIZONTE - COMARCA; EXTINTA - DIVISÃO DE MATERIAL PERMANENTE 3.051,96 0,00 0,00 0,00 0,00 0,00 3.051,96 335,82 62,51 0,00 398,33 2.653,63 587,00 2,49 31/01/2013
877 346100 FERNANDO EUSTAQUIO CAMPOS UTSCH MOREIRA ANALISTA DO MP ATIVO BELO HORIZONTE - COMARCA; DIRETORIA DE REDES E BANCOS DE DADOS 7.731,26 773,13 0,00 0,00 0,00 0,00 8.504,39 935,48 1.149,00 0,00 2.084,48 6.419,91 587,00 0,00 31/01/2013
878 103500 FERNANDO LUIZ DA SILVA JUNIOR OFICIAL DO MP ATIVO BELO HORIZONTE - COMARCA; DIVISAO DE ATENDIMENTO E CONSULTA JURIDICA 11.161,27 4.464,51 0,00 0,00 0,00 0,00 15.625,78 2.109,74 3.323,74 0,00 5.433,48 10.192,30 4.752,22 4.351,82 31/01/2013
879 287300 FERNANDO MARCIO ALVES MARTINS OFICIAL DO MP ATIVO LEOPOLDINA - COMARCA; LEOPOLDINA-PJ-01PJ 4.409,86 440,99 0,00 0,00 0,00 0,00 4.850,85 538,41 278,30 0,00 816,71 4.034,14 352,00 76,83 31/01/2013
880 262200 FERNANDO MARCIO RESENDE PEREIRA COORDENADOR/OFICIAL ATIVO BELO HORIZONTE - COMARCA; BH-12PJ JUIZO CRIMINAL-SECRETARIA 0,00 851,12 8.511,21 0,00 0,00 0,00 9.362,33 606,55 1.617,26 0,00 2.223,81 7.138,52 352,00 0,00 31/01/2013
881 472900 FERNANDO RODRIGUES DE FREITAS ANALISTA DO MP ATIVO SANTA BÁRBARA - COMARCA; SANTA BARBARA-PJ-UNPJ 4.701,73 0,00 0,00 0,00 0,00 0,00 4.701,73 649,45 457,83 0,00 1.107,28 3.594,45 1.630,81 1.614,96 31/01/2013
882 219600 FERNANDO SOARES MIRANDA COORDENADOR/ANALISTA ATIVO BELO HORIZONTE - COMARCA; PROCON-MG-GAB DO COORDENADOR DO PROCON-MG 10.997,69 13.659,96 0,00 0,00 0,00 2.298,52 26.956,17 2.298,52 5.747,18 540,03 8.585,73 18.370,44 352,00 0,00 31/01/2013
883 421400 FERNANDO TEODORO MACIEL ANALISTA DO MP ATIVO SANTA VITÓRIA - COMARCA; SANTA VITORIA-PJ-UNPJ 5.883,73 353,02 0,00 0,00 0,00 0,00 6.236,75 852,79 892,82 0,00 1.745,61 4.491,14 3.802,68 2.001,11 31/01/2013
884 446300 FERNANDO VITOR DE OLIVEIRA ANALISTA DO MP ATIVO MONTES CLAROS - COMARCA; COORD REG BACIA RIOS VERDE GRANDE E PARDO 5.883,73 353,02 0,00 0,00 2.078,92 0,00 8.315,67 979,56 1.882,25 0,00 2.861,81 5.453,86 781,17 2.707,71 31/01/2013
885 398400 FLAVIA ALVARES GUIMARAES OFICIAL DO MP ATIVO RIBEIRÃO DAS NEVES - COMARCA; RIBEIRAO DAS NEVES-PJ-01PJ 3.469,26 208,16 0,00 0,00 0,00 0,00 3.677,42 407,95 170,34 0,00 578,29 3.099,13 2.558,45 165,41 31/01/2013
886 398200 FLAVIA ALVES DE ASSUNCAO RODRIGUES ANALISTA DO MP ATIVO DIVINÓPOLIS - COMARCA; COORD REG DO MA DA BACIA DO ALTO SAO FRANC 5.883,73 353,02 0,00 0,00 0,00 0,00 6.236,75 686,04 735,87 0,00 1.421,91 4.814,84 352,00 0,00 31/01/2013
887 318500 FLAVIA BEATRIZ NUNES CRUZ VIEIRA ANALISTA DO MP ATIVO BARBACENA - COMARCA; BARBACENA-PJ-SECRETARIA 7.982,93 798,29 0,00 0,00 0,00 0,00 8.781,22 965,93 1.311,33 0,00 2.277,26 6.503,96 587,00 0,00 31/01/2013
888 496500 FLAVIA CARAM BORLIDO ANALISTA DO MP ATIVO BELO HORIZONTE - COMARCA; EXTINTA - DIVISAO DE SERVICOS GERAIS 5.176,02 0,00 0,00 0,00 0,00 0,00 5.176,02 572,01 476,25 0,00 1.048,26 4.127,76 352,00 42,53 31/01/2013
889 219500 FLAVIA CRISTINA ANCELMO OFICIAL DO MP ATIVO BELO HORIZONTE - COMARCA; BH-17PJ PATRIMONIO PUBLICO-SECRETARIA 4.553,46 910,69 0,00 0,00 0,00 0,00 5.464,15 601,06 546,77 0,00 1.147,83 4.316,32 352,00 0,00 31/01/2013
890 329600 FLAVIA CRISTINA DE MATOS XAVIER ANALISTA DO MP ATIVO UBERABA - COMARCA; UBERABA-PJ-15PJ 7.982,93 1.596,59 0,00 0,00 0,00 0,00 9.579,52 1.053,75 1.459,42 0,00 2.513,17 7.066,35 587,00 0,00 31/01/2013
891 207600 FLAVIA DE ANDRADE MANCINI ANALISTA DO MP ATIVO BELO HORIZONTE - COMARCA; ASSESSORIA JURIDICO-ADMINISTRATIVA 10.315,17 2.063,03 0,00 0,00 0,00 0,00 12.378,20 1.361,60 2.485,39 0,00 3.846,99 8.531,21 4.037,68 1.362,74 31/01/2013
892 402801 FLAVIA MARIA DE RESENDE NASCIMENTO ANALISTA DO MP ATIVO SÃO JOÃO DEL REI - COMARCA; SAO JOAO DEL REI-PJ-04PJ 5.012,79 0,00 0,00 0,00 0,00 0,00 5.012,79 551,41 436,30 0,00 987,71 4.025,08 352,00 0,00 31/01/2013
893 437500 FLAVIA MARIA TORRES MARCHETTI ANALISTA DO MP ATIVO BELO HORIZONTE - COMARCA; BH-13ª PJ JUÍXO DE TÓXICOS 5.883,73 353,02 0,00 0,00 0,00 0,00 6.236,75 827,18 1.049,89 0,00 1.877,07 4.359,68 696,79 1.314,65 31/01/2013
894 386000 FLAVIA NEVES BRIGIDO OFICIAL DO MP ATIVO OURO PRETO - COMARCA; OURO PRETO-PJ-04PJ 3.469,26 208,16 0,00 0,00 0,00 0,00 3.677,42 408,05 170,34 0,00 578,39 3.099,03 352,00 56,67 31/01/2013
895 488600 FLAVIA PEREIRA COSTA ANALISTA DO MP ATIVO BELO HORIZONTE - COMARCA; SERVICO MEDICO-DEPTO PERIC MEDICA SAUDE OCUP 5.176,02 0,00 0,00 0,00 0,00 0,00 5.176,02 573,80 476,25 0,00 1.050,05 4.125,97 352,00 70,74 31/01/2013
896 365400 FLAVIA PEREIRA DA SILVA OFICIAL DO MP ATIVO BELO HORIZONTE - COMARCA; BH-15PJ M AMB 16PJ HAB URB-SECRETARIA 4.553,46 455,35 0,00 0,00 0,00 0,00 5.008,81 555,07 435,33 0,00 990,40 4.018,41 352,00 65,59 31/01/2013
897 515400 FLAVIA RODRIGUES DE OLIVEIRA E SILVA PAIVA ANALISTA DO MP ATIVO CARATINGA - COMARCA; CARATINGA-PJ-01PJ 4.701,73 0,00 0,00 0,00 0,00 0,00 4.701,73 560,72 239,44 0,00 800,16 3.901,57 352,00 445,73 31/01/2013
898 515300 FLAVIA VIEIRA OLIVEIRA ANALISTA DO MP ATIVO BELO HORIZONTE - COMARCA; CAO-CRIMINAL-SECRETARIA 5.176,02 0,00 0,00 0,00 0,00 0,00 5.176,02 611,30 516,20 0,00 1.127,50 4.048,52 352,00 436,16 31/01/2013
899 377500 FLAVIANA GONCALVES DE OLIVEIRA ANALISTA DO MP ATIVO AÇUCENA - COMARCA; ACUCENA-PJ-UNPJ 6.379,14 382,75 0,00 0,00 0,00 0,00 6.761,89 743,81 864,39 0,00 1.608,20 5.153,69 352,00 0,00 31/01/2013
900 273100 FLAVIANE DOS SANTOS CASTRO OFICIAL DO MP ATIVO NATÉRCIA - COMARCA 5.012,79 501,28 0,00 0,00 0,00 0,00 5.514,07 611,92 417,11 0,00 1.029,03 4.485,04 822,00 85,34 31/01/2013
901 310600 FLAVIANE NAVES ALCANTARA ASSESSOR/OFICIAL ATIVO BELO HORIZONTE - COMARCA; PROC JUST ESP ACOES COMP ORIG CRIMINAL-SEC 0,00 748,75 7.487,46 0,00 0,00 0,00 8.236,21 646,69 1.296,54 0,00 1.943,23 6.292,98 3.567,68 294,77 31/01/2013
902 378200 FLAVIANE RIBEIRO BORGES OFICIAL DO MP ATIVO SÃO GONÇALO DO SAPUCAÍ - COMARCA; SAO GONCALO DO SAPUCAI-PJ-02PJ 3.469,26 208,16 0,00 0,00 0,00 0,00 3.677,42 407,46 170,34 0,00 577,80 3.099,62 2.558,45 157,72 31/01/2013
903 455800 FLAVIO ANTONIO RIBEIRO OFICIAL DO MP ATIVO PASSA TEMPO - COMARCA; PASSA TEMPO-PJ-SECRETARIA 3.051,96 0,00 0,00 0,00 0,00 0,00 3.051,96 338,37 86,84 0,00 425,21 2.626,75 1.572,78 103,95 31/01/2013
904 458200 FLAVIO AUGUSTO BRAGA SOARES ANALISTA DO MP ATIVO BELO HORIZONTE - COMARCA; DIRETORIA DE MANUTENCAO PREDIAL 5.698,20 0,00 0,00 0,00 0,00 0,00 5.698,20 626,80 604,06 0,00 1.230,86 4.467,34 352,00 0,00 31/01/2013
905 516500 FLAVIO AUGUSTO RODRIGUES CORREA ANALISTA DO MP ATIVO BELO HORIZONTE - COMARCA; COORD REG BACIAS RIO VELHAS E PARAOPEBA 4.701,73 0,00 0,00 0,00 0,00 0,00 4.701,73 551,46 396,46 0,00 947,92 3.753,81 352,00 361,40 31/01/2013
906 84300 FLAVIO DE FARIA BELTRAO OFICIAL DO MP ATIVO BELO HORIZONTE - COMARCA; DIRETORIA DE ADMINISTRACAO FINANCEIRA 17.108,05 8.554,03 0,00 0,00 0,00 0,00 25.662,08 2.652,94 5.064,92 1.544,46 9.262,32 16.399,76 352,00 0,00 31/01/2013
907 266600 FLAVIO GUIMARAES LANA ANALISTA DO MP ATIVO BELO HORIZONTE - COMARCA; CENTRAL DE APOIO TECN-SETOR DE MEIO AMBIENTE 7.022,72 702,27 0,00 0,00 0,00 0,00 7.724,99 849,75 1.100,11 0,00 1.949,86 5.775,13 352,00 0,00 31/01/2013
908 241500 FLAVIO HENRIQUE SILVA MARTINS LAGE OFICIAL DO MP ATIVO BELO HORIZONTE - COMARCA; CAO-DH CONT EXT ATIV POLIC E AP COMUNIT 4.854,78 1.456,43 0,00 0,00 0,00 0,00 6.311,21 694,23 754,09 0,00 1.448,32 4.862,89 352,00 0,00 31/01/2013
909 86700 FLAVIO LUCAS TOMAZ AGENTE DO MP ATIVO BELO HORIZONTE - COMARCA; BH-06PJ JUIZO CIVEL-SECRETARIA 4.701,73 2.350,87 0,00 0,00 0,00 0,00 7.052,60 775,79 572,51 0,00 1.348,30 5.704,30 3.567,68 294,77 31/01/2013
910 407200 FLAVIO LUCIO MONTEIRO PENA ANALISTA DO MP ATIVO BELO HORIZONTE - COMARCA; DIR CONTEUDO JORNALISTICO 5.344,58 320,67 0,00 0,00 0,00 0,00 5.665,25 629,41 595,99 0,00 1.225,40 4.439,85 352,00 98,84 31/01/2013
911 451700 FLAVIO MAGALHAES PEREIRA ANALISTA DO MP ATIVO BELO HORIZONTE - COMARCA; BH-12PJ JUIZO CRIMINAL-GAB 098PJ 5.698,20 0,00 0,00 0,00 0,00 0,00 5.698,20 631,51 604,06 0,00 1.235,57 4.462,63 352,00 75,07 31/01/2013
912 481500 FLAVIO NEVES GUELBER DE MACEDO OFICIAL DO MP ATIVO SÃO JOÃO NEPOMUCENO - COMARCA; SAO JOAO NEPOMUCENO-PJ-02PJ 3.051,96 0,00 0,00 0,00 0,00 0,00 3.051,96 337,55 86,84 0,00 424,39 2.627,57 352,00 29,94 31/01/2013
913 278100 FRANCIANE MARY DE SOUZA DOMENICI DE BRITO E CASTRO ANALISTA DO MP ATIVO BELO HORIZONTE - COMARCA; BH-12PJ JUIZO CRIMINAL 8.788,36 878,84 0,00 0,00 0,00 0,00 9.667,20 1.063,39 1.528,18 0,00 2.591,57 7.075,63 352,00 0,00 31/01/2013
914 192501 FRANCIELLE REIS DE OLIVEIRA ANALISTA DO MP ATIVO PASSOS - COMARCA; PASSOS-PJ-04PJ 8.788,36 878,84 0,00 0,00 3.222,40 0,00 12.889,60 1.063,39 2.319,75 0,00 3.383,14 9.506,46 587,00 0,00 31/01/2013
915 523600 FRANCINE MOURA LIMIRIO OFICIAL DO MP ATIVO UBERABA - COMARCA; UBERABA-PJ-02PJ 2.684,83 0,00 0,00 0,00 0,00 0,00 2.684,83 295,33 50,90 0,00 346,23 2.338,60 352,00 0,00 31/01/2013
916 467200 FRANCINI RENNO ANALISTA DO MP ATIVO SILVIANÓPOLIS - COMARCA; SILVIANOPOLIS-PJ-UNPJ 5.176,02 0,00 0,00 0,00 0,00 0,00 5.176,02 574,02 476,25 0,00 1.050,27 4.125,75 352,00 74,25 31/01/2013
917 189300 FRANCIS BERNARDO DO NASCIMENTO OFICIAL DO MP ATIVO VARGINHA - COMARCA; VARGINHA-PJ-05PJ 7.731,26 1.546,25 0,00 0,00 0,00 0,00 9.277,51 1.020,53 1.480,09 0,00 2.500,62 6.776,89 3.802,68 294,77 31/01/2013
918 207800 FRANCISCO CAMPOS PIRES DE MORAIS ANALISTA DO MP ATIVO BELO HORIZONTE - COMARCA; CENTRAL DE APOIO TECN-SETOR DE MEIO AMBIENTE 12.062,58 2.412,52 0,00 0,00 0,00 0,00 14.475,10 2.013,97 3.064,96 0,00 5.078,93 9.396,17 352,00 3.833,61 31/01/2013
919 424200 FRANCISCO DE FREITAS JUNIOR ANALISTA DO MP ATIVO MONTE AZUL - COMARCA; MONTE AZUL-PJ-UNPJ 4.854,78 291,29 0,00 0,00 0,00 0,00 5.146,07 566,07 468,92 0,00 1.034,99 4.111,08 352,00 0,00 31/01/2013
920 204600 FRANCISCO FERREIRA NOVAIS OFICIAL DO MP ATIVO IPATINGA - COMARCA; IPATINGA-PJ-08PJ 5.698,20 1.709,46 0,00 0,00 0,00 0,00 7.407,66 814,84 927,86 0,00 1.742,70 5.664,96 3.802,68 294,77 31/01/2013
921 124100 FRANCISCO MARCOS DE CARVALHO RIBEIRO OFICIAL DO MP ATIVO BELO HORIZONTE - COMARCA; PROC JUST ESP ACOES COMP ORIG CRIMINAL-SEC 10.997,69 9.897,93 0,00 0,00 0,00 2.298,52 23.194,14 2.298,52 4.861,13 0,00 7.159,65 16.034,49 352,00 0,00 31/01/2013
922 60500 FRANCISCO OLIMPIO TEIXEIRA AGENTE DO MP ATIVO BELO HORIZONTE - COMARCA; EXTINTA - DIVISAO DE TRANSPORTES 4.409,86 3.527,89 0,00 0,00 0,00 0,00 7.937,75 1.247,37 1.842,95 0,00 3.090,32 4.847,43 3.802,68 3.696,77 31/01/2013
923 411600 FRANCISCO PAIVA BRITO ANALISTA DO MP ATIVO BELO HORIZONTE - COMARCA; TRIBUNAL DO JURI-07 PJ-02 TRIBUNAL 5.883,73 353,02 0,00 0,00 0,00 0,00 6.236,75 686,04 735,87 0,00 1.421,91 4.814,84 352,00 0,00 31/01/2013
924 515800 FRANCISCO RAFAEL DA SILVA NETO ANALISTA DO MP ATIVO SACRAMENTO - COMARCA; SACRAMENTO-PJ-01PJ 4.270,85 0,00 0,00 0,00 0,00 0,00 4.270,85 504,40 190,15 0,00 694,55 3.576,30 486,70 318,40 31/01/2013
925 515200 FRANCISLEI ELIAS GONCALVES OFICIAL DO MP ATIVO PASSOS - COMARCA; PASSOS-PJ-01PJ 2.772,23 554,45 0,00 0,00 0,00 0,00 3.326,68 396,72 62,05 0,00 458,77 2.867,91 456,88 317,88 31/01/2013
926 443600 FRANCISLEI MARTINS DE SOUSA ANALISTA DO MP ATIVO TIMÓTEO - COMARCA; TIMOTEO-PJ-01PJ 5.883,73 353,02 0,00 0,00 2.078,92 0,00 8.315,67 686,04 1.307,57 0,00 1.993,61 6.322,06 352,00 0,00 31/01/2013
927 424500 FREDERICO AUGUSTO COBRA MULLER ANALISTA DO MP ATIVO POUSO ALEGRE - COMARCA; POUSO ALEGRE-PJ-03PJ 5.883,73 353,02 0,00 0,00 0,00 0,00 6.236,75 686,04 735,87 0,00 1.421,91 4.814,84 3.567,68 294,77 31/01/2013
928 473100 FREDERICO AUGUSTO LIMA FELICIO ANALISTA DO MP ATIVO CONCEIÇÃO DO MATO DENTRO - COMARCA; CONCEICAO DO MATO DENTRO-PJ-UNPJ 5.176,02 0,00 0,00 0,00 1.725,34 0,00 6.901,36 704,91 1.066,80 0,00 1.771,71 5.129,65 352,00 1.267,14 31/01/2013
929 318100 FREDERICO BIANCHINI JOVIANO DOS SANTOS ASSESSOR/OFICIAL ATIVO BELO HORIZONTE - COMARCA; PROMOT ESTADUAL DE DEF PATRI CULT E TUR DE MG 0,00 748,75 7.487,46 0,00 0,00 0,00 8.236,21 533,59 1.327,64 0,00 1.861,23 6.374,98 352,00 0,00 31/01/2013
930 124200 FREDERICO DE SOUZA ROCHA OFICIAL DO MP ATIVO ESPINOSA - COMARCA; ESPINOSA-PJ-SECRETARIA 8.511,21 5.957,84 0,00 0,00 0,00 0,00 14.469,05 1.768,94 2.956,15 0,00 4.725,09 9.743,96 3.914,04 1.907,03 31/01/2013
931 177100 FREDERICO FERNANDES DE ANDRADE ASSESSOR/OFICIAL ATIVO BELO HORIZONTE - COMARCA; DIRETORIA DE SUPORTE E MANUTENCAO 0,00 1.497,49 7.487,46 0,00 0,00 0,00 8.984,95 776,65 1.466,70 0,00 2.243,35 6.741,60 3.567,68 294,77 31/01/2013
932 456200 FREDERICO FERNANDES PASSOS ANALISTA DO MP ATIVO BELO HORIZONTE - COMARCA; DIRETORIA DE REDES E BANCOS DE DADOS 5.698,20 0,00 0,00 0,00 0,00 0,00 5.698,20 697,32 700,21 0,00 1.397,53 4.300,67 352,00 682,16 31/01/2013
933 400900 FREDERICO LUCIANO BORGES REIS ANALISTA DO MP ATIVO BELO HORIZONTE - COMARCA; DIRETORIA DE SISTEMAS DE INFORMACAO 6.379,14 382,75 0,00 0,00 0,00 0,00 6.761,89 896,82 1.204,85 0,00 2.101,67 4.660,22 352,00 1.391,04 31/01/2013
934 466200 FREDERICO LUIS FERNANDES ANALISTA DO MP ATIVO BELO HORIZONTE - COMARCA; BH-12PJ JUIZO CRIMINAL 4.701,73 0,00 0,00 0,00 0,00 0,00 4.701,73 521,86 364,52 0,00 886,38 3.815,35 352,00 74,43 31/01/2013
935 419700 FREDERICO MECKLER SANTOS ANALISTA DO MP ATIVO CLÁUDIO - COMARCA; CLAUDIO-PJ-UNPJ 6.379,14 382,75 0,00 0,00 0,00 0,00 6.761,89 899,77 992,92 0,00 1.892,69 4.869,20 352,00 1.417,86 31/01/2013
936 257100 FULVIA HERONVILLE DA SILVA OFICIAL DO MP ATIVO BELO HORIZONTE - COMARCA; DIVISAO DE MEMORIA INSTITUCIONAL 5.698,20 1.139,64 0,00 0,00 0,00 0,00 6.837,84 758,22 835,69 0,00 1.593,91 5.243,93 587,00 96,13 31/01/2013
937 405500 GABRIEL CARVALHO DE ASSIS OFICIAL DO MP ATIVO JUIZ DE FORA - COMARCA; COORD REG DEF ORDEM ECO TRIB JUIZ DE FORA-SEC 3.469,26 208,16 0,00 0,00 0,00 0,00 3.677,42 407,49 170,34 0,00 577,83 3.099,59 352,00 47,79 31/01/2013
938 397200 GABRIEL DEIVID MARTINS LEITE OFICIAL DO MP ATIVO MONTE CARMELO - COMARCA; MONTE CARMELO-PJ-02PJ 4.553,46 273,21 0,00 0,00 0,00 0,00 4.826,67 534,15 390,75 0,00 924,90 3.901,77 352,00 51,80 31/01/2013
939 386800 GABRIELA SIMOES CHAVES ANALISTA DO MP ATIVO BELO HORIZONTE - COMARCA; EXTINTA - DIVISÃO DE COMPRAS 6.379,14 382,75 0,00 0,00 0,00 0,00 6.761,89 833,07 1.062,99 0,00 1.896,06 4.865,83 352,00 811,44 31/01/2013
940 449700 GABRIELE COSTA FERREIRA OFICIAL DO MP ATIVO BELO HORIZONTE - COMARCA; DIRETORIA DE ORCAMENTO-DIOR/SPC 3.051,96 0,00 0,00 0,00 0,00 0,00 3.051,96 337,65 86,84 0,00 424,49 2.627,47 352,00 31,65 31/01/2013
941 357600 GABRIELLA CRUZ EMRICH OFICIAL DO MP ATIVO BELO HORIZONTE - COMARCA; BH-12PJ JUIZO CRIMINAL 3.879,42 387,94 0,00 0,00 0,00 0,00 4.267,36 472,96 277,54 0,00 750,50 3.516,86 352,00 56,86 31/01/2013
942 470600 GABRIELLA SPIRANDELLI COIMBRA ANALISTA DO MP ATIVO UBERLÂNDIA - COMARCA; UBERLANDIA-PJ-19PJ 5.698,20 0,00 0,00 0,00 0,00 0,00 5.698,20 791,17 731,86 0,00 1.523,03 4.175,17 352,00 1.531,37 31/01/2013
943 86000 GASPAR GOMES DE SOUSA AGENTE DO MP ATIVO BELO HORIZONTE - COMARCA; BH-15PJ M AMB PAT HIST CULT-RECEPCAO 17.108,05 11.975,65 0,00 0,00 8.039,21 0,00 37.122,91 2.652,94 7.322,99 4.966,08 14.942,01 22.180,90 352,00 0,00 31/01/2013
944 183100 GECIELLE FERNANDA SILVA OFICIAL DO MP ATIVO PITANGUI - COMARCA; PITANGUI-PJ-02PJ 7.731,26 1.546,25 0,00 0,00 0,00 0,00 9.277,51 1.020,53 1.385,51 0,00 2.406,04 6.871,47 352,00 0,00 31/01/2013
945 387300 GEOFFREY GIULLIANO OLIVEIRA ALMEIDA ANALISTA DO MP ATIVO JANAÚBA - COMARCA; JANAUBA-PJ-03PJ 5.883,73 353,02 0,00 0,00 0,00 0,00 6.236,75 686,04 735,87 0,00 1.421,91 4.814,84 352,00 0,00 31/01/2013
946 277700 GEORGIA CRISTINA BASILIO MEDRADO ANALISTA DO MP ATIVO BELO HORIZONTE - COMARCA; SERVICO MEDICO-DEPTO PERIC MEDICA SAUDE OCUP 8.788,36 878,84 0,00 0,00 0,00 0,00 9.667,20 1.063,39 1.528,18 0,00 2.591,57 7.075,63 3.567,68 294,77 31/01/2013
947 512100 GEOVANI VICENTIN ANALISTA DO MP ATIVO SANTA RITA DE CALDAS - COMARCA; SANTA RITA DE CALDAS-PJ-UNPJ 4.701,73 0,00 0,00 0,00 0,00 0,00 4.701,73 517,25 364,52 0,00 881,77 3.819,96 352,00 1,63 31/01/2013
948 116300 GEOVANNA DAS GRACAS ROSA REQUEIJO AGENTE DO MP ATIVO SANTA LUZIA - COMARCA; SANTA LUZIA-PJ-06PJ 11.161,27 4.464,51 0,00 0,00 0,00 0,00 15.625,78 1.964,38 3.165,13 0,00 5.129,51 10.496,27 587,00 2.232,26 31/01/2013
949 207200 GERALDO AFONSO DE MOURA CALDEIRA ANALISTA DO MP ATIVO BELO HORIZONTE - COMARCA; BH-17PJ PATRIMONIO PUBLICO 12.062,58 2.412,52 0,00 0,00 0,00 1.873,40 16.348,50 2.013,97 3.580,14 0,00 5.594,11 10.754,39 352,00 3.833,61 31/01/2013
950 274901 GERALDO ANDRE DE OLIVEIRA ANALISTA DO MP ATIVO CONTAGEM - COMARCA; CONTAGEM-PJ-18PJ 4.270,85 854,17 0,00 0,00 1.708,34 0,00 6.833,36 660,62 1.038,09 0,00 1.698,71 5.134,65 352,00 900,94 31/01/2013
951 270900 GERALDO BATISTA BRITES OFICIAL DO MP ATIVO BOM DESPACHO - COMARCA; BOM DESPACHO-PJ-01PJ 5.344,58 1.068,92 0,00 0,00 0,00 0,00 6.413,50 784,11 859,47 0,00 1.643,58 4.769,92 587,00 714,74 31/01/2013
952 204200 GERALDO CELIO ARAUJO SOARES OFICIAL DO MP ATIVO GOVERNADOR VALADARES - COMARCA; GOVERNADOR VALADARES-PJ-12PJ 7.731,26 1.546,25 0,00 0,00 0,00 0,00 9.277,51 1.020,53 1.432,80 0,00 2.453,33 6.824,18 587,00 0,00 31/01/2013
953 66900 GERALDO DIAS CYRINO OFICIAL DO MP ATIVO BELO HORIZONTE - COMARCA; CAO-CRIMINAL 11.161,27 5.580,63 0,00 0,00 0,00 0,00 16.741,90 2.220,48 4.102,68 0,00 6.323,16 10.418,74 352,00 3.444,24 31/01/2013
954 366500 GERALDO LEVY ROMUALDO DA SILVA OFICIAL DO MP ATIVO RIO POMBA - COMARCA; RIO POMBA-PJ-SECRETARIA 3.879,42 387,94 0,00 0,00 0,00 0,00 4.267,36 581,42 343,01 0,00 924,43 3.342,93 352,00 1.046,90 31/01/2013
955 278400 GERALDO MAGELA RAMALHO OFICIAL DO MP ATIVO VISCONDE DO RIO BRANCO - COMARCA; VISCONDE DO RIO BRANCO-PJ-03PJ 4.005,77 400,58 0,00 0,00 0,00 0,00 4.406,35 490,48 305,37 0,00 795,85 3.610,50 352,00 91,64 31/01/2013
956 124300 GERALDO MARCIO GOMES DA SILVA COORDENADOR/ANALISTA ATIVO BELO HORIZONTE - COMARCA; EXTINTA - DIRETORIA SERVIÇOS GERAIS E TRANS 16.456,57 15.874,25 0,00 0,00 0,00 0,00 32.330,82 2.652,94 4.875,75 8.213,20 15.741,89 16.588,93 352,00 0,00 31/01/2013
957 124400 GERALDO MAURICIO DE FARIA ROCHA OFICIAL DO MP ATIVO BELO HORIZONTE - COMARCA; CAO-CONFLITOS AGRARIOS 6.801,32 4.760,93 0,00 0,00 0,00 0,00 11.562,25 1.271,85 1.944,70 0,00 3.216,55 8.345,70 352,00 0,00 31/01/2013
958 472800 GERALDO MONTEIRO CAMARGO JUNIOR ANALISTA DO MP ATIVO ESPINOSA - COMARCA; ESPINOSA-PJ-UNPJ 4.701,73 940,35 0,00 0,00 1.880,69 0,00 7.522,77 789,03 1.234,06 0,00 2.023,09 5.499,68 558,82 1.758,51 31/01/2013
959 124500 GERALDO ROGERIO GOMES SILVEIRA COORDENADOR/OFICIAL ATIVO BELO HORIZONTE - COMARCA; DIRETORIA DE PESSOAL ADMINISTRATIVO - DPAD 8.511,21 8.473,33 0,00 0,00 0,00 0,00 16.984,54 1.591,60 3.395,19 0,00 4.986,79 11.997,75 3.567,68 294,77 31/01/2013
960 445900 GERALDO TAVARES FERREIRA ANALISTA DO MP ATIVO FORMIGA - COMARCA; FORMIGA-PJ-SECRETARIA 5.344,58 320,67 0,00 0,00 1.888,42 0,00 7.553,67 683,72 1.159,04 0,00 1.842,76 5.710,91 352,00 581,66 31/01/2013
961 521000 GERALDO VINICIUS IRENO ANALISTA DO MP ATIVO CURVELO - COMARCA; CURVELO-PJ-01PJ 4.553,46 0,00 0,00 0,00 0,00 0,00 4.553,46 500,88 334,83 0,00 835,71 3.717,75 352,00 0,00 31/01/2013
962 325400 GERSONI FERREIRA LUCENA OFICIAL DO MP ATIVO POÇOS DE CALDAS - COMARCA; POCOS DE CALDAS-PJ-01PJ 4.553,46 455,35 0,00 0,00 0,00 0,00 5.008,81 603,11 445,81 0,00 1.048,92 3.959,89 3.802,68 748,80 31/01/2013
963 445600 GERUSA E SILVA CASTRO LOPEZ ANALISTA DO MP ATIVO BELO HORIZONTE - COMARCA; ASSESSORIA JURIDICO-ADMINISTRATIVA 5.344,58 320,67 0,00 0,00 0,00 0,00 5.665,25 629,00 595,99 0,00 1.224,99 4.440,26 352,00 92,32 31/01/2013
964 468600 GILDA MARIA SANTOS DE FILIPPO ANDRADE OFICIAL DO MP ATIVO UBÁ - COMARCA; COORD REG BACIA DO RIO PARAIBA DO SUL 3.698,79 0,00 0,00 0,00 1.232,93 0,00 4.931,72 409,46 453,75 0,00 863,21 4.068,51 352,00 41,98 31/01/2013
965 508300 GILMAR ALVES FERREIRA OFICIAL DO MP ATIVO BELO HORIZONTE - COMARCA; BH-13ª PJ JUÍXO DE TÓXICOS 2.772,23 0,00 0,00 0,00 0,00 0,00 2.772,23 305,01 56,74 0,00 361,75 2.410,48 352,00 1,56 31/01/2013
966 455400 GILMAR DIAS NASCIMENTO OFICIAL DO MP ATIVO SÃO FRANCISCO - COMARCA; SAO FRANCISCO-PJ-01PJ 3.051,96 0,00 0,00 0,00 0,00 0,00 3.051,96 338,02 86,84 0,00 424,86 2.627,10 352,00 37,37 31/01/2013
967 213000 GILMAR JOSE DA SILVA OFICIAL DO MP ATIVO DIVINÓPOLIS - COMARCA; DIVINOPOLIS-PJ-SECRETARIA 7.731,26 1.546,25 0,00 0,00 0,00 0,00 9.277,51 1.020,53 1.480,09 0,00 2.500,62 6.776,89 3.567,68 294,77 31/01/2013
968 496900 GILSON NOGUEIRA GUIMARAES ANALISTA DO MP ATIVO MANHUMIRIM - COMARCA; MANHUMIRIM-PJ-01PJ 5.176,02 0,00 0,00 0,00 0,00 0,00 5.176,02 571,25 476,25 0,00 1.047,50 4.128,52 352,00 30,77 31/01/2013
969 476600 GIMENNI JULIANA VILELA MACHADO MOREIRA OFICIAL DO MP ATIVO CONTAGEM - COMARCA; CONTAGEM-PJ-12PJ 3.359,85 0,00 0,00 0,00 1.119,95 0,00 4.479,80 449,18 370,76 0,00 819,94 3.659,86 587,00 838,82 31/01/2013
970 391700 GIORDANI LOPES TAVARES ANALISTA DO MP ATIVO BELO HORIZONTE - COMARCA; SUPERINTENDÊNCIA DE ENGENHARIA E ARQUITETURA 6.379,14 382,75 0,00 0,00 0,00 0,00 6.761,89 743,81 864,39 0,00 1.608,20 5.153,69 352,00 0,00 31/01/2013
971 251300 GIOVANE SOUZA PEREIRA OFICIAL DO MP ATIVO PARAGUAÇU - COMARCA; PARAGUACU-PJ-SECRETARIA 4.553,46 910,69 0,00 0,00 0,00 0,00 5.464,15 601,06 546,77 0,00 1.147,83 4.316,32 352,00 0,00 31/01/2013
972 438800 GIOVANNA BRANDAO DE ARAUJO ANALISTA DO MP ATIVO ALMENARA - COMARCA; ALMENARA-PJ-01PJ 5.344,58 320,67 0,00 0,00 0,00 0,00 5.665,25 628,60 595,99 0,00 1.224,59 4.440,66 352,00 86,15 31/01/2013
973 243400 GIOVANNA FRANCA BISTENE OFICIAL DO MP ATIVO BELO HORIZONTE - COMARCA; ASSESS EXECUTIVA DO CONSELHO SUPERIOR DO MP 6.075,32 1.215,06 0,00 0,00 0,00 0,00 7.290,38 801,94 899,16 0,00 1.701,10 5.589,28 822,00 0,00 31/01/2013
974 124600 GIOVANNI ANANIAS CAMILO DO VALLE ANALISTA DO MP ATIVO OLIVEIRA - COMARCA; OLIVEIRA-PJ-01PJ 12.540,10 6.270,05 0,00 0,00 0,00 0,00 18.810,15 2.069,12 3.813,20 0,00 5.882,32 12.927,83 352,00 0,00 31/01/2013
975 366700 GIOVANNI DE SOUZA ANDRADE OFICIAL DO MP ATIVO PASSOS - COMARCA; PASSOS-PJ-01PJ 3.879,42 387,94 0,00 0,00 0,00 0,00 4.267,36 473,61 171,71 0,00 645,32 3.622,04 2.058,94 152,50 31/01/2013
976 124700 GIOVANNI REIS CONDE OFICIAL DO MP ATIVO MERCÊS - COMARCA; MERCES-PJ-SECRETARIA 5.344,58 3.741,20 0,00 0,00 0,00 0,00 9.085,78 999,44 824,13 0,00 1.823,57 7.262,21 352,00 0,00 31/01/2013
977 219000 GIRLEI DE FATIMA SOUSA ASSESSOR ATIVO BELO HORIZONTE - COMARCA; BH-17PJ PATRIMONIO PUBLICO 0,00 1.648,56 8.242,82 0,00 0,00 0,00 9.891,38 457,49 1.803,74 0,00 2.261,23 7.630,15 352,00 0,00 31/01/2013
978 444600 GISELE ADRIANE FONSECA ANALISTA DO MP ATIVO BETIM - COMARCA; BETIM-PJ-03PJ 5.883,73 353,02 0,00 0,00 0,00 0,00 6.236,75 686,04 735,87 0,00 1.421,91 4.814,84 352,00 0,00 31/01/2013
979 445100 GISELE DE CAMPOS VERSIANI ASSESSOR/OFICIAL ATIVO BELO HORIZONTE - COMARCA; DIRET DE INFORMACAO E EXPEDICAO DE PROCESSOS 0,00 449,25 7.487,46 0,00 0,00 0,00 7.936,71 425,78 1.274,93 0,00 1.700,71 6.236,00 352,00 0,00 31/01/2013
980 423000 GISELE MEGALE SANTINI ANALISTA DO MP ATIVO BELO HORIZONTE - COMARCA; BH-09PJ AUDITORIA MILITAR-SECRETARIA 5.883,73 353,02 0,00 0,00 2.078,92 0,00 8.315,67 686,04 1.307,57 0,00 1.993,61 6.322,06 352,00 0,00 31/01/2013
981 425300 GISELE MENEZES RIBEIRO DE OLIVEIRA ANALISTA DO MP ATIVO SANTA LUZIA - COMARCA; SANTA LUZIA-PJ-01PJ 5.344,58 320,67 0,00 0,00 0,00 0,00 5.665,25 623,18 548,70 0,00 1.171,88 4.493,37 352,00 0,00 31/01/2013
982 116500 GISELIA MARIA GABRIEL DE PAULA OFICIAL DO MP ATIVO BELO HORIZONTE - COMARCA; BH-14PJ DEFESA CONSUMIDOR-SECRETARIA 7.982,93 5.588,05 0,00 0,00 4.523,66 1.492,81 19.587,45 1.492,81 4.185,45 0,00 5.678,26 13.909,19 352,00 0,00 31/01/2013
983 478200 GISELLE BRESCIA SOARES DE SOUZA CUNHA ANALISTA DO MP ATIVO ITAÚNA - COMARCA; ITAUNA-PJ-04PJ 5.176,02 0,00 0,00 0,00 0,00 0,00 5.176,02 681,77 545,04 0,00 1.226,81 3.949,21 587,00 1.053,34 31/01/2013
984 289300 GISELLE CASTRO MACHADO ANALISTA DO MP ATIVO BELO HORIZONTE - COMARCA; EXTINTA - SECRETARIA ADMINISTRATIVA 5.698,20 569,82 0,00 0,00 0,00 0,00 6.268,02 689,48 743,52 0,00 1.433,00 4.835,02 352,00 0,00 31/01/2013
985 399100 GISELLE DE VIVEIROS LEITAO OFICIAL DO MP ATIVO MATIAS BARBOSA - COMARCA; MATIAS BARBOSA-PJ-SECRETARIA 3.469,26 208,16 0,00 0,00 0,00 0,00 3.677,42 407,21 170,34 0,00 577,55 3.099,87 352,00 43,50 31/01/2013
986 357401 GISELLE GUIMARAES DE OLIVEIRA REZENDE ANALISTA DO MP ATIVO BELO HORIZONTE - COMARCA; PROC JUST ESP ACOES COMP ORIG CRIMINAL-ASSESS 6.379,14 382,75 0,00 0,00 0,00 0,00 6.761,89 743,81 864,39 0,00 1.608,20 5.153,69 352,00 0,00 31/01/2013
987 492200 GISELLE MUNIZ DE AGUIAR ANALISTA DO MP ATIVO BRASÍLIA DE MINAS - COMARCA; BRASILIA DE MINAS-PJ-02PJ 4.701,73 0,00 0,00 0,00 0,00 0,00 4.701,73 519,96 364,52 0,00 884,48 3.817,25 352,00 44,53 31/01/2013
988 520300 GISELLE NORMANDIA GONCALVES ANALISTA DO MP ATIVO SANTO ANTÔNIO DO MONTE - COMARCA; SANTO ANTONIO DO MONTE-PJ-UNPJ 5.012,79 0,00 0,00 0,00 0,00 0,00 5.012,79 551,41 436,30 0,00 987,71 4.025,08 352,00 0,00 31/01/2013
989 112300 GISELLE VILELA RIBEIRO AGENTE DO MP ATIVO BELO HORIZONTE - COMARCA; BH-07PJ 01 TRIBUNAL DO JURI 7.982,93 3.991,47 0,00 0,00 0,00 0,00 11.974,40 1.317,18 2.140,16 0,00 3.457,34 8.517,06 352,00 0,00 31/01/2013
990 459800 GISELLI FERNANDES COSTA ANALISTA DO MP ATIVO GOVERNADOR VALADARES - COMARCA; GOVERNADOR VALADARES-PJ-08PJ 5.698,20 1.139,64 0,00 0,00 0,00 0,00 6.837,84 752,16 882,98 0,00 1.635,14 5.202,70 352,00 0,00 31/01/2013
991 149600 GISLAINE FERNANDES MAGNO OFICIAL DO MP ATIVO BELO HORIZONTE - COMARCA; SUPRIN DE FORMACAO E APERFEICOAMENTO-SFA/CEAF 8.788,36 2.636,51 0,00 0,00 0,00 0,00 11.424,87 1.256,74 1.911,07 0,00 3.167,81 8.257,06 3.567,68 294,77 31/01/2013
992 85800 GISLANDIA MARTINS ABREU E SILVA OFICIAL DO MP ATIVO BELO HORIZONTE - COMARCA; JUNTA RECURSAL DO PROCON ESTADUAL 19.713,97 7.885,59 0,00 0,00 0,00 0,00 27.599,56 2.652,94 5.017,62 3.481,94 11.152,50 16.447,06 352,00 0,00 31/01/2013
993 112700 GISLEIA MARTINS DA SILVA OFICIAL DO MP ATIVO BELO HORIZONTE - COMARCA; ASSESSORIA ESPECIAL DO PGJ 8.788,36 3.515,35 0,00 0,00 0,00 0,00 12.303,71 1.353,41 2.078,88 0,00 3.432,29 8.871,42 3.802,68 294,77 31/01/2013
994 250100 GISLEIDE GONALVES DE OLIVEIRA OFICIAL DO MP ATIVO JANAÚBA - COMARCA; JANAUBA-PJ-01PJ 5.176,02 1.035,20 0,00 0,00 0,00 0,00 6.211,22 683,23 729,62 0,00 1.412,85 4.798,37 682,21 30,27 31/01/2013
995 335300 GISLENE FAUSTINO DIAS DE ALMEIDA OFICIAL DO MP ATIVO UBERLÂNDIA - COMARCA; UBERLANDIA-COORD CONJ-FAMÍLIA E JUIZ ESP CRIM 5.344,58 534,46 0,00 0,00 0,00 0,00 5.879,04 646,69 648,32 0,00 1.295,01 4.584,03 352,00 0,00 31/01/2013
996 492400 GISLENE GOMIDE GUIMARAES CREPALDE ANALISTA DO MP ATIVO CARATINGA - COMARCA; CARATINGA-PJ-02PJ 5.176,02 0,00 0,00 0,00 0,00 0,00 5.176,02 572,72 476,25 0,00 1.048,97 4.127,05 352,00 53,70 31/01/2013
997 329800 GISLENE MENDES MARTINS OFICIAL DO MP ATIVO BELO HORIZONTE - COMARCA; BH-17PJ PATRIMONIO PUBLICO-SECRETARIA 5.012,79 501,28 0,00 0,00 0,00 0,00 5.514,07 606,55 558,99 0,00 1.165,54 4.348,53 3.567,68 294,77 31/01/2013
998 327200 GISLEY CERQUEIRA SCAPOLATEMPORE BERNIS ASSESSOR/OFICIAL ATIVO BELO HORIZONTE - COMARCA; EXTINTA-CGMP-DIV APOIO FISC ORIENT FUNCIONAL 0,00 824,28 8.242,82 0,00 0,00 0,00 9.067,10 606,55 1.536,07 0,00 2.142,62 6.924,48 3.567,68 294,77 31/01/2013
999 525300 GIULIANO LOMBARDI ASSUMPCAO OFICIAL DO MP ATIVO CONTAGEM - COMARCA; CONTAGEM-PJ-01PJ 2.684,83 0,00 0,00 0,00 894,94 0,00 3.579,77 295,33 172,07 0,00 467,40 3.112,37 352,00 0,00 31/01/2013
1000 503100 GIULLIANA MATTIOLI OFICIAL DO MP ATIVO ITAJUBA - COMARCA; ITAJUBA-PJ-02PJ 3.051,96 0,00 0,00 0,00 0,00 0,00 3.051,96 335,82 62,51 0,00 398,33 2.653,63 659,00 2,53 31/01/2013
1001 459300 GLADSON LIMA DE SOUZA OFICIAL DO MP ATIVO PATOS DE MINAS - COMARCA; PATOS DE MINAS-PJ-05PJ 3.051,96 0,00 0,00 0,00 0,00 0,00 3.051,96 337,76 86,84 0,00 424,60 2.627,36 352,00 33,29 31/01/2013
1002 148300 GLADSTON ALMEIDA CAJA AGENTE DO MP ATIVO BELO HORIZONTE - COMARCA; PROCON-MG-SECRETARIA DE FISCALIZACOES 5.518,54 2.207,42 0,00 0,00 0,00 0,00 7.725,96 915,42 1.151,65 0,00 2.067,07 5.658,89 3.567,68 890,84 31/01/2013
1003 333800 GLADSTON CIRILO TAVARES GOMES OFICIAL DO MP ATIVO JUIZ DE FORA - COMARCA; JUIZ DE FORA-PJ-24PJ 4.553,46 455,35 0,00 0,00 0,00 0,00 5.008,81 556,18 435,33 0,00 991,51 4.017,30 3.567,68 377,58 31/01/2013
1004 391600 GLAUBER COELHO CARVALHO ANALISTA DO MP ATIVO JANUÁRIA - COMARCA; JANUARIA-PJ-02PJ 6.379,14 382,75 0,00 0,00 0,00 0,00 6.761,89 743,81 864,39 0,00 1.608,20 5.153,69 3.997,76 294,77 31/01/2013
1005 478700 GLAUCIA TAVARES ANALISTA DO MP ATIVO RIBEIRÃO DAS NEVES - COMARCA; RIBEIRAO DAS NEVES-PJ-03PJ 4.270,85 0,00 0,00 0,00 0,00 0,00 4.270,85 474,38 278,24 0,00 752,62 3.518,23 352,00 73,07 31/01/2013
1006 263800 GLAUDITON FERREIRA DE MATOS ASSESSOR ATIVO BELO HORIZONTE - COMARCA; DIRETORIA DE SUPORTE E MANUTENCAO 0,00 369,88 3.698,79 0,00 0,00 0,00 4.068,67 457,49 235,52 0,00 693,01 3.375,66 3.567,68 320,81 31/01/2013
1007 444500 GLAYSSON PEREIRA DA COSTA ANALISTA DO MP ATIVO CONTAGEM - COMARCA; CONTAGEM-PJ-APO TECNICO 5.883,73 1.176,75 0,00 0,00 0,00 0,00 7.060,48 776,65 937,47 0,00 1.714,12 5.346,36 352,00 0,00 31/01/2013
1008 238900 GLEICE LUCIA FRANCO OFICIAL DO MP ATIVO BELO HORIZONTE - COMARCA; BH-13ª PJ JUÍXO DE TÓXICOS 6.075,32 1.215,06 0,00 0,00 0,00 0,00 7.290,38 843,19 1.085,51 0,00 1.928,70 5.361,68 352,00 374,94 31/01/2013
1009 276400 GLEICE RENATA DE AMORIM FREITAS OFICIAL DO MP ATIVO BELO HORIZONTE - COMARCA; EXTINTA-CGMP-DIV APOIO ADMINISTRATIVO 5.518,54 551,85 0,00 0,00 0,00 0,00 6.070,39 667,74 695,15 0,00 1.362,89 4.707,50 3.567,68 294,77 31/01/2013
1010 410900 GLEICIANE GARCIA LAGARES RESENDE ANALISTA DO MP ATIVO IPATINGA - COMARCA; IPATINGA-PJ-03PJ 5.344,58 320,67 0,00 0,00 0,00 0,00 5.665,25 629,28 595,99 0,00 1.225,27 4.439,98 587,00 96,84 31/01/2013
1011 423200 GLEISON SOUZA CREPALDE ANALISTA DO MP ATIVO RAUL SOARES - COMARCA; RAUL SOARES-PJ-UNPJ 6.379,14 382,75 0,00 0,00 2.253,96 0,00 9.015,85 878,59 1.612,76 0,00 2.491,35 6.524,50 352,00 1.225,31 31/01/2013
1012 452200 GLEISY ANDRADE MORAIS ANALISTA DO MP ATIVO BELO HORIZONTE - COMARCA; PROC JUST ESP ACOES COMP ORIG CRIMINAL-ASSESS 5.698,20 0,00 0,00 0,00 0,00 0,00 5.698,20 631,56 604,06 0,00 1.235,62 4.462,58 352,00 75,85 31/01/2013
1013 476500 GRACIELLY MARTINS PARREIRA PORTO ANALISTA DO MP ATIVO PASSOS - COMARCA; PASSOS-PJ-03PJ 5.698,20 0,00 0,00 0,00 0,00 0,00 5.698,20 774,28 732,43 0,00 1.506,71 4.191,49 3.567,68 1.848,79 31/01/2013
1014 491700 GRAZIELA COLARES LUZ SUSKI ANALISTA DO MP ATIVO BELO HORIZONTE - COMARCA; BH-18PJ VIOLENCIA DOMESTICA-SECRETARIA 5.176,02 0,00 0,00 0,00 0,00 0,00 5.176,02 572,04 476,25 0,00 1.048,29 4.127,73 2.422,41 232,83 31/01/2013
1015 421700 GRAZIELI DE SOUSA OLIVEIRA ANALISTA DO MP ATIVO RIBEIRÃO DAS NEVES - COMARCA; RIBEIRAO DAS NEVES-PJ-02PJ 6.379,14 382,75 0,00 0,00 0,00 0,00 6.761,89 892,06 992,92 0,00 1.884,98 4.876,91 352,00 1.347,83 31/01/2013
1016 401800 GRAZIELLA CRISTINA DE SOUZA COUTO ANALISTA DO MP ATIVO ALÉM PARAÍBA - COMARCA; ALEM PARAIBA-PJ-01PJ 6.379,14 382,75 0,00 0,00 0,00 0,00 6.761,89 743,81 864,39 0,00 1.608,20 5.153,69 352,00 0,00 31/01/2013
1017 518000 GRAZIELLA LEDO DE PAULA OFICIAL DO MP ATIVO PALMA - COMARCA; PALMA-PJ-UNPJ 2.684,83 0,00 0,00 0,00 0,00 0,00 2.684,83 320,65 68,54 0,00 389,19 2.295,64 3.169,95 297,50 31/01/2013
1018 489100 GRAZIELLE HELEN FERREIRA BRANDAO OFICIAL DO MP ATIVO BELO HORIZONTE - COMARCA; EXTINTA - PROTOCOLO DA PGJ 3.359,85 0,00 0,00 0,00 1.119,95 0,00 4.479,80 389,62 382,40 0,00 772,02 3.707,78 352,00 190,24 31/01/2013
1019 465400 GRAZZIELA DE OLIVEIRA E SOUSA LACERDA ANALISTA DO MP ATIVO ALMENARA - COMARCA; ALMENARA-PJ-03PJ 4.701,73 0,00 0,00 0,00 0,00 0,00 4.701,73 521,86 364,52 0,00 886,38 3.815,35 352,00 74,42 31/01/2013
1020 124800 GUARACI BARBOZA RIBEIRO OFICIAL DO MP ATIVO UBERLÂNDIA - COMARCA; UBERLANDIA-PJ-13PJ 8.788,36 6.151,86 0,00 0,00 0,00 0,00 14.940,22 1.643,42 2.724,16 0,00 4.367,58 10.572,64 3.567,68 294,77 31/01/2013
1021 116100 GUILHERME ANTONIO FURTADO OLIVEIRA OFICIAL DO MP ATIVO BELO HORIZONTE - COMARCA; DIRET DE INFORMACAO E EXPEDICAO DE PROCESSOS 10.651,04 5.325,52 0,00 0,00 0,00 0,00 15.976,56 1.757,42 3.119,68 0,00 4.877,10 11.099,46 3.567,68 294,77 31/01/2013
1022 422900 GUILHERME CORREA LAGROTTA ANALISTA DO MP ATIVO LAMBARI - COMARCA; LAMBARI-PJ-UNPJ 5.883,73 353,02 0,00 0,00 0,00 0,00 6.236,75 826,45 928,13 0,00 1.754,58 4.482,17 352,00 1.466,85 31/01/2013
1023 502300 GUILHERME DAHER DE ALMEIDA JUNQUEIRA ANALISTA DO MP ATIVO LAVRAS - COMARCA; COORD REG DO MA DA BACIA DO RIO GRANDE 4.270,85 0,00 0,00 0,00 0,00 0,00 4.270,85 470,35 278,24 0,00 748,59 3.522,26 587,00 9,82 31/01/2013
1024 476100 GUILHERME FIDELIS MARQUES ANALISTA DO MP ATIVO JABOTICATUBAS - COMARCA; JABOTICATUBAS-PJ-UNPJ 4.701,73 0,00 0,00 0,00 0,00 0,00 4.701,73 563,42 396,46 0,00 959,88 3.741,85 352,00 457,23 31/01/2013
1025 448000 GUILHERME LACERDA RIBEIRO ANALISTA DO MP ATIVO BELO HORIZONTE - COMARCA; DIRETORIA DE SISTEMAS DE INFORMACAO 5.698,20 341,89 0,00 0,00 2.013,36 0,00 8.053,45 739,63 1.325,08 0,00 2.064,71 5.988,74 352,00 683,78 31/01/2013
1026 380600 GUILHERME RIBEIRO JOAQUIM OFICIAL DO MP ATIVO CACHOEIRA DE MINAS - COMARCA; CACHOEIRA DE MINAS-PJ-SECRETARIA 3.151,29 189,08 0,00 0,00 0,00 0,00 3.340,37 369,18 125,34 0,00 494,52 2.845,85 1.688,15 95,40 31/01/2013
1027 490900 GUSTAVO DE CARVALHO HERZOG ANALISTA DO MP ATIVO BELO HORIZONTE - COMARCA; BH-18PJ VIOLENCIA DOMESTICA-SECRETARIA 5.176,02 0,00 0,00 0,00 0,00 0,00 5.176,02 572,08 476,25 0,00 1.048,33 4.127,69 352,00 43,67 31/01/2013
1028 431100 GUSTAVO DE SOUZA RIBEIRO ANALISTA DO MP ATIVO UBERLÂNDIA - COMARCA; UBERLANDIA-PJ-19PJ 5.344,58 320,67 0,00 0,00 0,00 0,00 5.665,25 623,18 595,99 0,00 1.219,17 4.446,08 3.567,68 294,77 31/01/2013
1029 506300 GUSTAVO GOMES FREIRE OFICIAL DO MP ATIVO OURO PRETO - COMARCA; OURO PRETO-PJ-02PJ 2.682,74 0,00 0,00 0,00 0,00 0,00 2.682,74 305,02 50,02 0,00 355,04 2.327,70 352,00 1,84 31/01/2013
1030 368200 GUSTAVO MESQUITA PEREIRA VARGAS ANALISTA DO MP ATIVO BELO HORIZONTE - COMARCA; ASSESS TECNICO-JUR JUNTO AS PROC. DE JUST 5.012,79 501,28 0,00 0,00 0,00 0,00 5.514,07 764,25 909,87 0,00 1.674,12 3.839,95 352,00 1.433,64 31/01/2013
1031 523100 GUSTAVO PORTO DINIZ REIS OFICIAL DO MP ATIVO BELO HORIZONTE - COMARCA; DIRETORIA DE SERVICO CRIMINAL 2.955,70 0,00 0,00 0,00 0,00 0,00 2.955,70 325,13 73,99 0,00 399,12 2.556,58 352,00 0,00 31/01/2013
1032 475400 GUSTAVO RICCIARDI CRUVINEL ANALISTA DO MP ATIVO GUAXUPÉ - COMARCA; GUAXUPE-PJ-03PJ 5.698,20 0,00 0,00 0,00 1.899,40 0,00 7.597,60 783,42 1.159,61 0,00 1.943,03 5.654,57 352,00 1.460,17 31/01/2013
1033 386200 GUSTHAVO CARVALHO NAVARRO OFICIAL DO MP ATIVO LAGOA SANTA - COMARCA; LAGOA SANTA-PJ-01PJ 4.553,46 273,21 0,00 0,00 0,00 0,00 4.826,67 535,89 390,75 0,00 926,64 3.900,03 3.567,68 373,75 31/01/2013
1034 275500 HEBER SOUZA FRANCA OFICIAL DO MP ATIVO BELO HORIZONTE - COMARCA; DIRET DE INFORMACAO E EXPEDICAO DE PROCESSOS 4.409,86 881,97 0,00 0,00 0,00 0,00 5.291,83 582,10 457,30 0,00 1.039,40 4.252,43 352,00 0,00 31/01/2013
1035 251701 HEBIA LUIZA MACHADO ASSIS ANALISTA DO MP ATIVO ITAÚNA - COMARCA; ITAUNA-PJ-03PJ 5.176,02 1.035,20 0,00 0,00 2.070,41 0,00 8.281,63 686,83 1.298,98 0,00 1.985,81 6.295,82 352,00 57,26 31/01/2013
1036 242000 HELAINE GUARNIERI AGOSTINHO OFICIAL DO MP ATIVO JUIZ DE FORA - COMARCA; JUIZ DE FORA-PJ-13PJ 6.075,32 1.215,06 0,00 0,00 0,00 0,00 7.290,38 801,94 946,45 0,00 1.748,39 5.541,99 3.802,68 294,77 31/01/2013
1037 511900 HELBERTH ELIAS CUNHA ANALISTA DO MP ATIVO CONTAGEM - COMARCA; CONTAGEM-PJ-04PJ 4.136,15 1.240,85 0,00 0,00 1.792,33 0,00 7.169,33 682,53 1.119,56 0,00 1.802,09 5.367,24 2.507,47 1.004,92 31/01/2013
1038 524900 HELDER DA COSTA RODRIGUES ANALISTA DO MP ATIVO BELO HORIZONTE - COMARCA; COORD REG BACIAS RIO VELHAS E PARAOPEBA 4.553,46 0,00 0,00 0,00 0,00 0,00 4.553,46 500,88 334,83 0,00 835,71 3.717,75 352,00 0,00 31/01/2013
1039 397000 HELEN CRISTINA TABELINI DE ANDRADE ASSESSOR ATIVO BELO HORIZONTE - COMARCA; CENT DE ATENDIMENTO AS PROMOTORIAS DE JUSTICA 0,00 0,00 3.698,79 0,00 0,00 0,00 3.698,79 457,49 165,60 0,00 623,09 3.075,70 3.802,68 219,76 31/01/2013
1040 465300 HELEN GOULART MAGALHAES DA FONSECA OFICIAL DO MP ATIVO CONTAGEM - COMARCA; CONTAGEM-PJ-10PJ 3.359,85 0,00 0,00 0,00 0,00 0,00 3.359,85 371,22 127,94 0,00 499,16 2.860,69 352,00 27,07 31/01/2013
1041 310801 HELEN ROCHA DO VALLE ANALISTA DO MP ATIVO BELO HORIZONTE - COMARCA; DIRETORIA DE CONTABILIDADE 7.731,26 1.546,25 0,00 0,00 0,00 0,00 9.277,51 1.020,53 1.480,09 0,00 2.500,62 6.776,89 3.567,68 294,77 31/01/2013
1042 498600 HELENA CARVALHO MOYSES OFICIAL DO MP ATIVO BELO HORIZONTE - COMARCA; DIRETORIA DE PRODUCAO EDITORIAL 3.051,96 0,00 0,00 0,00 1.017,32 0,00 4.069,28 335,84 263,05 0,00 598,89 3.470,39 822,00 3,16 31/01/2013
1043 324000 HELENA DO CARMO FERREIRA RAMOS OFICIAL DO MP ATIVO BURITIS - COMARCA; BURITIS-PJ-SECRETARIA 4.854,78 3.398,34 0,00 0,00 0,00 0,00 8.253,12 907,84 1.087,50 0,00 1.995,34 6.257,78 352,00 0,00 31/01/2013
1044 327800 HELENO TADEU TUCCI DE ALMEIDA OFICIAL DO MP ATIVO ITAJUBA - COMARCA; ITAJUBA-PJ-01PJ 4.005,77 400,58 0,00 0,00 1.468,78 0,00 5.875,13 489,30 597,20 0,00 1.086,50 4.788,63 587,00 73,36 31/01/2013
1045 204300 HELIANE DAS GRAAS MACHADO SANTOS VIEIRA OFICIAL DO MP ATIVO GOVERNADOR VALADARES - COMARCA; GOVERNADOR VALADARES-PJ-11PJ 6.177,98 1.235,60 0,00 0,00 0,00 0,00 7.413,58 815,49 976,60 0,00 1.792,09 5.621,49 352,00 0,00 31/01/2013
1046 374500 HELIONARDO FEITOZA GONCALVES ANALISTA DO MP ATIVO JEQUITINHONHA - COMARCA; JEQUITINHONHA-PJ-SECRETARIA 5.883,73 353,02 0,00 0,00 0,00 0,00 6.236,75 686,04 735,87 0,00 1.421,91 4.814,84 352,00 0,00 31/01/2013
1047 488500 HELLEN QUEIROZ ARAUJO ANALISTA DO MP ATIVO MONTES CLAROS - COMARCA; COORD REG PATRI PUB ORD TRIB-NORTE MINAS 4.701,73 0,00 0,00 0,00 0,00 0,00 4.701,73 520,20 364,52 0,00 884,72 3.817,01 587,00 48,39 31/01/2013
1048 374000 HELOISA HELENA RODRIGUES OFICIAL DO MP ATIVO CAMPOS ALTOS - COMARCA; CAMPOS ALTOS-PJ-SECRETARIA 3.757,11 225,43 0,00 0,00 0,00 0,00 3.982,54 442,22 159,48 0,00 601,70 3.380,84 352,00 66,21 31/01/2013
1049 497700 HELOISA MARIA FERREIRA DURAES ANALISTA DO MP ATIVO BELO HORIZONTE - COMARCA; ASSESS TECNICO-JUR JUNTO AS PROC. DE JUST 5.176,02 0,00 0,00 0,00 0,00 0,00 5.176,02 572,40 476,25 0,00 1.048,65 4.127,37 352,00 48,71 31/01/2013
1050 444300 HELVES RODRIGUES DA SILVA ANALISTA DO MP ATIVO SETE LAGOAS - COMARCA; SETE LAGOAS-PJ-08PJ 5.883,73 353,02 0,00 0,00 0,00 0,00 6.236,75 750,73 832,50 0,00 1.583,23 4.653,52 352,00 588,06 31/01/2013
1051 521400 HENRIQUE EDUARDO BRUZZI OFICIAL DO MP ATIVO BELO HORIZONTE - COMARCA; DIRETORIA DE ADMINISTRACAO FINANCEIRA 2.684,83 0,00 0,00 0,00 0,00 0,00 2.684,83 310,52 60,12 0,00 370,64 2.314,19 352,00 138,06 31/01/2013
1052 515700 HENRIQUE FLORES MENDES ANALISTA DO MP ATIVO PARÁ DE MINAS - COMARCA; PARA DE MINAS-PJ-02PJ 4.701,73 0,00 0,00 0,00 0,00 0,00 4.701,73 550,92 396,46 0,00 947,38 3.754,35 352,00 306,99 31/01/2013
1053 445500 HENRIQUE MATHEUS LONDERO DOS SANTOS ANALISTA DO MP ATIVO UBERLÂNDIA - COMARCA; UBERLANDIA-PJ-21PJ 5.883,73 353,02 0,00 0,00 0,00 0,00 6.236,75 744,92 784,00 0,00 1.528,92 4.707,83 587,00 572,12 31/01/2013
1054 504500 HENRIQUE MOREIRA DE MELO SILVA ANALISTA DO MP ATIVO DIAMANTINA - COMARCA; COORD REG BACIAS RIOS JEQUITINHONHA E MUCURI 4.270,85 0,00 0,00 0,00 0,00 0,00 4.270,85 469,90 278,24 0,00 748,14 3.522,71 587,00 2,88 31/01/2013
1055 310700 HENRIQUE RODRIGUES VALLE OFICIAL DO MP ATIVO BELO HORIZONTE - COMARCA; DIRETORIA DE SISTEMAS DE INFORMACAO 4.409,86 1.322,96 0,00 0,00 0,00 0,00 5.732,82 630,61 612,53 0,00 1.243,14 4.489,68 352,00 0,00 31/01/2013
1056 493100 HENRIQUE YUKIO PEREIRA DE SOUZA ANALISTA DO MP ATIVO BELO HORIZONTE - COMARCA; BH-07PJ TRIBUNAL DO JURI 5.176,02 0,00 0,00 0,00 0,00 0,00 5.176,02 573,43 476,25 0,00 1.049,68 4.126,34 352,00 64,86 31/01/2013
1057 478300 HERNANE LOPES SOUZA ANALISTA DO MP ATIVO MONTES CLAROS - COMARCA; MONTES CLAROS-PJ-12PJ 4.701,73 0,00 0,00 0,00 0,00 0,00 4.701,73 521,93 364,52 0,00 886,45 3.815,28 352,00 75,40 31/01/2013
1058 490000 HERNANI GANDRA DE ALMEIDA ANALISTA DO MP ATIVO VIRGINÓPOLIS - COMARCA; VIRGINOPOLIS-PJ-UNPJ 4.701,73 0,00 0,00 0,00 0,00 0,00 4.701,73 520,17 364,52 0,00 884,69 3.817,04 352,00 47,92 31/01/2013
1059 124900 HILARINO NOGUEIRA DE CARVALHO OFICIAL DO MP ATIVO SÃO JOÃO DEL REI - COMARCA; SAO JOAO DEL REI-PJ-03PJ 7.982,93 5.588,05 0,00 0,00 0,00 0,00 13.570,98 1.492,81 2.483,63 0,00 3.976,44 9.594,54 352,00 0,00 31/01/2013
1060 474700 HORTELIA MARIA DE MIRANDA GONCALVES ANALISTA DO MP ATIVO ARCOS - COMARCA; ARCOS-PJ-02PJ 4.270,85 0,00 0,00 0,00 0,00 0,00 4.270,85 474,07 278,24 0,00 752,31 3.518,54 352,00 68,41 31/01/2013
1061 504200 HUGO CESAR ROCHA DE PAIVA OFICIAL DO MP ATIVO BELO HORIZONTE - COMARCA; BH-19PJ SAUDE-ASS TECNICA 2.772,23 0,00 0,00 0,00 0,00 0,00 2.772,23 305,04 56,74 0,00 361,78 2.410,45 1.460,89 30,13 31/01/2013
1062 412000 HUMBERTO AUGUSTO DA SILVA GOMES ANALISTA DO MP ATIVO CONCEICAO DAS ALAGOAS - COMARCA; CONCEICAO DAS ALAGOAS-PJ-01PJ 5.883,73 353,02 0,00 0,00 0,00 0,00 6.236,75 686,04 688,57 0,00 1.374,61 4.862,14 587,00 0,00 31/01/2013
1063 297500 HUMBERTO JOSE TRIVELATO ANALISTA DO MP ATIVO JUIZ DE FORA - COMARCA; JUIZ DE FORA-PJ-22PJ 9.074,45 907,45 0,00 0,00 3.327,30 0,00 13.309,20 1.098,01 2.567,50 0,00 3.665,51 9.643,69 352,00 0,00 31/01/2013
1064 300400 HUMBERTO PEREIRA LANDIM ANALISTA DO MP ATIVO BELO HORIZONTE - COMARCA; BH-07PJ 01 TRIBUNAL JURI-SECRETARIA 8.788,36 878,84 0,00 0,00 0,00 0,00 9.667,20 1.063,39 1.575,47 0,00 2.638,86 7.028,34 352,00 0,00 31/01/2013
1065 125100 HYARBAS DELPHUS FERREIRA OFICIAL DO MP ATIVO BELO HORIZONTE - COMARCA; DIRETORIA DE SERVICO CIVEL 8.788,36 6.151,86 0,00 0,00 0,00 0,00 14.940,22 1.643,42 2.866,04 0,00 4.509,46 10.430,76 3.567,68 294,77 31/01/2013
1066 458100 IARA CAROLINA DE OLIVEIRA ANALISTA DO MP ATIVO NOVA SERRANA - COMARCA; NOVA SERRANA-PJ-01PJ 5.698,20 0,00 0,00 0,00 0,00 0,00 5.698,20 626,80 556,76 0,00 1.183,56 4.514,64 352,00 0,00 31/01/2013
1067 256000 IARA FERREIRA ARAUJO OFICIAL DO MP ATIVO DIVINÓPOLIS - COMARCA; COORD REG DO MA DA BACIA DO ALTO SAO FRANC 3.757,11 751,42 0,00 0,00 1.502,84 0,00 6.011,37 499,83 726,16 0,00 1.225,99 4.785,38 352,00 62,31 31/01/2013
1068 93100 IARA MARCIA ALVES OFICIAL DO MP ATIVO BELO HORIZONTE - COMARCA; BH-19PJ SAUDE 9.369,85 4.684,93 0,00 0,00 4.684,93 0,00 18.739,71 1.546,03 3.890,39 0,00 5.436,42 13.303,29 352,00 0,00 31/01/2013
1069 404100 IARA ROCHA BARBALHO ANALISTA DO MP ATIVO BELO HORIZONTE - COMARCA; SUPERINTENDÊNCIA DE ENGENHARIA E ARQUITETURA 6.379,14 382,75 0,00 0,00 0,00 0,00 6.761,89 743,81 817,10 0,00 1.560,91 5.200,98 352,00 0,00 31/01/2013
1070 248500 IDELSON MENDES BOTELHO ANALISTA DO MP ATIVO JUIZ DE FORA - COMARCA; COORD REG DEF ORDEM ECO TRIB JUIZ DE FORA-SEC 7.251,34 1.450,27 0,00 0,00 0,00 0,00 8.701,61 957,18 1.339,14 0,00 2.296,32 6.405,29 352,00 0,00 31/01/2013
1071 205600 IDELZIA RANGEL OFICIAL DO MP ATIVO SÃO JOÃO EVANGELISTA - COMARCA; SAO JOAO EVANGELISTA-PJ-SECRETARIA 7.487,46 2.994,99 0,00 0,00 0,00 0,00 10.482,45 1.153,07 1.727,71 0,00 2.880,78 7.601,67 3.567,68 294,77 31/01/2013
1072 429400 IEDA ALVES DA SILVA RABELO OFICIAL DO MP ATIVO BELO HORIZONTE - COMARCA; DIRET DE ESTAGIOS E CONVENIOS ACADEMICOS 3.151,29 189,08 0,00 0,00 0,00 0,00 3.340,37 370,13 125,34 0,00 495,47 2.844,90 352,00 43,46 31/01/2013
1073 507200 IGGOR LEONARDO COSTA GONTIJO ASSESSOR/ANALISTA ATIVO BELO HORIZONTE - COMARCA; DIRETORIA DE SISTEMAS DE INFORMACAO 0,00 0,00 7.487,46 0,00 0,00 0,00 7.487,46 570,12 1.111,90 0,00 1.682,02 5.805,44 3.567,68 307,67 31/01/2013
1074 434700 IGOR DE OLIVEIRA PACHECO ANALISTA DO MP ATIVO BELO HORIZONTE - COMARCA; PROC. JUSTICA DE HABEAS CORPUS 5.883,73 353,02 0,00 0,00 0,00 0,00 6.236,75 686,04 735,87 0,00 1.421,91 4.814,84 352,00 0,00 31/01/2013
1075 369700 IGOR DE OLIVEIRA RODRIGUES OFICIAL DO MP ATIVO UBERLÂNDIA - COMARCA; UBERLANDIA-PJ-10PJ 3.582,21 358,22 0,00 0,00 0,00 0,00 3.940,43 530,92 381,18 0,00 912,10 3.028,33 3.567,68 1.158,66 31/01/2013
1076 260400 IGOR LAENDER AMBROSI NAJAR ANALISTA DO MP ATIVO BELO HORIZONTE - COMARCA; BH-17PJ PATRIMONIO PUBLICO-SECRETARIA 9.074,45 1.814,89 0,00 0,00 0,00 0,00 10.889,34 1.300,49 2.008,43 0,00 3.308,92 7.580,42 4.037,68 1.228,07 31/01/2013
1077 387000 IGOR SILVEIRA PEDRA OFICIAL DO MP ATIVO BELO HORIZONTE - COMARCA; ASSESS EXECUTIVA DO CONSELHO SUPERIOR DO MP 3.469,26 208,16 0,00 0,00 0,00 0,00 3.677,42 432,05 203,59 0,00 635,64 3.041,78 352,00 273,11 31/01/2013
1078 58300 ILDA MARIA SOUSA CARMO AGENTE DO MP ATIVO BELO HORIZONTE - COMARCA; ASSESSORIA ESPECIAL FINANCEIRA DO PGJAA 21.668,41 15.167,88 0,00 0,00 8.039,21 2.652,94 47.528,44 2.652,94 7.957,96 12.718,67 23.329,57 24.198,87 352,00 0,00 31/01/2013
1079 330200 ILDOMAR BRAZ DE SOUZA OFICIAL DO MP ATIVO BELO HORIZONTE - COMARCA; BH-13ª PJ JUÍXO DE TÓXICOS 4.005,77 400,58 0,00 0,00 0,00 0,00 4.406,35 489,56 305,37 0,00 794,93 3.611,42 352,00 77,48 31/01/2013
1080 383800 INGRID CASSIA NACIF KASBERGEN NOGUEIRA ANALISTA DO MP ATIVO BELO HORIZONTE - COMARCA; DIRETORIA DE ORCAMENTO-DIOR/SPC 6.379,14 382,75 0,00 0,00 0,00 0,00 6.761,89 743,81 864,39 0,00 1.608,20 5.153,69 352,00 0,00 31/01/2013
1081 230100 INGRID MARTINS ESTEVES ANALISTA DO MP ATIVO BELO HORIZONTE - COMARCA; EXTINTA - COORD DEFESA DO DIREITO DE FAMILIA 10.315,17 2.063,03 0,00 0,00 0,00 0,00 12.378,20 1.735,94 2.516,63 0,00 4.252,57 8.125,63 352,00 3.403,14 31/01/2013
1082 523800 INGRID SARAIVA DE ALENCAR OFICIAL DO MP ATIVO BELO HORIZONTE - COMARCA; DIRETORIA DE PAGAMENTO DE PESSOAL-DPAG 2.684,83 0,00 0,00 0,00 0,00 0,00 2.684,83 295,33 50,90